Date StartTime U_cm/s V_cm/s W_cm/s Ustd_cm/s Vstd_cm/s Wstd_cm/s Uvar_(cm/s)^2 Vvar_(cm/s)^2 Wvar_(cm/s)^2 KE_(m/s)^2 TurbulentKE_(m/s)^2 HorizWindSpeed_cm/s FrictionSpeec_cm/s DragCoef SpeedOfSound_m/s SonicTemperature_C Pressure_mb 
04/29/2013  00:00:00     -159.558      -32.089       -2.641       49.938       41.704       25.076     2493.840     1739.254      628.788        1.568        0.243      162.753       23.350        0.021      342.274       17.569      862.040
04/29/2013  00:01:00     -211.297      -55.195       -8.771       70.840       60.783       35.698     5018.311     3694.542     1274.373        2.888        0.499      218.387       34.026        0.024      342.474       17.905      862.032
04/29/2013  00:02:00     -213.091       26.056      -34.063       38.060       48.840       20.642     1448.537     2385.336      426.072        2.575        0.213      214.678       19.619        0.008      342.467       17.893      862.030
04/29/2013  00:03:00     -129.294       76.511      -26.184       34.145       33.070       23.166     1165.891     1093.655      536.658        1.303        0.140      150.236       20.614        0.019      342.486       17.929      862.011
04/29/2013  00:04:00     -100.130      104.291      -23.492       29.064       29.756       17.542      844.742      885.401      307.731        1.175        0.102      144.578       16.283        0.013      342.488       17.932      861.984
04/29/2013  00:05:00      -76.586       66.256      -19.653       27.830       25.875       17.476      774.500      669.498      305.395        0.620        0.087      101.268       20.080        0.039      342.426       17.828      861.960
04/29/2013  00:06:00      -89.469       69.951      -17.827       25.939       30.761       18.044      672.818      946.251      325.598        0.758        0.097      113.568       19.222        0.029      342.359       17.713      861.952
04/29/2013  00:07:00      -82.742       84.582      -18.482       27.555       32.125       16.127      759.301     1032.041      260.071        0.820        0.103      118.323       14.963        0.016      342.384       17.754      861.942
04/29/2013  00:08:00     -114.369       73.209      -13.314       42.637       43.304       23.794     1817.948     1875.214      566.152        1.144        0.213      135.793       19.130        0.020      342.324       17.654      861.959
04/29/2013  00:09:00      -78.798       12.551       -7.053       45.834       74.517       21.085     2100.771     5552.818      444.557        0.726        0.405       79.791       23.007        0.083      342.413       17.805      861.939
04/29/2013  00:10:00      -62.465       -6.624        1.522       59.084       35.805       23.675     3490.908     1281.970      560.494        0.464        0.267       62.815       32.170        0.262      342.448       17.866      861.922
04/29/2013  00:11:00     -143.222       60.249      -31.989       85.063       49.916       30.505     7235.736     2491.566      930.531        1.791        0.533      155.378       38.593        0.062      342.554       18.043      861.920
04/29/2013  00:12:00     -108.781       68.117      -11.354       71.450       61.371       34.169     5105.076     3766.433     1167.528        1.332        0.502      128.349       32.756        0.065      342.558       18.050      861.892
04/29/2013  00:13:00      -35.093      120.012       -7.259       41.253       44.603       27.457     1701.833     1989.438      753.865        1.007        0.222      125.038       22.002        0.031      342.432       17.837      861.890
04/29/2013  00:14:00     -113.588      172.323      -31.612       46.810       48.256       28.481     2191.130     2328.599      811.163        2.446        0.267      206.391       23.020        0.012      342.558       18.049      861.907
04/29/2013  00:15:00      -68.627      137.997      -13.271       46.979       50.675       26.449     2206.991     2567.952      699.557        1.470        0.274      154.119       26.624        0.030      342.514       17.976      861.905
04/29/2013  00:16:00      -76.032      143.939      -12.703       39.553      103.843       32.698     1564.441    10783.274     1069.149        2.004        0.671      162.786       43.394        0.071      342.478       17.914      861.905
04/29/2013  00:17:00      -86.356      210.917      -25.200       63.568       52.570       25.648     4040.836     2763.581      657.813        3.002        0.373      227.911       26.857        0.014      342.502       17.952      861.907
04/29/2013  00:18:00      -73.690      103.563      -16.272       57.694       61.675       25.097     3328.642     3803.790      629.835        1.209        0.388      127.105       20.504        0.026      342.361       17.716      861.921
04/29/2013  00:19:00        4.089      167.465      -26.952       30.120       37.571       21.549      907.242     1411.559      464.365        1.578        0.139      167.514       18.135        0.012      342.209       17.458      861.944
04/29/2013  00:20:00        4.439      172.204      -22.006       29.559       38.313       18.141      873.734     1467.920      329.104        1.641        0.134      172.261       18.313        0.011      342.056       17.197      861.965
04/29/2013  00:21:00      -27.768      185.616      -24.295       33.363       29.563       17.634     1113.121      873.982      310.948        1.906        0.115      187.682       12.829        0.005      342.288       17.592      861.963
04/29/2013  00:22:00      -95.873      113.452      -17.837       44.911       49.909       28.837     2017.040     2490.904      831.590        1.386        0.267      148.536       26.098        0.031      342.226       17.486      861.984
04/29/2013  00:23:00      -94.057       79.047      -20.222       32.722       31.252       20.151     1070.709      976.702      406.046        0.898        0.123      122.862       19.814        0.026      342.156       17.370      861.987
04/29/2013  00:24:00     -100.396       64.439      -22.028       23.759       27.767       16.808      564.499      771.024      282.515        0.817        0.081      119.297       15.139        0.016      342.393       17.771      861.977
04/29/2013  00:25:00      -90.777       97.631      -25.343       23.553       35.018       17.666      554.722     1226.270      312.091        1.025        0.105      133.312       19.917        0.022      342.396       17.776      861.977
04/29/2013  00:26:00      -88.215       93.298      -24.272       30.753       26.981       14.664      945.725      727.958      215.033        0.948        0.094      128.399       12.966        0.010      342.345       17.691      861.963
04/29/2013  00:27:00      -84.254      117.915      -15.789       58.412       43.478       28.293     3411.944     1890.367      800.517        1.368        0.305      144.923       31.290        0.047      342.403       17.788      861.942
04/29/2013  00:28:00     -118.342       91.965      -21.671       41.547       48.675       24.790     1726.160     2369.232      614.557        1.382        0.235      149.875       27.721        0.034      342.378       17.747      861.944
04/29/2013  00:29:00     -123.620      157.047      -32.468       41.346       53.759       24.664     1709.451     2889.991      608.328        2.310        0.260      199.865       22.487        0.013      342.407       17.793      861.926
04/29/2013  00:30:00     -115.036      169.531      -14.967       51.378       75.232       35.872     2639.676     5659.830     1286.767        2.589        0.479      204.876       31.632        0.024      342.335       17.670      861.908
04/29/2013  00:31:00      -74.644      100.103      -16.127       44.223       44.937       20.509     1955.635     2019.354      420.617        1.012        0.220      124.869       15.817        0.016      342.318       17.643      861.904
04/29/2013  00:32:00     -111.369      124.383      -25.339       39.796       41.626       24.977     1583.689     1732.724      623.836        1.623        0.197      166.956       22.198        0.018      342.291       17.597      861.900
04/29/2013  00:33:00     -159.948      172.463      -42.868       67.008       62.673       36.618     4490.049     3927.921     1340.860        3.346        0.488      235.217       36.700        0.024      342.255       17.534      861.894
04/29/2013  00:34:00     -151.448      159.153      -34.371       51.056       57.649       30.091     2606.742     3323.431      905.470        2.814        0.342      219.696       28.987        0.017      342.170       17.388      861.903
04/29/2013  00:35:00     -108.277      129.374      -26.092       36.610       51.263       23.766     1340.279     2627.890      564.843        1.684        0.227      168.705       26.402        0.024      342.145       17.350      861.901
04/29/2013  00:36:00      -77.180      129.953      -18.076       42.370       46.440       27.110     1795.195     2156.639      734.925        1.393        0.234      151.144       25.153        0.028      342.119       17.305      861.914
04/29/2013  00:37:00      -91.429       74.316      -20.396       27.778       37.710       18.512      771.626     1422.078      342.680        0.842        0.127      117.823       16.476        0.020      342.089       17.255      861.926
04/29/2013  00:38:00      -56.919       77.552      -12.197       32.887       46.654       23.233     1081.559     2176.628      539.756        0.660        0.190       96.198       24.930        0.067      342.084       17.246      861.923
04/29/2013  00:39:00     -115.758      -10.257       -5.011       40.984       44.229       23.581     1679.697     1956.205      556.059        0.886        0.210      116.212       19.957        0.029      342.080       17.238      861.935
04/29/2013  00:40:00      -94.506      -28.904       -7.837       45.865       69.932       22.593     2103.595     4890.538      510.464        0.866        0.375       98.827       17.617        0.032      342.054       17.196      861.955
04/29/2013  00:41:00     -102.066       76.401      -20.697       46.389       56.193       34.283     2151.931     3157.615     1175.299        1.158        0.324      127.493       27.446        0.046      342.053       17.193      861.950
04/29/2013  00:42:00      -40.434        3.329       -1.407       30.935       43.617       24.453      956.967     1902.478      597.969        0.255        0.173       40.570       18.686        0.212      342.075       17.231      861.948
04/29/2013  00:43:00      -64.245       63.469       -7.746       54.633       54.641       34.839     2984.795     2985.642     1213.773        0.770        0.359       90.310       33.953        0.141      342.060       17.205      861.946
04/29/2013  00:44:00      -48.810       64.894       -2.871       24.394       28.221       21.236      595.073      796.442      450.956        0.422        0.092       81.201       16.771        0.043      341.965       17.043      861.944
04/29/2013  00:45:00      -93.479       70.318      -12.885       36.371       43.004       24.799     1322.838     1849.337      614.970        0.882        0.189      116.974       20.061        0.029      341.978       17.065      861.954
04/29/2013  00:46:00      -99.694       31.791       -5.292       33.030       26.541       16.974     1090.964      704.416      288.101        0.653        0.104      104.641       13.979        0.018      342.003       17.109      861.948
04/29/2013  00:47:00     -150.113        0.221      -21.587       35.385       41.955       21.463     1252.113     1760.223      460.660        1.324        0.174      150.113       22.036        0.022      342.072       17.224      861.939
04/29/2013  00:48:00     -162.690      -69.481      -22.183       44.610       45.261       27.110     1990.046     2048.584      734.926        1.828        0.239      176.906       25.763        0.021      341.967       17.047      861.935
04/29/2013  00:49:00     -149.313      -65.432       -9.587       33.167       41.672       23.806     1100.083     1736.564      566.746        1.503        0.170      163.020       15.617        0.009      341.911       16.953      861.920
04/29/2013  00:50:00     -141.335      -87.069        2.013       60.748       39.999       31.861     3690.330     1599.932     1015.128        1.693        0.315      166.002       33.156        0.040      341.928       16.982      861.915
04/29/2013  00:51:00     -155.638      -49.124       -3.353       64.469       45.798       28.370     4156.268     2097.416      804.850        1.685        0.353      163.207       31.010        0.036      341.908       16.947      861.917
04/29/2013  00:52:00     -127.259      -41.003       -0.165       49.234       36.866       26.434     2423.963     1359.114      698.761        1.118        0.224      133.702       24.759        0.034      341.845       16.839      861.922
04/29/2013  00:53:00     -204.542      -46.895      -19.007       81.917       65.481       44.869     6710.316     4287.808     2013.192        2.870        0.651      209.849       43.859        0.044      341.891       16.915      861.884
04/29/2013  00:54:00     -114.554      -10.026       -6.113       57.255       42.987       25.130     3278.158     1847.857      631.503        0.951        0.288      114.992       25.760        0.050      341.720       16.628      861.909
04/29/2013  00:55:00     -116.452       24.275      -16.547       39.568       47.745       21.990     1565.611     2279.624      483.578        0.938        0.216      118.956       20.358        0.029      341.719       16.628      861.911
04/29/2013  00:56:00      -91.572       -5.628       -4.834       33.324       38.274       21.287     1110.516     1464.894      453.156        0.573        0.151       91.745       13.040        0.020      341.709       16.610      861.892
04/29/2013  00:57:00      -94.342       62.105       -7.057       36.794       75.336       31.434     1353.791     5675.521      988.123        1.041        0.401      112.949       26.792        0.056      341.679       16.559      861.885
04/29/2013  00:58:00      -41.358       20.374       16.883       50.584       85.694       35.465     2558.691     7343.406     1257.752        0.678        0.558       46.104       12.910        0.078      341.665       16.535      861.892
04/29/2013  00:59:00     -174.091       32.116       -8.806       59.105       73.572       42.994     3493.431     5412.773     1848.478        2.108        0.538      177.028       21.369        0.015      341.739       16.658      861.874
04/29/2013  01:00:00      -92.164       73.334       -6.280       96.523      100.331       45.411     9316.608    10066.224     2062.174        1.767        1.072      117.780       60.465        0.264      341.673       16.548      861.854
04/29/2013  01:01:00     -108.125       10.128      -17.283       48.147       81.331       50.394     2318.092     6614.696     2539.535        1.178        0.574      108.598       27.537        0.064      341.706       16.606      861.849
04/29/2013  01:02:00     -133.888      164.558      -21.291       67.979       75.451       51.445     4621.095     5692.923     2646.538        2.921        0.648      212.145       41.722        0.039      341.732       16.645      861.854
04/29/2013  01:03:00     -178.317       83.011      -19.774      143.032      104.423       54.416    20458.163    10904.205     2961.064        3.669        1.716      196.692       64.872        0.109      341.773       16.717      861.852
04/29/2013  01:04:00     -166.891      140.711      -19.876       94.620      156.644       54.911     8952.964    24537.370     3015.254        4.227        1.825      218.294       70.182        0.103      341.754       16.683      861.856
04/29/2013  01:05:00     -188.255      233.501      -33.500       87.817      139.573       56.269     7711.834    19480.699     3166.233        6.072        1.518      299.938       43.788        0.021      341.746       16.670      861.900
04/29/2013  01:06:00     -179.518      177.061      -27.783       84.093       99.450       55.341     7071.601     9890.227     3062.604        4.218        1.001      252.145       56.805        0.051      341.739       16.657      861.909
04/29/2013  01:07:00     -185.672      172.961      -42.858      114.618      106.175       55.692    13137.256    11273.152     3101.573        4.686        1.376      253.751       62.696        0.061      341.752       16.680      861.922
04/29/2013  01:08:00     -217.322      223.148      -42.405       97.862      127.372       61.841     9576.942    16223.559     3824.316        6.422        1.481      311.487       56.475        0.033      341.736       16.651      861.941
04/29/2013  01:09:00     -215.208      232.228      -42.709      120.941       93.557       66.257    14626.611     8752.972     4389.988        6.491        1.388      316.613       67.029        0.045      341.732       16.644      861.951
04/29/2013  01:10:00     -127.048      182.753      -34.958       73.150       68.786       43.417     5350.970     4731.548     1885.040        3.136        0.598      222.575       37.635        0.029      341.712       16.611      861.952
04/29/2013  01:11:00     -195.063      182.826      -50.107       93.412       72.670       58.711     8725.741     5280.945     3447.002        4.572        0.873      267.347       54.761        0.042      341.738       16.657      861.943
04/29/2013  01:12:00     -156.655      227.272      -32.296       71.214       87.787       54.195     5071.390     7706.533     2937.146        4.647        0.786      276.032       40.904        0.022      341.718       16.621      861.943
04/29/2013  01:13:00     -208.611      152.940      -33.226      113.863       96.078       57.231    12964.815     9230.951     3275.389        4.674        1.274      258.668       43.854        0.029      341.720       16.626      861.938
04/29/2013  01:14:00     -212.370      227.975      -50.316      119.849       92.692       53.536    14363.751     8591.742     2866.065        6.271        1.291      311.566       60.868        0.038      341.728       16.638      861.926
04/29/2013  01:15:00     -118.727      231.006      -24.358       66.922       67.281       51.918     4478.526     4526.700     2695.452        3.987        0.585      259.731       25.775        0.010      341.721       16.626      861.906
04/29/2013  01:16:00     -134.917      162.504       -8.279       81.534      108.079       60.466     6647.735    11680.977     3656.140        3.333        1.099      211.211       53.132        0.063      341.732       16.647      861.892
04/29/2013  01:17:00     -219.233      169.465      -34.853       84.273       88.449       51.260     7101.901     7823.219     2627.614        4.777        0.878      277.095       45.249        0.027      341.767       16.705      861.895
04/29/2013  01:18:00     -222.624      115.588      -40.327      136.399       82.567       46.192    18604.771     6817.276     2133.692        4.605        1.378      250.843       41.793        0.028      341.791       16.746      861.888
04/29/2013  01:19:00     -208.161      149.953      -45.406       77.685       73.985       43.598     6034.955     5473.732     1900.789        4.064        0.670      256.548       38.838        0.023      341.798       16.758      861.897
04/29/2013  01:20:00     -187.425      159.778      -31.937      116.630      121.945       65.663    13602.614    14870.690     4311.587        4.722        1.639      246.287       61.982        0.063      341.754       16.681      861.890
04/29/2013  01:21:00     -186.170      256.542      -38.921       88.125      135.567       63.332     7765.973    18378.298     4010.980        6.607        1.508      316.975       63.364        0.040      341.700       16.592      861.916
04/29/2013  01:22:00     -141.982      181.429      -25.511       90.096      104.669       50.577     8117.375    10955.679     2558.069        3.767        1.082      230.381       43.964        0.036      341.748       16.672      861.946
04/29/2013  01:23:00     -164.607      158.233      -10.380       81.483      133.398       60.166     6639.506    17794.984     3619.963        4.014        1.403      228.327       48.543        0.045      341.734       16.648      861.967
04/29/2013  01:24:00     -138.251      186.042      -27.142       83.640       86.577       56.828     6995.569     7495.652     3229.380        3.609        0.886      231.786       47.973        0.043      341.741       16.661      861.978
04/29/2013  01:25:00     -186.277      117.551      -29.461      104.646       84.871       48.651    10950.811     7203.074     2366.938        3.495        1.026      220.267       56.174        0.065      341.775       16.718      861.991
04/29/2013  01:26:00     -118.698      209.441      -29.448       96.410      114.892       70.400     9294.942    13200.263     4956.122        4.313        1.373      240.738       67.411        0.078      341.744       16.665      862.002
04/29/2013  01:27:00     -177.344      189.756      -47.171      136.458      143.286       57.750    18620.868    20530.841     3335.068        5.608        2.124      259.727       77.481        0.089      341.800       16.763      862.002
04/29/2013  01:28:00     -193.979      221.934      -49.935       84.164      110.924       46.698     7083.616    12304.217     2180.727        5.547        1.078      294.759       37.675        0.016      341.785       16.734      862.008
04/29/2013  01:29:00     -290.137      244.255      -49.552      125.834      126.235       66.962    15834.090    15935.249     4483.860        9.127        1.813      379.263       62.589        0.027      341.774       16.717      862.014
04/29/2013  01:30:00     -113.364      196.931       -6.026       95.231      121.752       54.287     9069.009    14823.619     2947.108        3.925        1.342      227.229       48.199        0.045      341.702       16.594      862.005
04/29/2013  01:31:00     -117.630       56.874        6.994      110.714       92.816       68.661    12257.655     8614.748     4714.321        2.135        1.279      130.658       73.140        0.313      341.703       16.597      861.995
04/29/2013  01:32:00     -211.779      188.193      -34.872      158.642      119.296       86.759    25167.215    14231.514     7527.207        6.420        2.346      283.314       97.336        0.118      341.711       16.610      861.986
04/29/2013  01:33:00     -174.782      259.962      -30.703       82.708      151.275       55.783     6840.668    22884.019     3111.740        6.595        1.642      313.255       62.143        0.039      341.684       16.564      861.982
04/29/2013  01:34:00     -184.763      306.598      -38.153      127.724      147.615       91.462    16313.502    21790.072     8365.216        8.802        2.323      357.966      102.752        0.082      341.675       16.550      861.977
04/29/2013  01:35:00     -183.444      219.453      -31.519      121.259      114.239       67.185    14703.625    13050.649     4513.812        5.753        1.613      286.027       66.395        0.054      341.662       16.525      861.981
04/29/2013  01:36:00     -198.416      324.826      -46.567      134.216      152.234       78.394    18013.853    23175.111     6145.667        9.718        2.367      380.632       84.686        0.050      341.688       16.570      861.974
04/29/2013  01:37:00     -114.955      355.118      -36.635       67.454      137.529       56.158     4550.062    18914.143     3153.685        8.364        1.331      373.261       40.587        0.012      341.660       16.522      861.964
04/29/2013  01:38:00     -114.627      234.986      -28.069       88.743       99.893       65.735     7875.325     9978.541     4321.142        4.566        1.109      261.453       53.979        0.043      341.648       16.503      861.970
04/29/2013  01:39:00     -128.095      300.776      -35.947       70.439       87.834       53.980     4961.617     7714.765     2913.791        6.188        0.780      326.917       44.704        0.019      341.610       16.439      861.967
04/29/2013  01:40:00     -172.310      219.874      -27.948      115.225      142.326       77.412    13276.723    20256.613     5992.583        5.916        1.976      279.348       75.579        0.073      341.619       16.454      861.955
04/29/2013  01:41:00     -147.963      262.707      -28.515      141.643      154.390       81.678    20062.692    23836.409     6671.352        7.114        2.529      301.509       92.698        0.095      341.624       16.464      861.950
04/29/2013  01:42:00     -121.633      194.908      -14.030      105.285      108.838       61.539    11085.029    11845.760     3786.996        3.984        1.336      229.747       61.900        0.073      341.597       16.418      861.950
04/29/2013  01:43:00     -133.447      214.812      -31.149       73.758       88.102       46.563     5440.225     7761.963     2168.110        4.014        0.769      252.888       38.778        0.024      341.572       16.375      861.942
04/29/2013  01:44:00     -182.587      144.792      -29.224       91.441       84.721       65.946     8361.430     7177.588     4348.872        3.752        0.994      233.029       60.156        0.067      341.568       16.367      861.937
04/29/2013  01:45:00     -222.696      192.822      -43.010      115.348       87.643       58.449    13305.094     7681.258     3416.307        5.651        1.220      294.574       54.969        0.035      341.534       16.309      861.908
04/29/2013  01:46:00     -154.595      251.989      -33.283      104.281      147.222       63.915    10874.487    21674.453     4085.142        6.256        1.832      295.632       66.250        0.050      341.500       16.253      861.896
04/29/2013  01:47:00     -174.876      108.769      -34.635       83.607      134.280       62.535     6990.164    18031.098     3910.669        3.627        1.447      205.943       51.084        0.062      341.543       16.327      861.878
04/29/2013  01:48:00     -185.923      222.047      -23.993      114.915      129.771       71.844    13205.361    16840.416     5161.506        5.982        1.760      289.607       66.980        0.053      341.525       16.295      861.852
04/29/2013  01:49:00     -166.850      244.267      -29.423      102.462      142.733       68.925    10498.449    20372.709     4750.600        6.199        1.781      295.813       65.429        0.049      341.521       16.288      861.830
04/29/2013  01:50:00     -139.440      187.577      -27.946       97.929      130.124       56.899     9590.091    16932.274     3237.449        4.258        1.488      233.727       74.369        0.101      341.506       16.264      861.825
04/29/2013  01:51:00     -167.949      191.974      -17.279       93.919      100.214       53.290     8820.793    10042.875     2839.876        4.353        1.085      255.070       52.580        0.042      341.495       16.243      861.807
04/29/2013  01:52:00     -175.448      200.396      -26.701      124.538      128.325       72.914    15509.806    16467.340     5316.435        5.447        1.865      266.346       71.950        0.073      341.510       16.269      861.798
04/29/2013  01:53:00     -127.436      110.224      -21.761       93.371       87.290       49.948     8718.108     7619.593     2494.806        2.384        0.942      168.491       47.551        0.080      341.482       16.221      861.785
04/29/2013  01:54:00     -157.804      248.145      -36.816       90.309      111.867       61.888     8155.762    12514.227     3830.093        5.616        1.225      294.071       57.744        0.039      341.469       16.198      861.767
04/29/2013  01:55:00     -164.259      209.318      -36.795       96.175       95.306       64.650     9249.648     9083.242     4179.560        4.733        1.126      266.073       59.035        0.049      341.457       16.179      861.758
04/29/2013  01:56:00     -122.999      178.546      -27.473       80.564       92.376       50.819     6490.598     8533.335     2582.605        3.268        0.880      216.812       43.430        0.040      341.447       16.163      861.756
04/29/2013  01:57:00     -143.731      102.913      -10.715       97.123      104.320       58.379     9432.950    10882.757     3408.162        2.754        1.186      176.776       57.951        0.107      341.460       16.185      861.747
04/29/2013  01:58:00     -137.386      170.746      -22.419       89.501       91.383       46.648     8010.492     8350.782     2176.035        3.353        0.927      219.155       52.619        0.058      341.419       16.116      861.738
04/29/2013  01:59:00     -147.251      170.011      -17.797       73.381       82.490       44.510     5384.720     6804.585     1981.122        3.253        0.709      224.915       40.029        0.032      341.425       16.124      861.745
04/29/2013  02:00:00     -163.338      209.831      -38.982       69.471       93.914       44.276     4826.225     8819.856     1960.331        4.391        0.780      265.910       35.059        0.017      341.400       16.081      861.728
04/29/2013  02:01:00     -161.904      211.493      -27.882       87.388       94.498       63.507     7636.724     8929.862     4033.129        4.616        1.030      266.349       62.078        0.054      341.348       15.994      861.721
04/29/2013  02:02:00     -179.961      233.983      -50.784      105.147      156.444       59.869    11055.819    24474.713     3584.321        6.441        1.956      295.184       85.488        0.084      341.351       16.001      861.720
04/29/2013  02:03:00     -182.340      151.719      -25.556       65.010      116.438       57.594     4226.336    13557.828     3317.092        3.901        1.055      237.206       48.690        0.042      341.348       15.994      861.725
04/29/2013  02:04:00     -161.409      111.907      -18.639       96.662       92.620       60.886     9343.609     8578.516     3707.127        3.027        1.081      196.408       69.138        0.124      341.329       15.964      861.710
04/29/2013  02:05:00     -218.651      107.921      -25.951      118.754      114.085       66.576    14102.441    13015.377     4432.387        4.583        1.578      243.834       64.970        0.071      341.310       15.931      861.725
04/29/2013  02:06:00     -177.314      134.649      -33.927       87.842       93.222       50.551     7716.182     8690.415     2555.437        3.484        0.948      222.644       52.221        0.055      341.279       15.880      861.762
04/29/2013  02:07:00     -223.010      190.177      -41.594      100.810      178.096       65.438    10162.726    31718.192     4282.169        6.689        2.308      293.088       54.238        0.034      341.261       15.848      861.749
04/29/2013  02:08:00     -217.523      311.576      -48.232       79.903      116.839       59.148     6384.459    13651.259     3498.490        8.512        1.177      379.994       52.510        0.019      341.230       15.796      861.765
04/29/2013  02:09:00     -160.678      202.283      -31.256       96.671       97.986       58.109     9345.293     9601.179     3376.661        4.501        1.116      258.333       57.998        0.050      341.193       15.733      861.774
04/29/2013  02:10:00     -133.597      103.762      -19.841       74.233       69.562       46.474     5510.584     4838.850     2159.789        2.076        0.625      169.159       33.518        0.039      341.179       15.710      861.752
04/29/2013  02:11:00     -285.727      110.970      -49.092      102.194      100.969       60.961    10443.553    10194.762     3716.213        6.035        1.218      306.519       43.714        0.020      341.146       15.651      861.735
04/29/2013  02:12:00     -198.032      175.799      -47.564       91.108      137.084       60.053     8300.609    18792.083     3606.331        5.154        1.535      264.805       71.066        0.072      341.119       15.606      861.741
04/29/2013  02:13:00     -150.242      141.784      -32.232       44.724       71.666       43.943     2000.198     5135.967     1930.976        2.639        0.453      206.580       30.919        0.022      341.102       15.579      861.741
04/29/2013  02:14:00     -196.916      136.771      -29.594       93.995       98.851       54.904     8835.123     9771.527     3014.458        3.999        1.081      239.755       46.592        0.038      341.106       15.586      861.742
04/29/2013  02:15:00     -175.913      122.275      -19.740       94.385      165.547       62.862     8908.467    27405.837     3951.629        4.327        2.013      214.235       46.111        0.046      341.074       15.530      861.729
04/29/2013  02:16:00     -228.363       89.029      -37.136      102.200       73.401       41.432    10444.933     5387.724     1716.631        3.950        0.877      245.104       40.312        0.027      341.030       15.458      861.758
04/29/2013  02:17:00     -153.689        4.858        0.720      123.263       96.117       63.617    15193.707     9238.557     4047.169        2.606        1.424      153.766       69.701        0.205      340.996       15.400      861.770
04/29/2013  02:18:00     -212.133      112.495      -34.851       96.371      144.298       62.593     9287.426    20822.005     3917.852        4.644        1.701      240.115       56.631        0.056      340.979       15.369      861.749
04/29/2013  02:19:00     -181.282       56.236      -20.674       83.419      113.919       56.777     6958.812    12977.584     3223.597        2.980        1.158      189.805       48.289        0.065      340.979       15.371      861.786
04/29/2013  02:20:00     -200.125      132.373      -21.390       84.133      172.695       62.520     7078.359    29823.651     3908.777        4.941        2.041      239.943       55.235        0.053      340.926       15.281      861.775
04/29/2013  02:21:00     -194.885       29.154      -14.939       82.966       99.944       52.371     6883.315     9988.736     2742.770        2.933        0.981      197.053       21.600        0.012      340.911       15.256      861.760
04/29/2013  02:22:00     -256.089       56.333      -30.795       95.116       70.116       64.718     9047.111     4916.187     4188.472        4.392        0.908      262.212       53.043        0.041      340.880       15.204      861.765
04/29/2013  02:23:00     -216.979       82.332      -27.216      105.274       72.512       46.571    11082.697     5258.057     2168.868        3.655        0.925      232.074       48.566        0.044      340.827       15.114      861.773
04/29/2013  02:24:00     -185.978      128.761      -28.656      105.652      114.957       58.438    11162.361    13215.159     3414.997        3.988        1.390      226.202       60.665        0.072      340.775       15.027      861.785
04/29/2013  02:25:00     -169.417      120.974      -18.253      100.829      124.597       53.356    10166.552    15524.293     2846.907        3.610        1.427      208.175       44.616        0.046      340.772       15.020      861.787
04/29/2013  02:26:00     -196.888      153.148      -27.233      116.129       95.884       63.312    13485.987     9193.683     4008.358        4.482        1.334      249.438       59.893        0.058      340.844       15.142      861.803
04/29/2013  02:27:00     -235.406       72.126      -16.544       88.104      105.121       47.146     7762.262    11050.336     2222.743        4.096        1.052      246.208       44.378        0.032      340.849       15.151      861.789
04/29/2013  02:28:00     -151.049        2.764      -19.882       65.672       79.051       42.129     4312.870     6249.032     1774.840        1.778        0.617      151.075       31.754        0.044      340.735       14.959      861.786
04/29/2013  02:29:00     -177.731       65.678       -8.136      113.819       84.950       71.475    12954.697     7216.418     5108.651        3.062        1.264      189.478       56.341        0.088      340.639       14.796      861.814
04/29/2013  02:30:00     -240.138       51.954      -24.956      131.381       94.955       65.529    17260.956     9016.478     4294.009        4.577        1.529      245.694       75.317        0.094      340.613       14.751      861.802
04/29/2013  02:31:00     -218.947       57.902      -36.232       98.876       80.765       42.273     9776.396     6522.913     1787.029        3.534        0.904      226.474       41.778        0.034      340.621       14.764      861.802
04/29/2013  02:32:00     -216.691       46.124      -18.323      113.460       87.274       57.989    12873.127     7616.769     3362.727        3.663        1.193      221.546       54.535        0.061      340.615       14.753      861.797
04/29/2013  02:33:00     -131.614       46.300      -27.726       74.567       64.469       52.466     5560.163     4156.285     2752.706        1.635        0.623      139.520       40.640        0.085      340.589       14.712      861.787
04/29/2013  02:34:00     -178.256       73.756      -16.700       81.449       70.301       45.053     6633.951     4942.277     2029.813        2.555        0.680      192.912       35.920        0.035      340.539       14.626      861.784
04/29/2013  02:35:00     -164.829       87.801      -38.224       60.331       67.425       43.708     3639.792     4546.151     1910.347        2.322        0.505      186.755       34.299        0.034      340.511       14.580      861.778
04/29/2013  02:36:00     -137.049       82.799      -18.024       55.405       84.029       44.927     3069.709     7060.838     2018.463        1.905        0.607      160.120       25.912        0.026      340.518       14.593      861.790
04/29/2013  02:37:00     -167.517       63.875      -21.905       66.628       82.252       38.860     4439.334     6765.400     1510.071        2.267        0.636      179.282       14.797        0.007      340.536       14.623      861.810
04/29/2013  02:38:00     -202.204       66.073      -30.988       97.022      110.511       56.128     9413.274    12212.791     3150.370        3.549        1.239      212.725       48.328        0.052      340.576       14.688      861.819
04/29/2013  02:39:00     -226.628       78.657      -22.680      105.558       69.056       54.223    11142.563     4768.761     2940.119        3.845        0.943      239.890       47.912        0.040      340.597       14.723      861.829
04/29/2013  02:40:00     -172.235       94.395      -15.297       93.033       78.960       57.831     8655.168     6234.621     3344.475        2.852        0.912      196.406       49.944        0.065      340.557       14.656      861.848
04/29/2013  02:41:00     -141.747      112.327      -26.613       94.212       94.282       54.135     8875.863     8889.055     2930.552        2.705        1.035      180.858       62.490        0.119      340.544       14.636      861.870
04/29/2013  02:42:00     -147.190      177.056      -42.976       60.648       84.201       42.001     3678.217     7089.756     1764.109        3.369        0.627      230.247       41.927        0.033      340.532       14.616      861.871
04/29/2013  02:43:00     -126.247      151.240      -23.517       64.648       63.828       41.840     4179.387     4074.031     1750.593        2.468        0.500      197.007       36.752        0.035      340.496       14.555      861.872
04/29/2013  02:44:00     -145.278       50.352      -20.132       70.571      109.335       43.670     4980.198    11954.071     1907.049        2.144        0.942      153.757       55.427        0.130      340.570       14.682      861.856
04/29/2013  02:45:00     -106.760       25.899      -11.355       56.115       77.629       35.176     3148.855     6026.249     1237.326        1.130        0.521      109.856       31.938        0.085      340.495       14.555      861.858
04/29/2013  02:46:00     -181.563      111.013      -30.912      116.566       73.199       49.698    13587.604     5358.023     2469.918        3.383        1.071      212.813       52.504        0.061      340.488       14.540      861.848
04/29/2013  02:47:00     -155.503       96.177      -28.034       71.311       56.237       31.695     5085.250     3162.572     1004.568        2.173        0.463      182.842       14.563        0.006      340.510       14.579      861.840
04/29/2013  02:48:00     -186.675      106.173      -33.762      103.253       67.334       41.240    10661.224     4533.838     1700.746        3.207        0.845      214.756       36.586        0.029      340.459       14.492      861.822
04/29/2013  02:49:00     -134.787       71.979      -21.262       72.187       65.223       44.101     5210.925     4254.042     1944.856        1.760        0.570      152.802       37.499        0.060      340.439       14.459      861.803
04/29/2013  02:50:00     -202.770      117.817      -22.122       96.520       65.853       53.513     9316.084     4336.651     2863.658        3.600        0.826      234.514       53.604        0.052      340.426       14.434      861.771
04/29/2013  02:51:00     -145.522      238.416      -32.994       91.834      105.641       48.543     8433.409    11159.986     2356.451        5.052        1.097      279.319       51.731        0.034      340.408       14.405      861.756
04/29/2013  02:52:00     -234.133      259.215      -53.090      105.648      103.549       65.478    11161.486    10722.350     4287.339        7.550        1.309      349.301       60.912        0.030      340.444       14.465      861.745
04/29/2013  02:53:00     -140.253      169.452      -26.510       87.904       74.209       46.733     7727.041     5506.962     2184.001        3.225        0.771      219.965       39.217        0.032      340.425       14.432      861.732
04/29/2013  02:54:00     -128.526      222.925      -30.066       90.332       88.840       52.148     8159.810     7892.540     2719.433        4.294        0.939      257.322       51.044        0.039      340.388       14.370      861.716
04/29/2013  02:55:00     -191.420      247.843      -52.353       80.993      113.387       44.637     6559.886    12856.590     1992.458        6.110        1.070      313.158       47.262        0.023      340.389       14.373      861.728
04/29/2013  02:56:00     -153.690      227.469      -26.027       85.890       94.176       53.872     7377.076     8869.055     2902.212        4.759        0.957      274.523       54.363        0.039      340.335       14.282      861.722
04/29/2013  02:57:00     -143.182      197.614      -17.647       78.682       99.856       57.174     6190.899     9971.171     3268.868        3.964        0.972      244.033       48.768        0.040      340.300       14.223      861.722
04/29/2013  02:58:00     -208.255      310.691      -56.266      101.548       90.324       47.859    10312.088     8158.441     2290.529        8.191        1.038      374.031       53.621        0.021      340.304       14.227      861.707
04/29/2013  02:59:00      -86.416      171.648      -15.766       46.089       86.816       40.548     2124.167     7536.982     1644.159        2.424        0.565      192.174       34.608        0.032      340.253       14.144      861.706
04/29/2013  03:00:00     -127.269      194.913      -31.309       76.782       89.429       45.541     5895.427     7997.489     2074.001        3.556        0.798      232.784       49.065        0.044      340.246       14.130      861.679
04/29/2013  03:01:00     -101.826      149.599      -16.826       91.461       74.859       37.681     8365.141     5603.848     1419.844        2.421        0.769      180.965       45.270        0.063      340.245       14.131      861.653
04/29/2013  03:02:00     -148.849      178.441      -32.565       77.219       83.472       46.455     5962.797     6967.516     2158.030        3.507        0.754      232.373       52.551        0.051      340.242       14.124      861.655
04/29/2013  03:03:00     -139.144      191.852      -40.017       59.810       98.737       42.613     3577.286     9748.904     1815.881        3.645        0.757      236.998       46.230        0.038      340.232       14.108      861.645
04/29/2013  03:04:00     -107.112      167.794      -14.073       72.996       77.284       51.789     5328.360     5972.862     2682.082        2.690        0.699      199.067       45.766        0.053      340.218       14.084      861.648
04/29/2013  03:05:00     -140.307      137.121      -33.011       69.370      106.013       38.747     4812.227    11238.796     1501.291        2.856        0.878      196.184       40.420        0.042      340.265       14.163      861.671
04/29/2013  03:06:00     -143.714       53.814      -19.462       58.950       59.481       34.175     3475.132     3537.974     1167.962        1.605        0.409      153.459       24.287        0.025      340.294       14.213      861.685
04/29/2013  03:07:00     -156.216       22.759      -12.801      103.392       97.700       51.161    10689.987     9545.295     2617.405        2.396        1.143      157.866       42.690        0.073      340.309       14.239      861.701
04/29/2013  03:08:00     -189.164        5.338      -27.712       78.122       71.473       35.028     6102.978     5108.460     1226.965        2.451        0.622      189.239       39.876        0.044      340.346       14.300      861.727
04/29/2013  03:09:00     -139.697       39.275      -15.783       88.237       85.233       38.773     7785.805     7264.599     1503.318        1.893        0.828      145.113       49.221        0.115      340.395       14.385      861.743
04/29/2013  03:10:00     -131.130      -51.930      -25.966       60.988       38.290       28.571     3719.528     1466.109      816.295        1.328        0.300      141.038       19.499        0.019      340.352       14.313      861.740
04/29/2013  03:11:00     -180.554      -69.769       -5.629       68.711       52.245       36.573     4721.267     2729.556     1337.578        2.314        0.439      193.565       30.416        0.025      340.286       14.199      861.744
04/29/2013  03:12:00     -158.771       -1.114       -9.030       51.163       65.063       29.708     2617.602     4233.176      882.594        1.651        0.387      158.775       21.703        0.019      340.299       14.223      861.738
04/29/2013  03:13:00     -111.292      -32.112        0.193       47.160       36.537       26.356     2224.037     1334.963      694.639        0.883        0.213      115.832       21.982        0.036      340.330       14.276      861.730
04/29/2013  03:14:00     -102.067       -5.818       -8.036       51.103       48.219       27.544     2611.536     2325.073      758.678        0.810        0.285      102.233       30.330        0.088      340.256       14.152      861.745
04/29/2013  03:15:00     -161.763      -10.591      -12.082       52.578       37.501       25.108     2764.445     1406.323      630.390        1.561        0.240      162.109       24.610        0.023      340.268       14.171      861.741
04/29/2013  03:16:00     -154.997       -3.146      -10.031       51.701       48.002       27.465     2673.022     2304.190      754.341        1.493        0.287      155.029       23.037        0.022      340.252       14.143      861.731
04/29/2013  03:17:00      -71.299       47.759      -19.314       39.091       49.663       24.757     1528.124     2466.396      612.921        0.617        0.230       85.816       22.008        0.066      340.285       14.198      861.723
04/29/2013  03:18:00      -68.909      103.627      -14.020       50.018       51.857       32.014     2501.767     2689.130     1024.871        1.095        0.311      124.447       29.840        0.057      340.327       14.270      861.721
04/29/2013  03:19:00      -75.989      148.423      -19.662       63.522       52.087       43.178     4035.022     2713.095     1864.333        1.840        0.431      166.745       33.853        0.041      340.344       14.296      861.731
04/29/2013  03:20:00      -95.391      128.673      -16.423       42.383       51.970       33.516     1796.293     2700.890     1123.323        1.577        0.281      160.175       31.460        0.039      340.319       14.257      861.744
04/29/2013  03:21:00      -64.609       18.693       -6.093       48.222       60.398       29.591     2325.358     3647.949      875.601        0.570        0.342       67.259       26.757        0.158      340.398       14.390      861.768
04/29/2013  03:22:00      -46.130       34.056       -9.731       47.335       48.928       27.437     2240.635     2393.981      752.810        0.438        0.269       57.339       21.174        0.136      340.388       14.372      861.774
04/29/2013  03:23:00      -53.414       11.391       15.168       43.388       46.122       28.396     1882.492     2127.242      806.318        0.401        0.241       54.615       25.549        0.219      340.346       14.302      861.763
04/29/2013  03:24:00     -129.756      -35.898       -8.731       67.507       82.057       32.008     4557.208     6733.424     1024.518        1.526        0.616      134.630       26.838        0.040      340.312       14.243      861.743
04/29/2013  03:25:00     -125.472      114.643      -24.772       99.005       90.218       47.634     9801.998     8139.306     2269.005        2.485        1.011      169.960       57.032        0.113      340.319       14.255      861.730
04/29/2013  03:26:00      -48.000       22.156       10.790       45.505       29.106       25.777     2070.679      847.147      664.466        0.325        0.179       52.867       26.409        0.250      340.304       14.232      861.716
04/29/2013  03:27:00      -63.001       36.833       -1.915       52.125       55.324       33.258     2716.972     3060.769     1106.061        0.611        0.344       72.978       30.935        0.180      340.297       14.221      861.702
04/29/2013  03:28:00      -66.697       75.187      -20.077       35.810       47.212       24.734     1282.326     2229.020      611.781        0.731        0.206      100.506       21.521        0.046      340.335       14.284      861.695
04/29/2013  03:29:00      -62.153       89.018      -13.069       32.647       43.956       24.183     1065.853     1932.116      584.798        0.777        0.179      108.569       17.021        0.025      340.302       14.228      861.691
04/29/2013  03:30:00      -93.806       28.955      -18.594       38.794       54.745       23.882     1504.969     2997.055      570.368        0.753        0.254       98.173       20.546        0.044      340.294       14.214      861.699
04/29/2013  03:31:00      -51.023      -15.971       -7.544       31.583       19.296       10.185      997.475      372.337      103.732        0.219        0.074       53.464        8.154        0.023      340.227       14.101      861.717
04/29/2013  03:32:00      -17.315        1.418       -4.377       16.902       14.852       13.915      285.666      220.571      193.630        0.051        0.035       17.373        6.918        0.159      340.183       14.028      861.717
04/29/2013  03:33:00      -31.280       13.554       -6.104       23.361       19.059       12.822      545.725      363.254      164.400        0.114        0.054       34.090        4.825        0.020      340.175       14.014      861.743
04/29/2013  03:34:00      -46.054       30.032       -6.177       28.603       24.440       16.678      818.128      597.290      278.164        0.238        0.085       54.981       12.289        0.050      340.161       13.990      861.748
04/29/2013  03:35:00        9.029       23.856        7.282       18.227       26.195       17.857      332.206      686.185      318.885        0.102        0.067       25.508       16.751        0.431      340.161       13.988      861.731
04/29/2013  03:36:00      -79.363       13.743       -6.970       29.122       22.432       13.256      848.104      503.190      175.720        0.403        0.076       80.544       11.421        0.020      340.197       14.052      861.733
04/29/2013  03:37:00     -108.604      115.801      -30.915       42.962       54.358       25.803     1845.728     2954.750      665.807        1.581        0.273      158.759       19.449        0.015      340.116       13.915      861.719
04/29/2013  03:38:00      -93.557      129.741      -26.109       33.295       38.575       25.856     1108.527     1488.057      668.549        1.477        0.163      159.955       23.933        0.022      340.113       13.910      861.715
04/29/2013  03:39:00     -141.214       60.673      -25.655       45.157       41.711       23.253     2039.120     1739.802      540.707        1.430        0.216      153.696       12.608        0.007      340.198       14.053      861.694
04/29/2013  03:40:00      -99.977       26.310        0.480       69.530       63.567       27.788     4834.384     4040.749      772.151        1.017        0.482      103.381       23.776        0.053      340.165       13.998      861.670
04/29/2013  03:41:00     -124.524       15.774       -9.250       41.087       34.721       24.099     1688.109     1205.567      580.781        0.966        0.174      125.519       21.236        0.029      340.108       13.901      861.670
04/29/2013  03:42:00      -74.307      -13.328      -15.924       28.247       29.633       10.452      797.879      878.129      109.247        0.387        0.089       75.493       10.747        0.020      340.207       14.066      861.664
04/29/2013  03:43:00      -89.163      -20.465      -15.547       32.471       16.671       10.353     1054.361      277.929      107.184        0.502        0.072       91.482        8.102        0.008      340.159       13.986      861.653
04/29/2013  03:44:00      -96.125       -3.494       -6.967       37.180       21.047       14.596     1382.382      442.981      213.039        0.567        0.102       96.189       12.358        0.017      340.094       13.876      861.643
04/29/2013  03:45:00     -130.483        4.135      -11.083       43.809       35.660       23.149     1919.240     1271.622      535.874        1.045        0.186      130.548       22.966        0.031      340.050       13.803      861.635
04/29/2013  03:46:00     -107.120      -29.990       -7.661       42.414       32.059       21.172     1798.938     1027.758      448.256        0.785        0.164      111.238       21.998        0.039      340.035       13.777      861.631
04/29/2013  03:47:00      -98.046      -33.129       -4.096       32.775       26.231       17.075     1074.192      688.069      291.556        0.639        0.103      103.492        9.452        0.008      340.073       13.840      861.630
04/29/2013  03:48:00     -128.484      -23.805       -7.744       46.120       28.895       22.494     2127.033      834.934      505.987        1.030        0.173      130.671       25.115        0.037      339.979       13.685      861.637
04/29/2013  03:49:00      -99.749      -29.343       -5.228       47.751       27.836       21.828     2280.179      774.863      476.468        0.718        0.177      103.975       21.156        0.041      339.932       13.603      861.659
04/29/2013  03:50:00     -156.017       12.498      -19.037       26.853       30.705       18.049      721.069      942.782      325.783        1.342        0.099      156.517       15.107        0.009      339.924       13.592      861.674
04/29/2013  03:51:00     -103.523      -20.402       -9.157       32.359       30.865       20.336     1047.076      952.664      413.569        0.681        0.121      105.514       18.064        0.029      339.907       13.563      861.678
04/29/2013  03:52:00      -77.492      -33.255        0.578       27.699       25.839       17.138      767.241      667.637      293.707        0.442        0.086       84.326       10.167        0.015      339.959       13.651      861.693
04/29/2013  03:53:00      -91.632      -43.069       -6.712       26.161       26.709       19.256      684.383      713.379      370.811        0.603        0.088      101.249       14.658        0.021      339.904       13.559      861.686
04/29/2013  03:54:00     -103.764      -41.449       -2.002       34.403       31.246       18.707     1183.581      976.339      349.956        0.750        0.125      111.737       16.423        0.022      339.910       13.568      861.678
04/29/2013  03:55:00     -118.916      -53.423       -5.345       37.668       30.089       20.472     1418.914      905.348      419.122        0.988        0.137      130.365       20.543        0.025      339.829       13.431      861.674
04/29/2013  03:56:00     -115.900      -53.585       -5.535       46.240       30.657       18.637     2138.170      939.847      347.353        0.988        0.171      127.688       21.101        0.027      339.773       13.336      861.662
04/29/2013  03:57:00      -88.998      -55.061        3.226       46.416       33.223       22.205     2154.489     1103.769      493.072        0.736        0.188      104.653       21.842        0.044      339.763       13.319      861.652
04/29/2013  03:58:00     -117.629      -36.700        1.480       78.733       43.666       26.014     6198.847     1906.688      676.737        1.198        0.439      123.221       33.986        0.076      339.818       13.413      861.674
04/29/2013  03:59:00      -80.567      -53.914        6.317       95.181       59.231       41.168     9059.411     3508.365     1694.781        1.185        0.713       96.942       54.726        0.319      339.904       13.556      861.681
04/29/2013  04:00:00     -139.197      -49.743      -18.625       90.133       48.934       37.704     8123.930     2394.489     1421.571        1.707        0.597      147.819       42.390        0.082      339.958       13.647      861.701
04/29/2013  04:01:00     -110.336      -30.498       -0.065       62.724       41.720       32.349     3934.276     1740.525     1046.480        0.991        0.336      114.473       32.412        0.080      339.940       13.617      861.724
04/29/2013  04:02:00     -100.214      -45.374       -4.532       62.909       40.433       23.662     3957.568     1634.857      559.873        0.914        0.308      110.007       22.340        0.041      339.815       13.407      861.739
04/29/2013  04:03:00     -168.288      -33.337       -3.348       49.788       43.208       30.003     2478.854     1866.912      900.166        1.734        0.262      171.558       25.477        0.022      339.757       13.309      861.736
04/29/2013  04:04:00     -147.685      -21.659       -6.439       59.354       38.333       29.025     3522.851     1469.412      842.477        1.408        0.292      149.265       25.259        0.029      339.711       13.232      861.737
04/29/2013  04:05:00     -145.605      -33.356       10.038       55.960       50.289       30.766     3131.535     2528.937      946.534        1.451        0.330      149.377       25.827        0.030      339.723       13.252      861.734
04/29/2013  04:06:00     -176.171      -78.130       -7.863       71.865       55.950       38.035     5164.622     3130.386     1446.660        2.347        0.487      192.719       39.326        0.042      339.820       13.412      861.728
04/29/2013  04:07:00     -186.516      -43.094       -7.361       55.634       47.726       30.246     3095.114     2277.793      914.834        2.149        0.314      191.429       21.645        0.013      339.806       13.390      861.734
04/29/2013  04:08:00     -150.051      -67.631        2.374       73.792       59.605       32.077     5445.284     3552.725     1028.941        1.856        0.501      164.588       35.636        0.047      339.772       13.332      861.736
04/29/2013  04:09:00     -159.594     -106.991      -15.231       75.185       51.746       40.518     5652.814     2677.622     1641.749        2.356        0.499      192.139       35.290        0.034      339.763       13.316      861.737
04/29/2013  04:10:00     -194.901     -110.010       -8.653       73.325       56.237       40.532     5376.567     3162.571     1642.841        3.017        0.509      223.805       43.144        0.037      339.774       13.332      861.734
04/29/2013  04:11:00     -165.556      -93.943        0.404       68.218       58.618       34.350     4653.682     3436.037     1179.896        2.275        0.463      190.353       35.143        0.034      339.802       13.382      861.748
04/29/2013  04:12:00     -125.983      -32.075       -0.282       72.356       43.036       30.115     5235.406     1852.087      906.918        1.245        0.400      130.002       29.883        0.053      339.755       13.307      861.771
04/29/2013  04:13:00     -102.094      -63.347       -2.143       47.809       36.129       20.438     2285.732     1305.269      417.712        0.922        0.200      120.150       19.610        0.027      339.752       13.303      861.781
04/29/2013  04:14:00      -93.326      -42.368        2.436       35.509       27.645       18.157     1260.864      764.237      329.675        0.643        0.118      102.493        9.966        0.009      339.747       13.293      861.776
04/29/2013  04:15:00      -82.066      -17.644       -3.626       31.565       31.243       22.099      996.340      976.127      488.364        0.476        0.123       83.941       21.272        0.064      339.731       13.265      861.770
04/29/2013  04:16:00      -73.196      -28.044        4.985       35.866       26.260       19.795     1286.339      689.611      391.834        0.427        0.118       78.384       19.922        0.065      339.702       13.218      861.773
04/29/2013  04:17:00      -79.915      -42.489       -5.310       44.103       21.359       14.465     1945.113      456.210      209.244        0.541        0.131       90.508       14.726        0.026      339.719       13.246      861.768
04/29/2013  04:18:00     -109.005      -41.132        0.446       25.691       27.333       14.531      660.016      747.071      211.145        0.760        0.081      116.507       10.127        0.008      339.700       13.214      861.748
04/29/2013  04:19:00     -117.755      -65.933       -6.573       35.914       30.240       21.889     1289.780      914.461      479.109        1.047        0.134      134.957       20.694        0.024      339.663       13.151      861.735
04/29/2013  04:20:00     -133.709      -44.885        2.037       35.725       29.653       16.844     1276.276      879.281      283.714        1.117        0.122      141.042       18.482        0.017      339.699       13.213      861.715
04/29/2013  04:21:00     -123.175      -57.727       -3.041       34.247       29.997       21.005     1172.876      899.849      441.208        1.051        0.126      136.032       21.059        0.024      339.713       13.236      861.690
04/29/2013  04:22:00     -132.928      -37.659        0.643       39.837       25.018       18.890     1586.972      625.897      356.849        1.083        0.128      138.160       18.359        0.018      339.737       13.277      861.687
04/29/2013  04:23:00     -133.320      -70.235       -0.020       34.955       30.160       17.268     1221.885      909.625      298.179        1.257        0.121      150.689       16.818        0.012      339.790       13.365      861.676
04/29/2013  04:24:00      -95.354      -67.558        0.566       34.808       27.004       20.571     1211.584      729.222      423.159        0.801        0.118      116.861       20.100        0.030      339.847       13.461      861.674
04/29/2013  04:25:00     -100.028      -39.579       -6.029       35.936       26.270       16.358     1291.386      690.129      267.594        0.693        0.112      107.574       17.296        0.026      339.842       13.454      861.687
04/29/2013  04:26:00      -58.245      -25.602        2.967       38.097       31.191       17.594     1451.385      972.908      309.543        0.339        0.137       63.623       18.506        0.085      339.785       13.357      861.710
04/29/2013  04:27:00      -28.374        1.075        3.288       21.145       12.860        9.916      447.114      165.388       98.320        0.076        0.036       28.395       11.651        0.168      339.747       13.293      861.731
04/29/2013  04:28:00      -24.785       80.541       -8.343       32.295       37.328       21.533     1042.992     1393.414      463.687        0.503        0.145       84.268       19.168        0.052      339.640       13.111      861.745
04/29/2013  04:29:00      -62.884       89.806      -14.215       36.011       39.838       25.516     1296.767     1587.028      651.042        0.788        0.177      109.634       26.801        0.060      339.560       12.976      861.751
04/29/2013  04:30:00     -105.901      112.236      -28.789       22.532       22.581       13.262      507.688      509.901      175.878        1.292        0.060      154.311       10.911        0.005      339.612       13.066      861.749
04/29/2013  04:31:00      -89.763       82.289      -23.284       26.944       34.310       22.824      725.966     1177.210      520.935        0.890        0.121      121.774       21.930        0.032      339.634       13.100      861.733
04/29/2013  04:32:00      -85.367       80.124      -22.276       18.918       38.646       15.747      357.896     1493.490      247.977        0.815        0.105      117.079       15.649        0.018      339.633       13.101      861.720
04/29/2013  04:33:00      -76.134       25.114      -12.332       26.805       15.554       14.734      718.505      241.928      217.092        0.388        0.059       80.169       15.661        0.038      339.600       13.046      861.711
04/29/2013  04:34:00      -89.503       26.494      -12.740       18.402       21.842       15.562      338.651      477.063      242.178        0.497        0.053       93.342       11.195        0.014      339.588       13.024      861.700
04/29/2013  04:35:00      -74.270       28.523       -8.460       17.089       24.154       14.526      292.050      583.392      211.016        0.374        0.054       79.559       10.238        0.017      339.650       13.129      861.692
04/29/2013  04:36:00      -80.361       16.690      -11.680       25.229       19.322       17.040      636.486      373.341      290.362        0.409        0.065       82.076       10.435        0.016      339.763       13.319      861.695
04/29/2013  04:37:00      -90.962       17.845       -3.986       31.904       25.402       15.502     1017.892      645.238      240.302        0.526        0.095       92.696       15.847        0.029      339.761       13.316      861.690
04/29/2013  04:38:00      -83.254       15.118       -8.694       24.369       21.176       14.947      593.859      448.420      223.424        0.425        0.063       84.616       11.604        0.019      339.682       13.183      861.693
04/29/2013  04:39:00      -90.125      -18.786       -6.927       25.167       23.893       12.127      633.362      570.890      147.062        0.494        0.068       92.062        8.449        0.008      339.454       12.799      861.707
04/29/2013  04:40:00      -77.038      -14.949       -5.250       26.882       21.806       12.799      722.618      475.482      163.807        0.377        0.068       78.475       11.400        0.021      339.384       12.681      861.691
04/29/2013  04:41:00     -100.508       -5.999      -11.228       15.068       11.807        9.361      227.030      139.397       87.629        0.536        0.023      100.687        7.106        0.005      339.382       12.678      861.663
04/29/2013  04:42:00      -75.082      -16.562       -9.714       12.951       11.242        8.736      167.731      126.376       76.312        0.319        0.019       76.886        5.665        0.005      339.386       12.685      861.621
04/29/2013  04:43:00      -59.177      -25.522       -7.069       17.899       20.519        8.895      320.373      421.043       79.117        0.251        0.041       64.446        7.072        0.012      339.414       12.731      861.575
04/29/2013  04:44:00      -41.541      -34.016        1.776       19.060       12.593        8.980      363.294      158.589       80.642        0.174        0.030       53.691        9.044        0.028      339.500       12.877      861.535
04/29/2013  04:45:00      -45.469      -34.232        0.033       13.220       12.470       12.030      174.768      155.496      144.718        0.186        0.024       56.915        9.124        0.026      339.526       12.919      861.526
04/29/2013  04:46:00      -65.406      -15.702       -6.637       15.044       10.020        7.537      226.332      100.403       56.806        0.248        0.019       67.264        3.348        0.002      339.553       12.964      861.507
04/29/2013  04:47:00      -83.386      -12.517       -7.895       18.594       13.855       11.341      345.726      191.973      128.611        0.392        0.033       84.321        9.026        0.011      339.530       12.927      861.508
04/29/2013  04:48:00      -79.311      -13.051       -6.932       25.426       18.594       13.855      646.468      345.737      191.967        0.385        0.059       80.377       14.482        0.032      339.402       12.711      861.526
04/29/2013  04:49:00      -63.135      -20.675       -0.813       28.659       24.321       13.647      821.361      591.507      186.232        0.301        0.080       66.434       10.741        0.026      339.347       12.617      861.536
04/29/2013  04:50:00      -53.175      -14.712        1.091       32.543       39.884       19.221     1059.049     1590.701      369.461        0.303        0.151       55.173       15.290        0.077      339.322       12.575      861.537
04/29/2013  04:51:00     -156.760       45.590      -15.688       46.519       30.939       22.479     2164.050      957.200      505.327        1.526        0.181      163.255        8.476        0.003      339.145       12.278      861.536
04/29/2013  04:52:00     -113.661       16.480      -12.490       25.041       30.038       15.318      627.052      902.303      234.644        0.755        0.088      114.849        7.955        0.005      339.096       12.196      861.513
04/29/2013  04:53:00      -93.770       -4.612       -6.905       29.921       22.908       16.173      895.295      524.775      261.555        0.527        0.084       93.883       13.884        0.022      339.083       12.173      861.500
04/29/2013  04:54:00      -79.872      -27.884      -11.181       21.485       22.825       13.307      461.618      520.979      177.081        0.422        0.058       84.599       10.416        0.015      339.080       12.166      861.510
04/29/2013  04:55:00      -84.257      -42.379      -15.053       31.983       28.573       24.446     1022.901      816.443      597.595        0.578        0.122       94.315       19.964        0.045      338.991       12.018      861.536
04/29/2013  04:56:00      -44.965      -28.645       -3.712       48.653       37.815       34.667     2367.135     1429.951     1201.828        0.393        0.250       53.314       27.930        0.274      338.982       12.003      861.548
04/29/2013  04:57:00      -85.521      -10.061        6.240       88.653       33.953       35.046     7859.439     1152.833     1228.231        0.885        0.512       86.111       40.988        0.227      338.911       11.884      861.567
04/29/2013  04:58:00     -125.347      -13.934       -8.753       45.004       39.436       23.985     2025.354     1555.213      575.270        1.007        0.208      126.120       21.374        0.029      338.813       11.718      861.572
04/29/2013  04:59:00      -89.383       17.526       -7.737       62.789       44.062       31.245     3942.430     1941.435      976.237        0.761        0.343       91.085       26.726        0.086      338.786       11.674      861.567
04/29/2013  05:00:00      -88.172        1.180      -14.747       33.194       31.430       20.097     1101.868      987.847      403.892        0.524        0.125       88.180        7.470        0.007      338.868       11.812      861.554
04/29/2013  05:01:00      -73.727      -17.498      -10.986       27.867       28.155       17.618      776.575      792.718      310.392        0.387        0.094       75.775       14.282        0.036      338.855       11.790      861.538
04/29/2013  05:02:00      -30.737      -20.777       -6.112       21.027       20.218       15.468      442.127      408.753      239.271        0.125        0.055       37.100       11.941        0.104      338.980       12.000      861.515
04/29/2013  05:03:00      -96.663      -54.146       -5.351       25.626       22.855       14.942      656.709      522.347      223.273        0.685        0.070      110.795        5.155        0.002      338.913       11.888      861.514
04/29/2013  05:04:00      -89.501      -38.418       -2.105       56.941       35.149       24.303     3242.222     1235.463      590.613        0.728        0.253       97.398       33.045        0.115      338.842       11.769      861.516
04/29/2013  05:05:00     -112.855      -18.168      -12.018       34.234       25.430       18.863     1171.942      646.704      355.812        0.769        0.109      114.308       16.051        0.020      338.815       11.724      861.517
04/29/2013  05:06:00     -112.369      -14.193      -18.639       31.424       29.163       17.963      987.462      850.495      322.652        0.767        0.108      113.262       13.926        0.015      338.807       11.709      861.533
04/29/2013  05:07:00      -66.392      -22.484       -2.509       35.374       21.798       19.568     1251.288      475.153      382.906        0.351        0.105       70.096       19.429        0.077      338.853       11.786      861.529
04/29/2013  05:08:00      -38.657      -11.392       -5.456       30.567       15.438       16.380      934.337      238.339      268.317        0.155        0.072       40.300       11.439        0.081      338.895       11.856      861.524
04/29/2013  05:09:00     -117.313      -36.960       -7.038       29.743       24.026       15.454      884.621      577.272      238.839        0.844        0.085      122.998       10.437        0.007      338.917       11.894      861.520
04/29/2013  05:10:00      -98.721      -46.065       -4.669       25.780       28.974       15.771      664.622      839.518      248.711        0.682        0.088      108.940       12.254        0.013      338.875       11.824      861.519
04/29/2013  05:11:00      -76.701      -16.332       -8.618       32.749       30.897       15.800     1072.472      954.605      249.629        0.425        0.114       78.421        9.753        0.015      338.917       11.894      861.531
04/29/2013  05:12:00     -140.539        1.143      -18.452       52.590       42.416       21.700     2765.679     1799.131      470.905        1.256        0.252      140.544       21.192        0.023      338.881       11.834      861.534
04/29/2013  05:13:00     -150.107      -23.045      -17.713       51.814       31.856       27.140     2684.666     1014.823      736.581        1.391        0.222      151.866       27.948        0.034      338.810       11.715      861.529
04/29/2013  05:14:00     -134.986       -1.132      -16.792       35.372       34.402       19.829     1251.147     1183.512      393.172        1.067        0.141      134.990       11.135        0.007      338.874       11.821      861.518
04/29/2013  05:15:00     -128.412       30.846      -16.072       32.793       29.713       17.009     1075.353      882.838      289.306        0.997        0.112      132.065       10.658        0.007      338.932       11.919      861.504
04/29/2013  05:16:00      -91.087        7.321      -12.994       28.849       29.371       17.782      832.262      862.628      316.192        0.526        0.101       91.381       13.121        0.021      338.951       11.952      861.505
04/29/2013  05:17:00     -114.057      -32.139      -18.293       34.749       37.707       20.091     1207.477     1421.822      403.649        0.870        0.152      118.498       16.163        0.019      338.895       11.858      861.498
04/29/2013  05:18:00     -133.153      -14.078      -14.129       55.175       42.389       25.533     3044.330     1796.854      651.915        1.181        0.275      133.895       23.280        0.030      338.739       11.595      861.489
04/29/2013  05:19:00     -111.557      -41.942       -3.544       49.892       46.766       25.419     2489.182     2187.068      646.117        0.977        0.266      119.181       13.468        0.013      338.672       11.483      861.472
04/29/2013  05:20:00      -27.246       -9.301        7.091       33.255       30.033       19.075     1105.866      901.977      363.856        0.162        0.119       28.789       15.560        0.292      338.668       11.476      861.458
04/29/2013  05:21:00      -44.589      -22.459        2.419       44.004       37.986       24.000     1936.386     1442.972      575.988        0.323        0.198       49.926       25.776        0.267      338.732       11.584      861.438
04/29/2013  05:22:00      -57.372      -36.252        8.115       45.557       35.963       22.471     2075.414     1293.303      504.954        0.427        0.194       67.866       20.041        0.087      338.612       11.382      861.426
04/29/2013  05:23:00      -71.978      -45.112       -3.454       41.017       30.093       24.854     1682.403      905.572      617.710        0.522        0.160       84.947       15.266        0.032      338.680       11.494      861.418
04/29/2013  05:24:00     -124.602      -28.857        3.393       50.930       52.117       25.501     2593.856     2716.192      650.319        1.116        0.298      127.899       23.884        0.035      338.627       11.408      861.424
04/29/2013  05:25:00     -109.442      -37.615        1.135       57.899       43.356       32.209     3352.325     1879.747     1037.408        0.983        0.313      115.725       31.710        0.075      338.552       11.282      861.414
04/29/2013  05:26:00     -142.662       -4.768       -2.332       46.208       29.555       27.189     2135.170      873.521      739.240        1.206        0.187      142.741       23.730        0.028      338.594       11.352      861.407
04/29/2013  05:27:00     -125.402      -19.247       -1.877       43.276       46.496       28.586     1872.833     2161.907      817.186        1.047        0.243      126.870       25.655        0.041      338.578       11.325      861.401
04/29/2013  05:28:00     -103.373      -50.547       -1.635       49.710       44.429       29.057     2471.070     1973.936      844.293        0.927        0.264      115.069       27.766        0.058      338.638       11.425      861.403
04/29/2013  05:29:00     -114.831      -68.640        1.341       44.389       36.942       25.830     1970.409     1364.732      667.178        1.095        0.200      133.782       22.291        0.028      338.660       11.463      861.403
04/29/2013  05:30:00      -86.045      -43.635        2.559       54.706       28.314       23.123     2992.701      801.684      534.671        0.682        0.216       96.477       26.670        0.076      338.711       11.548      861.393
04/29/2013  05:31:00      -79.285      -19.841      -17.998       39.394       20.157       17.348     1551.879      406.315      300.954        0.463        0.113       81.730       20.092        0.060      338.779       11.663      861.375
04/29/2013  05:32:00      -14.613      -37.263        7.428       23.656       22.663       15.168      559.602      513.610      230.057        0.148        0.065       40.026       11.029        0.076      338.799       11.695      861.378
04/29/2013  05:33:00      -28.513      -46.230        2.817       30.446       19.221       18.571      926.950      369.462      344.866        0.230        0.082       54.316       14.446        0.071      338.839       11.762      861.382
04/29/2013  05:34:00      -55.773      -91.978       -0.110       51.013       49.360       25.193     2602.333     2436.446      634.701        0.862        0.284      107.567       22.058        0.042      338.661       11.464      861.387
04/29/2013  05:35:00      -37.103      -77.652        5.649       42.050       48.061       28.173     1768.165     2309.847      793.735        0.615        0.244       86.061       18.307        0.045      338.511       11.212      861.405
04/29/2013  05:36:00     -129.817     -120.566       -8.056       65.143       58.984       29.699     4243.625     3479.083      882.056        2.003        0.430      177.169       20.356        0.013      338.421       11.060      861.411
04/29/2013  05:37:00     -126.327     -107.717       -8.681       39.781       44.358       29.008     1582.554     1967.589      841.444        1.601        0.220      166.017       18.136        0.012      338.394       11.015      861.412
04/29/2013  05:38:00     -114.450      -88.941       -9.339       44.152       32.937       25.458     1949.438     1084.818      648.096        1.239        0.184      144.946       22.906        0.025      338.442       11.095      861.418
04/29/2013  05:39:00     -118.617     -103.089      -20.979       44.664       36.455       27.829     1994.889     1328.975      774.440        1.462        0.205      157.154       11.285        0.005      338.413       11.048      861.438
04/29/2013  05:40:00      -78.262      -49.335       -3.325       72.479       30.795       28.016     5253.203      948.362      784.908        0.778        0.349       92.515       20.660        0.050      338.379       10.989      861.447
04/29/2013  05:41:00      -26.080      -35.076        7.037       45.318       43.421       26.896     2053.723     1885.399      723.399        0.331        0.233       43.710       30.040        0.472      338.429       11.075      861.463
04/29/2013  05:42:00     -110.422      -91.611       -0.683       53.422       39.905       29.139     2853.870     1592.435      849.055        1.294        0.265      143.477       28.447        0.039      338.350       10.942      861.473
04/29/2013  05:43:00     -135.962      -96.171       -4.796       34.633       44.947       24.928     1199.472     2020.227      621.383        1.580        0.192      166.537       20.981        0.016      338.333       10.914      861.487
04/29/2013  05:44:00      -57.152      -46.099        9.351       56.824       41.928       28.398     3228.993     1757.986      806.433        0.564        0.290       73.427       33.101        0.203      338.342       10.929      861.490
04/29/2013  05:45:00      -90.977      -83.175       -0.004       58.453       50.383       23.735     3416.763     2538.424      563.348        1.086        0.326      123.268       29.984        0.059      338.396       11.018      861.495
04/29/2013  05:46:00      -95.556      -72.213       -2.628       40.360       25.600       20.850     1628.939      655.336      434.723        0.854        0.136      119.774       17.149        0.021      338.422       11.061      861.500
04/29/2013  05:47:00     -110.035      -44.522        1.121       52.800       47.277       25.268     2787.829     2235.143      638.481        0.988        0.283      118.701       20.276        0.029      338.407       11.037      861.501
04/29/2013  05:48:00     -140.657      -96.162       -3.971       61.565       41.508       25.527     3790.288     1722.895      651.652        1.760        0.308      170.387       27.336        0.026      338.329       10.904      861.516
04/29/2013  05:49:00     -137.991      -65.307      -12.722       49.596       35.240       22.092     2459.729     1241.832      488.036        1.383        0.209      152.664       22.102        0.021      338.354       10.949      861.519
04/29/2013  05:50:00      -92.288      -32.985       -2.862       25.601       24.670       20.956      655.386      608.619      439.138        0.566        0.085       98.006       16.765        0.029      338.363       10.964      861.517
04/29/2013  05:51:00     -123.689      -60.821      -13.704       28.529       35.723       19.355      813.902     1276.152      374.619        1.082        0.123      137.834       13.905        0.010      338.362       10.962      861.519
04/29/2013  05:52:00     -114.928      -36.626      -10.617       38.649       31.321       21.836     1493.766      981.023      476.792        0.881        0.148      120.623       14.246        0.014      338.337       10.921      861.514
04/29/2013  05:53:00     -123.600      -29.911      -10.778       30.922       29.781       18.632      956.151      886.904      347.139        0.924        0.110      127.168        6.190        0.002      338.342       10.928      861.519
04/29/2013  05:54:00     -141.123      -31.880      -10.982       30.476       25.041       19.745      928.772      627.049      389.874        1.150        0.097      144.679       15.788        0.012      338.438       11.090      861.529
04/29/2013  05:55:00     -141.225      -48.245      -12.132       20.107       22.624       16.710      404.302      511.825      279.236        1.181        0.060      149.238        9.750        0.004      338.241       10.758      861.550
04/29/2013  05:56:00     -120.142      -44.989      -11.761       17.186       24.069       16.570      295.348      579.328      274.560        0.887        0.057      128.290        7.993        0.004      338.216       10.718      861.562
04/29/2013  05:57:00      -74.200      -59.143       -0.558       43.465       39.818       20.559     1889.209     1585.481      422.672        0.645        0.195       94.887       20.995        0.049      338.288       10.838      861.566
04/29/2013  05:58:00     -116.415      -36.878      -17.789       18.657       16.806       15.872      348.092      282.453      251.918        0.806        0.044      122.117       11.086        0.008      338.218       10.721      861.585
04/29/2013  05:59:00     -106.188      -61.575       -7.950       41.617       26.640       23.910     1731.999      709.679      571.692        0.907        0.151      122.749       23.849        0.038      338.170       10.640      861.600
04/29/2013  06:00:00     -134.818      -27.207       -5.086       73.283       43.345       34.206     5370.436     1878.765     1170.023        1.368        0.421      137.536       47.107        0.117      338.106       10.532      861.616
04/29/2013  06:01:00      -24.295      -20.707        5.852       33.815       37.103       27.093     1143.429     1376.635      734.032        0.215        0.163       31.922       21.877        0.470      338.316       10.885      861.626
04/29/2013  06:02:00      -27.751      -22.357        3.987       47.911       27.314       15.845     2295.459      746.052      251.048        0.229        0.165       35.636       11.258        0.100      338.289       10.839      861.631
04/29/2013  06:03:00      -11.017      -23.469      -10.713       25.096       23.571       20.774      629.805      555.570      431.546        0.120        0.081       25.926       18.152        0.490      338.329       10.907      861.626
04/29/2013  06:04:00      -22.657       -4.827        1.731       30.354       20.916       13.779      921.380      437.499      189.874        0.104        0.077       23.166        8.841        0.146      338.555       11.285      861.622
04/29/2013  06:05:00      -54.552      -33.448       -3.047       39.657       22.687       21.412     1572.683      514.684      458.455        0.332        0.127       63.990       23.441        0.134      338.654       11.452      861.631
04/29/2013  06:06:00      -97.916      -50.199      -10.060       28.142       19.714       16.032      791.962      388.660      257.012        0.682        0.072      110.034       13.830        0.016      338.360       10.959      861.644
04/29/2013  06:07:00     -112.435      -29.046      -15.267       15.717       15.097       15.810      247.036      227.920      249.967        0.722        0.036      116.127        7.892        0.005      338.145       10.598      861.666
04/29/2013  06:08:00     -127.008      -46.167      -25.594       19.646       14.814       11.082      385.962      219.446      122.815        0.982        0.036      135.139        8.170        0.004      338.155       10.616      861.697
04/29/2013  06:09:00      -62.760      -50.975       -7.415       34.071       31.612       22.155     1160.852      999.298      490.829        0.462        0.133       80.853       20.612        0.065      338.190       10.674      861.718
04/29/2013  06:10:00      -88.632      -71.399       -8.551       44.361       30.547       19.435     1967.860      933.119      377.711        0.815        0.164      113.813        4.537        0.002      338.236       10.749      861.746
04/29/2013  06:11:00     -143.124      -61.397      -14.994       36.103       24.992       20.710     1303.425      624.588      428.890        1.342        0.118      155.738       15.636        0.010      338.147       10.601      861.759
04/29/2013  06:12:00     -121.157      -64.244      -13.119       59.654       29.852       23.850     3558.600      891.166      568.839        1.200        0.251      137.137       28.080        0.042      338.138       10.585      861.758
04/29/2013  06:13:00      -20.806      -44.011       14.307       51.159       35.574       29.129     2617.211     1265.477      848.507        0.365        0.237       48.681       30.546        0.394      338.279       10.823      861.749
04/29/2013  06:14:00      -86.730      -89.072       -5.291       49.552       37.962       28.082     2455.394     1441.109      788.625        1.008        0.234      124.322       30.113        0.059      338.150       10.607      861.752
04/29/2013  06:15:00     -100.000      -55.493        3.625       52.245       33.159       26.346     2729.562     1099.512      694.131        0.881        0.226      114.365       24.221        0.045      338.108       10.535      861.749
04/29/2013  06:16:00     -114.376      -75.200       -5.833       31.748       30.512       21.584     1007.908      930.976      465.880        1.059        0.120      136.883       14.930        0.012      338.167       10.635      861.751
04/29/2013  06:17:00      -83.588      -69.889        2.061       44.054       25.198       22.784     1940.730      634.917      519.130        0.748        0.155      108.957       24.738        0.052      338.247       10.768      861.749
04/29/2013  06:18:00      -85.364      -53.138       -0.901       39.330       31.257       25.951     1546.825      976.987      673.480        0.665        0.160      100.551       17.181        0.029      338.306       10.866      861.741
04/29/2013  06:19:00     -108.198      -40.068       -7.059       45.483       27.453       19.894     2068.717      753.669      395.790        0.829        0.161      115.379       13.040        0.013      338.221       10.726      861.732
04/29/2013  06:20:00     -121.408      -37.039       -5.736       50.545       29.181       21.121     2554.845      851.508      446.113        1.000        0.193      126.933       12.107        0.009      338.131       10.572      861.725
04/29/2013  06:21:00      -93.017      -48.398       -9.220       52.375       26.337       18.093     2743.179      693.637      327.374        0.742        0.188      104.855       19.073        0.033      338.196       10.684      861.715
04/29/2013  06:22:00      -59.362      -69.599        1.148       50.343       32.576       23.002     2534.445     1061.203      529.096        0.625        0.206       91.476       22.569        0.061      338.199       10.688      861.705
04/29/2013  06:23:00      -50.005      -68.447        9.629       53.856       27.130       25.785     2900.474      736.032      664.889        0.579        0.215       84.767       28.269        0.111      338.234       10.746      861.688
04/29/2013  06:24:00      -70.406      -78.448        7.394       43.969       30.248       26.234     1933.291      914.918      688.228        0.735        0.177      105.409       24.458        0.054      338.196       10.683      861.661
04/29/2013  06:25:00      -77.329      -74.170       -2.261       36.431       44.020       20.109     1327.189     1937.771      404.390        0.758        0.183      107.149       10.711        0.010      338.121       10.556      861.649
04/29/2013  06:26:00     -116.232      -86.393       -9.244       44.983       31.728       27.950     2023.488     1006.636      781.211        1.243        0.191      144.823       23.249        0.026      338.119       10.552      861.646
04/29/2013  06:27:00      -96.660      -87.336       -6.481       43.092       36.628       24.667     1856.944     1341.634      608.440        1.041        0.190      130.272       25.168        0.037      338.121       10.557      861.649
04/29/2013  06:28:00      -86.098      -42.110        2.020       39.385       23.318       23.656     1551.153      543.739      559.628        0.592        0.133       95.845       24.779        0.067      338.104       10.529      861.655
04/29/2013  06:29:00      -39.406      -42.325        9.500       53.204       21.983       23.829     2830.627      483.261      567.830        0.366        0.194       57.829       28.910        0.250      338.226       10.734      861.668
04/29/2013  06:30:00      -26.748      -42.109        7.453       49.258       32.144       24.620     2426.353     1033.247      606.144        0.330        0.203       49.886       27.732        0.309      338.217       10.719      861.679
04/29/2013  06:31:00     -102.788      -40.387      -11.005       22.643       26.442       18.362      512.695      699.155      337.149        0.693        0.077      110.438       12.004        0.012      338.213       10.712      861.682
04/29/2013  06:32:00      -96.760      -24.405      -10.223       16.721       16.503       10.316      279.599      272.362      106.412        0.536        0.033       99.791        5.506        0.003      338.111       10.541      861.678
04/29/2013  06:33:00     -141.471      -36.949       -8.535       33.708       24.905       19.486     1136.213      620.242      379.689        1.179        0.107      146.216       17.727        0.015      338.200       10.689      861.669
04/29/2013  06:34:00     -171.492      -51.650       -4.497       25.291       25.879       20.878      639.644      669.717      435.886        1.692        0.087      179.101       14.571        0.007      338.173       10.644      861.662
04/29/2013  06:35:00     -162.513      -44.249       -2.602       24.035       23.375       16.773      577.677      546.396      281.325        1.489        0.070      168.429       12.550        0.006      338.171       10.642      861.660
04/29/2013  06:36:00     -166.148      -58.859      -10.451       30.035       34.897       21.716      902.124     1217.790      471.569        1.688        0.130      176.266       16.563        0.009      338.190       10.673      861.662
04/29/2013  06:37:00     -149.339      -42.157       -3.420       58.051       49.642       31.276     3369.881     2464.369      978.178        1.545        0.341      155.175       31.256        0.041      338.286       10.832      861.666
04/29/2013  06:38:00     -125.122      -44.912        1.487       48.253       35.157       29.509     2328.363     1236.048      870.804        1.105        0.222      132.939       27.205        0.042      338.263       10.796      861.665
04/29/2013  06:39:00     -122.692      -68.701       -4.752       57.590       52.720       28.768     3316.604     2779.352      827.603        1.336        0.346      140.617       32.879        0.055      338.308       10.871      861.659
04/29/2013  06:40:00     -129.930      -55.185       -7.836       37.254       33.972       21.089     1387.873     1154.067      444.754        1.149        0.149      141.164       19.813        0.020      338.375       10.983      861.663
04/29/2013  06:41:00      -79.723      -80.414        8.020       49.059       41.290       27.172     2406.830     1704.867      738.300        0.887        0.242      113.235       30.754        0.074      338.389       11.007      861.679
04/29/2013  06:42:00      -58.363      -74.163       -2.687       31.507       29.816       21.865      992.710      889.006      478.088        0.564        0.118       94.374       18.990        0.040      338.456       11.120      861.670
04/29/2013  06:43:00      -51.332      -60.179       -1.421       27.263       24.992       18.730      743.272      624.593      350.824        0.399        0.086       79.098       16.866        0.045      338.496       11.187      861.667
04/29/2013  06:44:00      -36.552      -35.657        0.565       27.120       39.606       19.469      735.489     1568.670      379.026        0.264        0.134       51.063       21.764        0.182      338.531       11.245      861.659
04/29/2013  06:45:00      -59.943      -49.862      -11.988       34.880       23.016       17.879     1216.635      529.747      319.669        0.414        0.103       77.970       19.286        0.061      338.476       11.155      861.652
04/29/2013  06:46:00      -78.438      -66.835       -3.023       48.855       38.338       24.398     2386.764     1469.765      595.272        0.754        0.223      103.051       24.777        0.058      338.414       11.049      861.648
04/29/2013  06:47:00      -92.961      -76.341      -11.111       45.415       44.398       24.167     2062.522     1971.178      584.045        0.960        0.231      120.290       21.143        0.031      338.226       10.733      861.645
04/29/2013  06:48:00      -82.711      -99.966       -9.430       36.789       31.326       23.956     1353.402      981.302      573.882        0.992        0.145      129.748       21.845        0.028      338.296       10.851      861.643
04/29/2013  06:49:00      -62.955      -57.607        3.607       39.483       40.073       25.033     1558.896     1605.877      626.675        0.554        0.190       85.334       21.183        0.062      338.356       10.952      861.644
04/29/2013  06:50:00      -53.608      -53.995       -1.423       46.460       30.093       19.258     2158.513      905.594      370.860        0.461        0.172       76.087       15.495        0.041      338.346       10.936      861.651
04/29/2013  06:51:00      -58.020      -80.346        0.017       37.453       40.582       23.796     1402.702     1646.858      566.268        0.672        0.181       99.105       18.597        0.035      338.295       10.850      861.655
04/29/2013  06:52:00      -97.788      -83.739       -6.541       38.742       33.642       26.653     1500.955     1131.767      710.378        0.998        0.167      128.743       24.239        0.035      338.328       10.905      861.661
04/29/2013  06:53:00      -47.034      -35.483        0.698       42.805       33.329       22.398     1832.282     1110.817      501.657        0.346        0.172       58.917       22.436        0.145      338.358       10.957      861.658
04/29/2013  06:54:00      -54.317      -60.348       -5.821       19.241       15.962       14.856      370.203      254.771      220.692        0.374        0.042       81.192       10.389        0.016      338.311       10.878      861.662
04/29/2013  06:55:00      -55.107      -60.935      -12.147       14.308       13.139        8.258      204.730      172.627       68.201        0.367        0.022       82.158        3.873        0.002      338.348       10.937      861.646
04/29/2013  06:56:00      -46.319      -46.126       -5.441       15.574       19.156       10.618      242.555      366.939      112.734        0.251        0.036       65.369        5.628        0.007      338.401       11.027      861.638
04/29/2013  06:57:00       -1.430      -84.356        5.523       25.323       33.325       21.780      641.242     1110.566      474.374        0.469        0.111       84.368       12.473        0.022      338.470       11.143      861.634
04/29/2013  06:58:00      -32.061      -58.343        1.581       28.383       33.724       25.284      805.586     1137.311      639.285        0.351        0.129       66.572       22.008        0.109      338.521       11.230      861.647
04/29/2013  06:59:00      -52.681      -59.363       -1.356       20.390       28.201       13.560      415.757      795.282      183.877        0.385        0.070       79.367        9.594        0.015      338.407       11.038      861.654
04/29/2013  07:00:00      -52.358      -50.387       -6.049       19.008       29.500       21.271      361.320      870.271      452.443        0.350        0.084       72.665       15.876        0.048      338.424       11.066      861.663
04/29/2013  07:01:00      -20.378      -64.250       -0.024       23.428       29.343       21.082      548.888      861.033      444.435        0.320        0.093       67.405       19.164        0.081      338.547       11.273      861.673
04/29/2013  07:02:00      -31.412      -44.983       -4.540       21.794       20.040       15.515      474.977      401.591      240.730        0.207        0.056       54.865       14.054        0.066      338.515       11.219      861.688
04/29/2013  07:03:00      -32.823      -28.865       -2.217       18.850       12.952       11.542      355.325      167.753      133.213        0.129        0.033       43.710        6.843        0.025      338.526       11.237      861.697
04/29/2013  07:04:00      -13.670      -33.585        1.527       30.078       17.110       17.745      904.676      292.737      314.897        0.141        0.076       36.261       17.508        0.233      338.622       11.399      861.713
04/29/2013  07:05:00       -1.209      -29.439       13.640       15.851       19.117       14.585      251.249      365.473      212.719        0.094        0.041       29.464       13.111        0.198      338.836       11.757      861.725
04/29/2013  07:06:00       -4.883        8.201       12.865       22.503       21.684       16.112      506.390      470.177      259.609        0.075        0.062        9.544       13.309        1.945      339.139       12.267      861.731
04/29/2013  07:07:00      -46.092      -38.883        6.094       21.907       37.286       18.445      479.907     1390.254      340.200        0.294        0.111       60.302       12.975        0.046      338.976       11.994      861.736
04/29/2013  07:08:00      -48.523      -71.374        4.230       15.484       13.231       14.434      239.766      175.053      208.354        0.404        0.031       86.306        2.516        0.001      338.794       11.688      861.742
04/29/2013  07:09:00      -13.843      -43.356       11.572       14.987       20.606       16.240      224.615      424.610      263.745        0.156        0.046       45.513       11.776        0.067      338.933       11.921      861.748
04/29/2013  07:10:00      -26.430      -34.666        1.623       20.696       21.446       20.964      428.338      459.950      439.499        0.162        0.066       43.592       18.036        0.171      338.987       12.012      861.766
04/29/2013  07:11:00      -18.527      -21.368       11.081       21.967       17.506       19.667      482.547      306.472      386.773        0.105        0.059       28.282       16.139        0.326      339.002       12.037      861.791
04/29/2013  07:12:00      -50.014      -26.368      -14.031       18.174        9.620       15.747      330.298       92.552      247.973        0.203        0.034       56.539       13.906        0.060      338.853       11.785      861.811
04/29/2013  07:13:00      -49.810       16.740      -13.912       20.271       27.035       15.011      410.928      730.897      225.322        0.216        0.068       52.548        3.505        0.004      339.070       12.151      861.829
04/29/2013  07:14:00       -5.946        1.814        9.698       15.941       26.430       14.379      254.128      698.569      206.766        0.065        0.058        6.217       10.305        2.748      339.316       12.565      861.827
04/29/2013  07:15:00      -17.666       32.250      -13.877       16.546       22.554       18.595      273.777      508.683      345.783        0.134        0.056       36.772        6.292        0.029      339.172       12.324      861.835
04/29/2013  07:16:00       19.458       16.183       12.246       18.746       22.361       22.865      351.407      499.996      522.812        0.108        0.069       25.308       13.330        0.277      339.400       12.707      861.827
04/29/2013  07:17:00       14.368       57.730        7.308       15.381       25.749       21.631      236.573      663.005      467.913        0.248        0.068       59.491       17.499        0.087      339.161       12.305      861.827
04/29/2013  07:18:00       25.026       69.684       -9.124       12.650       12.852       10.618      160.029      165.184      112.734        0.300        0.022       74.042        5.917        0.006      338.997       12.029      861.826
04/29/2013  07:19:00        8.508       99.435      -10.520       16.695       29.354       13.347      278.726      861.677      178.137        0.569        0.066       99.799       15.441        0.024      339.107       12.213      861.826
04/29/2013  07:20:00       43.234       90.109       -8.759       25.326       33.229       24.937      641.393     1104.189      621.866        0.622        0.118       99.944       21.086        0.045      339.099       12.200      861.828
04/29/2013  07:21:00       45.409       37.292       13.721       32.489       22.807       23.423     1055.542      520.152      548.645        0.288        0.106       58.760       11.361        0.037      339.261       12.473      861.822
04/29/2013  07:22:00       50.432       41.141        3.075       42.906       28.717       19.095     1840.941      824.659      364.638        0.364        0.152       65.084       10.984        0.028      339.279       12.503      861.826
04/29/2013  07:23:00       63.088       59.910        3.370       39.828       38.340       36.562     1586.290     1469.948     1336.774        0.599        0.220       87.002       15.015        0.030      339.404       12.714      861.848
04/29/2013  07:24:00       51.087       65.635       -3.744       38.574       36.236       26.759     1487.967     1313.066      716.068        0.522        0.176       83.173       20.120        0.059      339.349       12.622      861.865
04/29/2013  07:25:00        8.860       82.339      -12.733       30.631       42.139       20.322      938.275     1775.699      412.997        0.507        0.156       82.814       22.067        0.071      339.326       12.583      861.891
04/29/2013  07:26:00       16.025      100.224      -24.883       25.710       25.811       13.426      661.004      666.193      180.268        0.621        0.075      101.497       11.477        0.013      339.192       12.357      861.924
04/29/2013  07:27:00        8.544       69.650      -11.719       32.130       37.684       17.712     1032.341     1420.063      313.717        0.391        0.138       70.172       15.795        0.051      339.348       12.620      861.935
04/29/2013  07:28:00       55.427       77.713       -4.772       28.796       47.549       27.412      829.228     2260.951      751.424        0.649        0.192       95.454       28.433        0.089      339.334       12.596      861.948
04/29/2013  07:29:00       11.072       75.294        8.864       34.489       41.871       26.773     1189.478     1753.219      716.787        0.476        0.183       76.104       24.465        0.103      339.439       12.772      861.941
04/29/2013  07:30:00       27.534       76.104       -4.849       27.316       33.390       29.473      746.155     1114.895      868.635        0.465        0.136       80.932       28.296        0.122      339.495       12.868      861.943
04/29/2013  07:31:00       24.962       48.698        7.373       29.634       24.156       23.335      878.157      583.499      544.509        0.253        0.100       54.723       16.375        0.090      339.700       13.214      861.956
04/29/2013  07:32:00       78.062       66.419       10.464       19.931       22.307       17.746      397.236      497.616      314.909        0.591        0.060      102.495        9.759        0.009      339.531       12.929      861.977
04/29/2013  07:33:00       39.934       26.524        5.047       24.437       18.897       19.915      597.144      357.109      396.613        0.184        0.068       47.940       13.429        0.078      339.719       13.244      861.990
04/29/2013  07:34:00       51.333       36.307        7.642       35.281       17.718       17.763     1244.746      313.913      315.523        0.294        0.094       62.875       10.387        0.027      339.660       13.147      862.007
04/29/2013  07:35:00       30.395       26.799       -2.099       23.213       16.396       17.569      538.864      268.830      308.653        0.138        0.056       40.522       12.475        0.095      339.852       13.471      862.020
04/29/2013  07:36:00       21.214       22.705       17.146       28.186       21.983       17.806      794.439      483.245      317.037        0.143        0.080       31.073       15.020        0.234      340.159       13.987      862.032
04/29/2013  07:37:00       48.764       35.279       34.556       35.755       27.899       35.169     1278.408      778.332     1236.852        0.405        0.165       60.187       26.928        0.200      339.916       13.578      862.027
04/29/2013  07:38:00       66.929       54.336       34.226       27.393       22.253       25.168      750.349      495.192      633.428        0.524        0.094       86.208       17.715        0.042      339.797       13.378      862.016
04/29/2013  07:39:00       56.568       32.039       -2.034       21.029       18.517       17.286      442.223      342.883      298.801        0.266        0.054       65.011       10.056        0.024      339.821       13.418      862.001
04/29/2013  07:40:00       30.978       17.483        6.447       14.088       21.966       19.969      198.477      482.507      398.747        0.119        0.054       35.571       15.576        0.192      339.936       13.611      861.983
04/29/2013  07:41:00       38.249      -16.749       -0.726       28.243       40.210       22.927      797.684     1616.861      525.627        0.234        0.147       41.755       23.770        0.324      339.932       13.604      861.961
04/29/2013  07:42:00       36.854      -51.589        0.549       28.065       33.669       24.071      787.634     1133.599      579.415        0.326        0.125       63.400       15.688        0.061      339.784       13.355      861.947
04/29/2013  07:43:00       27.499      -31.033       14.480       30.757       40.032       28.580      945.996     1602.582      816.844        0.265        0.168       41.464       29.193        0.496      340.039       13.785      861.940
04/29/2013  07:44:00       10.954      -18.844        8.403       28.847       30.056       19.234      832.123      903.357      369.956        0.133        0.105       21.797       17.108        0.616      340.146       13.967      861.942
04/29/2013  07:45:00       10.641       -1.100       15.351       22.541       43.628       16.664      508.076     1903.360      277.704        0.152        0.134       10.698        5.621        0.276      340.251       14.143      861.942
04/29/2013  07:46:00       29.139       -4.079       21.617       29.259       40.388       29.181      856.108     1631.220      851.558        0.234        0.167       29.424       21.469        0.532      340.241       14.125      861.949
04/29/2013  07:47:00       56.922       41.323        6.686       24.266       19.697       18.507      588.842      387.957      342.496        0.316        0.066       70.339        6.716        0.009      340.222       14.094      861.948
04/29/2013  07:48:00       27.715       58.144       26.178       27.717       44.961       31.953      768.232     2021.498     1021.017        0.432        0.191       64.411       24.239        0.142      340.675       14.860      861.947
04/29/2013  07:49:00       18.742      108.521      -10.741       37.514       63.839       32.546     1407.278     4075.371     1059.253        0.939        0.327      110.127       39.372        0.128      340.491       14.548      861.951
04/29/2013  07:50:00     -109.724       96.774      -22.632       51.573       53.898       34.800     2659.790     2904.979     1211.040        1.434        0.339      146.303       32.626        0.050      340.395       14.385      861.950
04/29/2013  07:51:00      -86.754      118.304      -25.778       44.146       61.866       33.354     1948.862     3827.364     1112.500        1.454        0.344      146.705       36.082        0.060      340.420       14.426      861.947
04/29/2013  07:52:00       -8.762       39.054        2.695       21.213       33.998       23.184      449.987     1155.890      537.506        0.188        0.107       40.025       16.486        0.170      340.663       14.839      861.938
04/29/2013  07:53:00      -16.366       45.933       15.011       21.177       47.572       22.974      448.486     2263.089      527.819        0.292        0.162       48.761       27.759        0.324      340.809       15.086      861.943
04/29/2013  07:54:00      -55.127       10.371        1.550       20.489       44.792       23.737      419.788     2006.288      563.424        0.307        0.149       56.094       18.041        0.103      340.848       15.152      861.955
04/29/2013  07:55:00      -55.693       12.135       -4.800       28.486       28.169       23.861      811.455      793.497      569.348        0.272        0.109       57.000       12.298        0.047      340.668       14.848      861.965
04/29/2013  07:56:00      -68.886       18.370      -15.198       37.535       34.554       15.420     1408.913     1194.011      237.789        0.408        0.142       71.293       15.142        0.045      340.631       14.786      861.976
04/29/2013  07:57:00       17.420       -3.065       -5.912       15.207       19.661        7.954      231.245      386.564       63.272        0.051        0.034       17.687        8.261        0.218      340.569       14.680      861.982
04/29/2013  07:58:00      -80.111       12.251      -10.974       57.596       52.047       21.747     3317.273     2708.877      472.913        0.659        0.325       81.042       24.673        0.093      340.751       14.988      861.987
04/29/2013  07:59:00      -59.981      -22.660        8.965       35.114       37.303       23.062     1233.013     1391.546      531.852        0.367        0.158       64.119       19.597        0.093      340.724       14.943      861.984
04/29/2013  08:00:00      -45.090       81.736      -22.753       29.728       43.519       23.468      883.781     1893.926      550.738        0.628        0.166       93.348       24.063        0.066      340.657       14.828      861.988
04/29/2013  08:01:00      -22.076       88.678      -12.167       29.557       36.940       24.008      873.645     1364.535      576.380        0.566        0.141       91.385       22.737        0.062      340.784       15.044      861.979
04/29/2013  08:02:00        7.489       53.587       -2.313       27.620       25.500       25.108      762.842      650.239      630.402        0.249        0.102       54.108       17.532        0.105      340.955       15.333      861.977
04/29/2013  08:03:00       51.306       25.826        8.441       32.688       27.127       25.008     1068.511      735.890      625.414        0.290        0.121       57.440       15.943        0.077      340.897       15.236      861.958
04/29/2013  08:04:00      -25.792        1.898       22.275       33.964       25.216       19.430     1153.533      635.872      377.524        0.167        0.108       25.862       23.028        0.793      341.231       15.801      861.960
04/29/2013  08:05:00      -35.321      -34.008       -3.238       35.065       41.716       15.199     1229.532     1740.204      231.006        0.281        0.160       49.032       11.947        0.059      340.889       15.221      861.974
04/29/2013  08:06:00      -84.992      -63.588      -12.255       26.151       29.698       16.034      683.875      881.947      257.089        0.662        0.091      106.146       12.523        0.014      340.654       14.825      861.973
04/29/2013  08:07:00      -40.596      -69.199      -16.718       42.843       25.194       16.116     1835.482      634.717      259.711        0.472        0.136       80.228        6.638        0.007      340.658       14.831      861.980
04/29/2013  08:08:00       17.752      -91.576      -12.500       18.594       27.065       15.747      345.736      732.527      247.982        0.509        0.066       93.280       11.450        0.015      340.630       14.782      861.984
04/29/2013  08:09:00      -10.898      -79.727       -2.305       14.597       17.305       12.638      213.071      299.471      159.726        0.358        0.034       80.468       12.041        0.022      340.645       14.808      861.987
04/29/2013  08:10:00      -13.871      -63.815        8.696       21.140       23.305       14.615      446.901      543.145      213.591        0.277        0.060       65.306        9.492        0.021      340.752       14.990      861.990
04/29/2013  08:11:00      -20.004       -3.327       20.567       20.846       13.134       13.617      434.553      172.489      185.410        0.081        0.040       20.279       12.889        0.404      341.205       15.756      861.989
04/29/2013  08:12:00       31.595      -12.770       17.162       22.032       38.325       20.592      485.390     1468.797      424.048        0.192        0.119       34.078       19.138        0.315      340.900       15.240      862.000
04/29/2013  08:13:00      -48.044      -62.430       -7.902       45.119       41.077       17.382     2035.764     1687.348      302.138        0.515        0.201       78.777       16.722        0.045      340.809       15.085      862.002
04/29/2013  08:14:00      -30.940      -59.475       26.935       55.739       51.403       42.914     3106.822     2642.279     1841.619        0.640        0.380       67.041       30.093        0.201      341.010       15.426      862.008
04/29/2013  08:15:00     -100.361      -44.902       -5.998       45.934       37.313       22.018     2109.892     1392.268      484.799        0.805        0.199      109.948       16.704        0.023      340.911       15.258      862.011
04/29/2013  08:16:00      -87.242      -35.448       -2.890       46.209       45.230       19.599     2135.278     2045.745      384.120        0.672        0.228       94.169       18.733        0.040      341.064       15.519      861.997
04/29/2013  08:17:00      -29.452        9.052       11.082       27.594       36.749       24.562      761.436     1350.497      603.292        0.189        0.136       30.811       20.120        0.426      341.314       15.940      861.982
04/29/2013  08:18:00      -86.606       42.992       -3.929       47.259       34.917       29.310     2233.393     1219.205      859.095        0.684        0.216       96.690       22.310        0.053      341.191       15.732      861.976
04/29/2013  08:19:00     -112.249       -9.718      -15.586       36.105       29.150       28.264     1303.602      849.704      798.852        0.794        0.148      112.668       19.891        0.031      340.910       15.257      861.963
04/29/2013  08:20:00      -78.528      -21.327       -8.350       21.438       22.355       17.278      459.604      499.768      298.534        0.397        0.063       81.373        9.114        0.013      340.965       15.351      861.967
04/29/2013  08:21:00      -40.562      -13.125        6.351       33.548       32.588       18.641     1125.495     1061.946      347.489        0.220        0.127       42.633       14.500        0.116      341.313       15.939      861.974
04/29/2013  08:22:00      -57.941      -35.200        2.406       31.311       15.466       15.350      980.379      239.195      235.617        0.303        0.073       67.795       10.375        0.023      340.994       15.399      861.991
04/29/2013  08:23:00       -6.936      -51.706        0.650       15.054       19.941       12.598      226.612      397.652      158.706        0.175        0.039       52.169       10.674        0.042      340.928       15.286      861.997
04/29/2013  08:24:00        5.234       25.255        4.031       24.914       23.208       25.997      620.697      538.625      675.833        0.126        0.092       25.792       16.131        0.391      341.383       16.057      861.998
04/29/2013  08:25:00       61.492       44.340       14.442       19.130       24.676       24.743      365.946      608.894      612.239        0.377        0.079       75.811       10.705        0.020      341.074       15.535      861.987
04/29/2013  08:26:00       55.435       59.980       17.246       31.368       24.254       21.886      983.939      588.233      478.998        0.451        0.103       81.674       14.894        0.033      340.940       15.309      861.971
04/29/2013  08:27:00        4.919       -0.158       12.208       22.224       23.556       20.385      493.891      554.902      415.529        0.082        0.073        4.921        6.389        1.685      341.201       15.749      861.955
04/29/2013  08:28:00      -25.797      -36.967       -2.649       19.958       21.582       22.155      398.310      465.781      490.851        0.170        0.068       45.078        9.647        0.046      340.734       14.958      861.938
04/29/2013  08:29:00      -48.937      -28.225       -3.198       39.823       14.041       15.911     1585.901      197.145      253.165        0.262        0.102       56.493       10.845        0.037      341.023       15.448      861.930
04/29/2013  08:30:00      -94.366       -7.649        0.775       35.866       39.535       27.305     1286.399     1563.048      745.576        0.628        0.180       94.676       26.328        0.077      341.355       16.010      861.915
04/29/2013  08:31:00     -140.460       21.172       -9.753       27.781       31.469       23.842      771.764      990.269      568.465        1.130        0.117      142.046       15.672        0.012      341.345       15.993      861.902
04/29/2013  08:32:00      -64.701       -6.276        4.795       55.556       29.284       26.106     3086.431      857.581      681.544        0.444        0.231       65.004       29.171        0.201      341.650       16.511      861.904
04/29/2013  08:33:00      -15.243      -57.896        5.475       28.011       18.584       16.678      784.607      345.384      278.146        0.251        0.070       59.869       15.568        0.068      341.170       15.697      861.892
04/29/2013  08:34:00      -44.682      -19.316      -13.037       32.971       23.907       18.523     1087.074      571.539      343.102        0.227        0.100       48.678       19.329        0.158      341.190       15.731      861.895
04/29/2013  08:35:00      -45.721      -79.343        6.709       53.322       36.711       19.866     2843.232     1347.730      394.674        0.651        0.229       91.574       21.138        0.053      341.053       15.499      861.893
04/29/2013  08:36:00      -82.667     -118.763       -7.659       36.739       33.512       20.170     1349.755     1123.044      406.827        1.194        0.144      144.702       18.749        0.017      340.930       15.291      861.899
04/29/2013  08:37:00      -33.717      -57.622       13.797       31.930       41.931       23.235     1019.509     1758.225      539.867        0.398        0.166       66.762       20.626        0.095      341.251       15.834      861.901
04/29/2013  08:38:00      -19.514      -97.796       -8.832       24.113       41.053       25.732      581.423     1685.350      662.140        0.648        0.146       99.723       13.049        0.017      341.125       15.621      861.889
04/29/2013  08:39:00      -19.533      -79.758        3.848       37.200       48.557       24.262     1383.873     2357.795      588.649        0.554        0.217       82.115       18.946        0.053      341.388       16.066      861.883
04/29/2013  08:40:00      -84.448      -64.567       -2.111       54.584       46.830       27.397     2979.378     2193.064      750.577        0.861        0.296      106.303       13.631        0.016      341.148       15.661      861.874
04/29/2013  08:41:00      -64.583      -49.745       -1.826       37.359       31.486       24.088     1395.699      991.369      580.251        0.481        0.148       81.521       20.164        0.061      341.222       15.786      861.867
04/29/2013  08:42:00      -51.624      -51.045        0.190       28.030       41.687       17.004      785.669     1737.799      289.123        0.404        0.141       72.599       18.921        0.068      341.127       15.625      861.857
04/29/2013  08:43:00      -37.893        0.192        3.856       18.864       21.875       14.139      355.835      478.524      199.911        0.124        0.052       37.893       11.079        0.085      341.343       15.991      861.849
04/29/2013  08:44:00      -52.989      -19.587       -4.148       32.787       21.502       16.273     1074.982      462.337      264.797        0.251        0.090       56.493        9.506        0.028      341.347       15.996      861.827
04/29/2013  08:45:00      -60.712      -45.074       -7.135       55.166       46.032       24.018     3043.270     2118.943      576.867        0.575        0.287       75.615       15.519        0.042      341.278       15.880      861.832
04/29/2013  08:46:00      -84.283      -85.384       -4.484       49.918       40.680       26.336     2491.785     1654.831      693.585        0.963        0.242      119.975       16.991        0.020      341.336       15.977      861.843
04/29/2013  08:47:00      -17.509      -49.546       18.648       42.093       49.858       28.986     1771.826     2485.833      840.206        0.410        0.255       52.549       37.553        0.511      341.690       16.578      861.850
04/29/2013  08:48:00      -81.151      -55.177       17.195       55.748       41.446       33.537     3107.785     1717.738     1124.739        0.794        0.298       98.133       29.847        0.093      341.510       16.272      861.851
04/29/2013  08:49:00       -7.154      -37.810       25.236       85.915       37.754       31.755     7381.427     1425.330     1008.375        0.596        0.491       38.481       39.108        1.033      341.639       16.492      861.850
04/29/2013  08:50:00      -77.555      -60.630        4.411       37.289       40.341       20.768     1390.443     1627.417      431.294        0.658        0.172       98.442       21.047        0.046      341.219       15.779      861.844
04/29/2013  08:51:00      -50.223      -52.607        3.813       45.244       40.988       31.180     2046.983     1679.987      972.174        0.500        0.235       72.731       26.846        0.136      341.514       16.280      861.833
04/29/2013  08:52:00       16.938      -66.341       25.629       86.660       84.729       45.104     7510.040     7179.053     2034.372        1.103        0.836       68.469       55.738        0.663      341.655       16.517      861.830
04/29/2013  08:53:00      -81.455      -94.648       -6.089       36.556       39.288       27.608     1336.306     1543.542      762.177        0.964        0.182      124.873        6.470        0.003      341.341       15.987      861.831
04/29/2013  08:54:00      -73.545     -100.718        0.385       44.089       45.097       32.603     1943.856     2033.719     1062.969        1.030        0.252      124.712       23.627        0.036      341.254       15.839      861.823
04/29/2013  08:55:00     -104.475      -81.171        1.761       62.454       58.745       36.932     3900.520     3450.967     1363.999        1.311        0.436      132.302       24.603        0.035      341.264       15.855      861.798
04/29/2013  08:56:00      -26.529      -26.967        6.238       65.487       36.301       35.936     4288.560     1317.753     1291.400        0.418        0.345       37.828       24.338        0.414      341.651       16.512      861.777
04/29/2013  08:57:00        0.971      -74.804       19.036       49.326       68.124       37.411     2433.009     4640.820     1399.599        0.721        0.424       74.811       32.509        0.189      341.787       16.742      861.740
04/29/2013  08:58:00       -9.525     -103.468        8.261       38.915       65.626       48.203     1514.375     4306.783     2323.489        0.950        0.407      103.905       29.937        0.083      341.663       16.531      861.707
04/29/2013  08:59:00       24.166      -25.041       49.622       47.378       52.073       43.774     2244.693     2711.594     1916.184        0.527        0.344       34.800       30.436        0.765      341.857       16.861      861.668
04/29/2013  09:00:00      -19.385      -91.597       14.681       37.680       50.291       34.174     1419.788     2529.181     1167.869        0.705        0.256       93.626       22.165        0.056      341.240       15.815      861.639
04/29/2013  09:01:00       -5.279      -91.588       -0.528       41.824       46.710       33.311     1749.270     2181.805     1109.638        0.673        0.252       91.740       18.898        0.042      341.790       16.746      861.616
04/29/2013  09:02:00      -41.239      -49.422       -9.131       38.003       38.928       27.788     1444.255     1515.395      772.190        0.398        0.187       64.368       19.213        0.089      341.831       16.817      861.615
04/29/2013  09:03:00      -37.980      -37.621       -0.844       45.627       37.132       24.624     2081.780     1378.782      606.345        0.346        0.203       53.459       13.556        0.064      341.809       16.780      861.618
04/29/2013  09:04:00      -18.427      -27.572        2.537       33.471       27.881       25.025     1120.307      777.337      626.257        0.181        0.126       33.162       12.984        0.153      341.849       16.846      861.620
04/29/2013  09:05:00      -42.450      -41.676      -21.369       47.965       41.136       36.933     2300.633     1692.172     1364.041        0.468        0.268       59.489       26.328        0.196      341.659       16.526      861.610
04/29/2013  09:06:00      -54.292      -49.613       -5.698       50.298       52.582       32.959     2529.939     2764.880     1086.281        0.591        0.319       73.546       13.839        0.035      341.711       16.613      861.598
04/29/2013  09:07:00      -18.490      -71.043        6.854       56.015       49.951       33.433     3137.638     2495.087     1117.777        0.609        0.338       73.410       27.680        0.142      341.813       16.786      861.586
04/29/2013  09:08:00       27.017      -40.231       31.374       56.907       51.419       34.920     3238.434     2643.907     1219.427        0.522        0.355       48.460       23.638        0.238      341.944       17.009      861.575
04/29/2013  09:09:00       57.948     -127.726       -4.876       64.305       94.119       64.551     4135.073     8858.329     4166.776        1.842        0.858      140.256       67.448        0.231      341.758       16.692      861.553
04/29/2013  09:10:00       47.536      -28.778       32.091       56.155       54.353       57.658     3153.357     2954.282     3324.446        0.677        0.472       55.569       45.081        0.658      341.860       16.868      861.525
04/29/2013  09:11:00       21.372      -12.100       53.927       48.527       58.608       47.117     2354.897     3434.883     2219.987        0.576        0.400       24.560       37.890        2.380      341.942       17.005      861.496
04/29/2013  09:12:00       49.750      -53.690       28.383       66.191       60.943       46.019     4381.239     3714.032     2117.720        0.819        0.511       73.196       42.604        0.339      341.603       16.430      861.446
04/29/2013  09:13:00       90.136      -58.787        9.460       83.100       78.723       57.911     6905.596     6197.299     3353.663        1.406        0.823      107.612       60.520        0.316      341.724       16.635      861.411
04/29/2013  09:14:00       11.485      -29.247       34.391       28.349       57.384       41.462      803.647     3292.953     1719.057        0.399        0.291       31.421       37.777        1.445      341.907       16.947      861.380
04/29/2013  09:15:00      -47.115      -89.883       -7.792       48.828       31.904       29.951     2384.162     1017.888      897.064        0.733        0.215      101.483       25.037        0.061      341.589       16.407      861.345
04/29/2013  09:16:00      -24.018      -46.551        8.695       45.307       41.282       37.184     2052.750     1704.219     1382.626        0.398        0.257       52.382       26.804        0.262      341.956       17.028      861.329
04/29/2013  09:17:00      -40.829      -50.568       23.333       69.475       45.384       39.534     4826.841     2059.694     1562.948        0.661        0.422       64.993       39.640        0.372      341.902       16.939      861.298
04/29/2013  09:18:00     -111.476      -44.161        4.041       43.886       40.804       21.612     1926.017     1665.006      467.083        0.922        0.203      119.904       20.055        0.028      341.470       16.205      861.277
04/29/2013  09:19:00      -37.177       14.343        0.996       39.030       50.935       37.867     1523.322     2594.423     1433.896        0.357        0.278       39.848       29.078        0.532      341.755       16.688      861.238
04/29/2013  09:20:00      -73.280      -16.649       11.226       41.497       45.250       37.087     1722.019     2047.586     1375.412        0.546        0.257       75.147       14.691        0.038      341.775       16.722      861.205
04/29/2013  09:21:00      -46.184      -16.851      -14.677       42.972       46.593       22.882     1846.607     2170.910      523.607        0.359        0.227       49.162        8.043        0.027      342.020       17.137      861.193
04/29/2013  09:22:00      -51.240      -66.538       10.192       79.292       35.712       29.958     6287.166     1275.361      897.494        0.781        0.423       83.982       32.912        0.154      342.022       17.141      861.181
04/29/2013  09:23:00      -59.261      -20.118       -2.354       35.714       51.227       21.882     1275.459     2624.244      478.816        0.415        0.219       62.582       18.415        0.087      341.757       16.691      861.193
04/29/2013  09:24:00      -45.182        8.117        7.128       31.994       34.063       32.645     1023.627     1160.320     1065.669        0.270        0.162       45.905       16.003        0.122      341.951       17.020      861.185
04/29/2013  09:25:00      -16.507      -49.594       -1.393       38.819       44.504       29.345     1506.919     1980.614      861.126        0.354        0.217       52.269       14.466        0.077      342.115       17.299      861.190
04/29/2013  09:26:00      -10.815      -38.408        7.469       44.983       51.805       25.275     2023.443     2683.765      638.824        0.350        0.267       39.902       21.998        0.304      342.117       17.302      861.200
04/29/2013  09:27:00       -5.148      -10.494       20.600       47.191       37.153       34.975     2226.971     1380.366     1223.257        0.269        0.242       11.689       17.995        2.370      342.590       18.106      861.192
04/29/2013  09:28:00       49.400      -41.982       20.967       33.188       45.762       31.858     1101.468     2094.138     1014.917        0.443        0.211       64.830       23.332        0.130      342.166       17.385      861.182
04/29/2013  09:29:00       98.370     -157.294      -24.413       79.047       81.129       53.142     6248.495     6581.879     2824.115        2.533        0.783      185.522       48.895        0.069      341.941       17.001      861.150
04/29/2013  09:30:00       52.793     -101.663       24.731       75.621       91.543       54.711     5718.479     8380.208     2993.240        1.541        0.855      114.553       60.047        0.275      342.139       17.339      861.142
04/29/2013  09:31:00       31.580      -15.128       43.995       55.028       91.225       54.211     3028.085     8322.086     2938.813        0.872        0.714       35.016       44.479        1.614      342.325       17.655      861.127
04/29/2013  09:32:00       50.902      -47.192       21.800       62.011       48.996       58.026     3845.361     2400.621     3366.990        0.745        0.481       69.412       45.022        0.421      342.107       17.285      861.120
04/29/2013  09:33:00       16.992      -49.282       34.101       34.501       56.224       41.663     1190.348     3161.182     1735.784        0.498        0.304       52.129       30.878        0.351      342.273       17.567      861.090
04/29/2013  09:34:00       18.960      -24.010       37.566       44.185       66.680       44.236     1952.323     4446.198     1956.847        0.535        0.418       30.593       43.172        1.991      342.229       17.493      861.080
04/29/2013  09:35:00       21.766      -47.179       19.663       39.868       65.204       54.625     1589.469     4251.541     2983.925        0.595        0.441       51.958       37.898        0.532      342.557       18.051      861.052
04/29/2013  09:36:00       13.085      -73.710       29.396       33.169       63.493       45.026     1100.195     4031.343     2027.385        0.681        0.358       74.863       34.119        0.208      342.577       18.085      861.028
04/29/2013  09:37:00       17.255      -16.630       31.211       47.786       75.246       42.321     2283.498     5661.892     1791.027        0.564        0.487       23.964       30.991        1.672      342.403       17.789      861.016
04/29/2013  09:38:00       51.934      -80.339       32.294       61.437      105.300       57.720     3774.521    11088.068     3331.545        1.419        0.910       95.663       67.135        0.493      342.695       18.283      860.991
04/29/2013  09:39:00       58.984      -97.021       26.375       83.225       89.663       61.819     6926.358     8039.472     3821.573        1.618        0.939      113.544       52.641        0.215      342.325       17.656      860.980
04/29/2013  09:40:00       -7.397       -6.886       67.779       35.389       74.920       42.622     1252.374     5612.954     1816.627        0.669        0.434       10.106       16.623        2.706      342.435       17.842      860.969
04/29/2013  09:41:00       93.265       56.071       47.685       95.330      102.990       55.933     9087.812    10606.909     3128.540        1.847        1.141      108.822       58.318        0.287      341.953       17.023      860.949
04/29/2013  09:42:00       30.410      -58.967       30.727       50.190       67.126       44.224     2519.070     4505.914     1955.756        0.716        0.449       66.346       31.149        0.220      342.381       17.752      860.941
04/29/2013  09:43:00       40.621      -51.961       15.756       55.476       95.627       52.145     3077.533     9144.576     2719.113        0.977        0.747       65.955       61.024        0.856      342.340       17.681      860.936
04/29/2013  09:44:00       20.918     -100.534      -10.741       62.986       75.776       61.315     3967.266     5742.047     3759.516        1.206        0.673      102.688       43.897        0.183      342.095       17.264      860.904
04/29/2013  09:45:00        8.920      -19.440       48.412       37.394       54.448       33.485     1398.312     2964.560     1121.245        0.414        0.274       21.389       14.652        0.469      342.424       17.824      860.894
04/29/2013  09:46:00       25.212        1.568       48.995       56.835       54.292       41.107     3230.169     2947.619     1689.793        0.545        0.393       25.260       40.058        2.515      342.649       18.206      860.900
04/29/2013  09:47:00      -15.581      -20.274       17.831       44.971       33.561       32.593     2022.429     1126.323     1062.286        0.259        0.211       25.570       25.043        0.959      342.517       17.982      860.902
04/29/2013  09:48:00     -145.650      -32.446      -12.362       41.112       58.170       27.125     1690.228     3383.758      735.770        1.411        0.290      149.220       27.053        0.033      341.701       16.596      860.909
04/29/2013  09:49:00      -89.353       92.466       -7.494       54.758       58.990       36.103     2998.474     3479.838     1303.428        1.218        0.389      128.584       28.100        0.048      341.997       17.098      860.909
04/29/2013  09:50:00      -36.151      114.727        5.685       45.384       58.429       34.324     2059.708     3414.004     1178.110        1.058        0.333      120.288       36.778        0.093      342.228       17.492      860.906
04/29/2013  09:51:00       31.595      119.614      -11.671       40.877       57.892       32.426     1670.933     3351.437     1051.449        1.076        0.304      123.717       29.167        0.056      341.940       17.004      860.898
04/29/2013  09:52:00      -21.501      122.874       11.511       42.579       65.047       43.212     1813.009     4231.151     1867.275        1.180        0.396      124.741       43.905        0.124      342.227       17.489      860.880
04/29/2013  09:53:00       14.462      154.531       -6.693       38.321       71.911       41.278     1468.469     5171.182     1703.866        1.624        0.417      155.206       47.213        0.093      342.139       17.339      860.872
04/29/2013  09:54:00       23.978      163.472      -26.187       36.721       51.930       30.979     1348.440     2696.690      959.686        1.649        0.250      165.221       28.993        0.031      341.905       16.944      860.866
04/29/2013  09:55:00       14.824      156.938      -14.242       41.477       60.426       34.006     1720.370     3651.340     1156.408        1.579        0.326      157.636       34.449        0.048      342.103       17.279      860.858
04/29/2013  09:56:00       48.064       43.952       -5.383       40.332       27.602       26.662     1626.677      761.846      710.864        0.368        0.155       65.130       20.978        0.104      342.322       17.652      860.881
04/29/2013  09:57:00       22.741       -2.984       15.327       47.780       54.034       37.705     2282.959     2919.628     1421.641        0.369        0.331       22.935       25.545        1.240      342.514       17.976      860.903
04/29/2013  09:58:00       28.148      -82.436       -2.470       39.670       42.123       29.806     1573.721     1774.353      888.406        0.591        0.212       87.109       22.936        0.069      341.919       16.965      860.914
04/29/2013  09:59:00      -21.303      -26.793       -5.490       34.524       43.098       18.465     1191.928     1857.400      340.959        0.230        0.170       34.230       18.448        0.290      342.383       17.754      860.922
04/29/2013  10:00:00       26.009      -65.871        2.854       33.558       33.357       29.561     1126.133     1112.679      873.826        0.407        0.156       70.819       13.416        0.036      342.312       17.632      860.936
04/29/2013  10:01:00      -11.980      -37.197       -1.907       39.894       28.270       27.529     1591.559      799.202      757.863        0.234        0.157       39.079       12.564        0.103      342.636       18.184      860.929
04/29/2013  10:02:00       15.759      -26.780       18.585       38.438       52.377       32.060     1477.463     2743.364     1027.824        0.328        0.262       31.073       37.648        1.468      342.385       17.757      860.929
04/29/2013  10:03:00       41.276       18.631       26.022       31.027       34.922       21.804      962.659     1219.519      475.395        0.269        0.133       45.286       15.816        0.122      342.520       17.986      860.935
04/29/2013  10:04:00       11.598      -29.471       14.687       34.630       62.865       38.352     1199.220     3952.069     1470.847        0.392        0.331       31.671       20.195        0.407      342.629       18.173      860.914
04/29/2013  10:05:00       32.188      -15.105       34.807       48.227       49.020       44.180     2325.874     2402.993     1951.851        0.458        0.334       35.556       30.544        0.738      342.845       18.540      860.896
04/29/2013  10:06:00       -4.178      -15.438       56.591       35.368       31.946       33.262     1250.891     1020.539     1106.342        0.342        0.169       15.993       18.359        1.318      343.074       18.931      860.887
04/29/2013  10:07:00      -18.395       28.204       30.149       20.245       31.995       49.824      409.858     1023.701     2482.464        0.298        0.196       33.673       25.287        0.564      343.079       18.938      860.878
04/29/2013  10:08:00       35.788       11.121       35.477       48.637       42.988       37.898     2365.557     1848.009     1436.287        0.416        0.282       37.476       31.030        0.686      342.881       18.602      860.883
04/29/2013  10:09:00       52.752       54.761       32.450       52.087       25.445       29.820     2713.042      647.425      889.250        0.554        0.212       76.036       29.809        0.154      342.424       17.823      860.868
04/29/2013  10:10:00      -22.107       52.437       21.882       65.692       48.565       26.701     4315.389     2358.527      712.941        0.555        0.369       56.907       19.433        0.117      342.736       18.354      860.874
04/29/2013  10:11:00       24.670       43.138       19.154       77.348       33.732       31.406     5982.644     1137.856      986.344        0.547        0.405       49.694       31.397        0.399      342.691       18.277      860.871
04/29/2013  10:12:00       36.915       33.590       17.645       79.971       55.143       34.224     6395.436     3040.730     1171.282        0.670        0.530       49.910       28.022        0.315      342.801       18.464      860.873
04/29/2013  10:13:00       22.392      -86.051       -4.460       73.477       63.797       37.614     5398.832     4070.056     1414.848        0.940        0.544       88.916       41.966        0.223      342.756       18.388      860.872
04/29/2013  10:14:00       75.834      -99.117      -11.924       63.284      101.948       67.767     4004.900    10393.321     4592.333        1.735        0.950      124.800       65.358        0.274      342.650       18.207      860.863
04/29/2013  10:15:00       11.886      -35.492       33.335       34.958       85.650       42.515     1222.030     7335.869     1807.486        0.644        0.518       37.429       50.319        1.807      342.815       18.489      860.866
04/29/2013  10:16:00       78.035       92.854       86.342       72.788       64.454       58.791     5298.105     4154.311     3456.411        1.753        0.645      121.290       52.197        0.185      342.297       17.608      860.852
04/29/2013  10:17:00       84.969       58.380       47.366       59.521       84.964       50.082     3542.713     7218.801     2508.159        1.307        0.663      103.092       50.077        0.236      342.252       17.532      860.847
04/29/2013  10:18:00       64.945      -70.096        8.988       80.706       84.318       56.834     6513.445     7109.488     3230.062        1.303        0.843       95.558       57.232        0.359      342.599       18.121      860.822
04/29/2013  10:19:00       66.908      -28.321       49.524       54.639       92.719       63.467     2985.430     8596.734     4028.003        1.167        0.781       72.655       55.694        0.588      342.534       18.010      860.814
04/29/2013  10:20:00       63.761      -35.969       17.131       45.846       47.652       35.890     2101.859     2270.721     1288.079        0.566        0.283       73.206       29.739        0.165      342.267       17.558      860.807
04/29/2013  10:21:00       44.575      -33.321       18.624       38.397       54.621       25.784     1474.338     2983.401      664.840        0.428        0.256       55.653       23.752        0.182      342.579       18.087      860.779
04/29/2013  10:22:00       23.008       32.903       52.943       40.934       43.132       32.776     1675.574     1860.393     1074.276        0.451        0.231       40.150       28.479        0.503      343.065       18.916      860.768
04/29/2013  10:23:00       95.838      -99.761        4.143       78.349       95.990       60.257     6138.518     9214.016     3630.879        1.907        0.949      138.337       62.154        0.202      342.830       18.513      860.752
04/29/2013  10:24:00       40.438       37.477       94.714       56.881       76.535       55.209     3235.440     5857.556     3048.017        1.207        0.607       55.134       49.688        0.812      342.888       18.613      860.745
04/29/2013  10:25:00       22.460       -0.943       53.723       55.106       70.606       45.749     3036.633     4985.142     2092.929        0.675        0.506       22.480       47.902        4.541      342.873       18.589      860.741
04/29/2013  10:26:00       46.034     -165.826        3.697       52.244       71.427       33.963     2729.460     5101.790     1153.519        1.931        0.449      172.097       33.031        0.037      342.340       17.679      860.724
04/29/2013  10:27:00        2.859     -115.297      -13.277       48.857       63.002       24.454     2387.022     3969.290      598.001        1.021        0.348      115.332       15.130        0.017      342.441       17.852      860.716
04/29/2013  10:28:00      -20.019       33.632       55.829       75.143       56.037       54.088     5646.496     3140.186     2925.480        0.818        0.586       39.139       47.767        1.489      343.019       18.837      860.690
04/29/2013  10:29:00      -33.808       15.006       34.085       33.986       55.830       44.940     1155.023     3117.032     2019.642        0.441        0.315       36.988       30.131        0.664      342.988       18.783      860.666
04/29/2013  10:30:00        8.888        4.664       57.802       56.572       92.110       61.365     3200.422     8484.330     3765.641        0.944        0.773       10.037       54.442       29.419      343.130       19.024      860.650
04/29/2013  10:31:00      142.503       63.042       39.413       91.284       59.353       50.140     8332.854     3522.789     2514.022        2.010        0.718      155.824       32.210        0.043      342.699       18.288      860.652
04/29/2013  10:32:00      131.653       82.812       32.520       64.790       50.912       35.112     4197.778     2592.011     1232.821        1.663        0.401      155.533       26.964        0.030      342.366       17.724      860.662
04/29/2013  10:33:00      149.783       82.518       31.570       61.065       52.738       45.214     3728.954     2781.306     2044.305        1.940        0.428      171.010       20.487        0.014      342.756       18.389      860.664
04/29/2013  10:34:00       46.245        7.058       16.408       65.548       51.988       37.031     4296.570     2702.785     1371.332        0.541        0.419       46.781       18.205        0.151      343.212       19.165      860.650
04/29/2013  10:35:00      185.005      116.760       13.501       74.640       53.674       51.108     5571.138     2880.877     2611.998        2.955        0.553      218.769       30.921        0.020      342.578       18.082      860.639
04/29/2013  10:36:00      141.134      122.150       14.781       60.255       51.871       47.007     3630.692     2690.617     2209.696        2.179        0.427      186.654       37.642        0.041      342.895       18.623      860.627
04/29/2013  10:37:00       63.465       80.513       -1.314       36.193       46.680       39.436     1309.957     2178.985     1555.182        0.778        0.252      102.519       27.122        0.070      342.736       18.354      860.620
04/29/2013  10:38:00       38.823      102.110        0.168       56.659       48.727       25.415     3210.233     2374.360      645.942        0.908        0.312      109.241       16.484        0.023      342.581       18.093      860.604
04/29/2013  10:39:00       34.131       84.220      -21.497       40.721       58.796       23.673     1658.169     3456.911      560.429        0.720        0.284       90.873       17.502        0.037      342.541       18.023      860.602
04/29/2013  10:40:00      -13.460       38.453      -22.492       41.080       30.223       23.097     1687.596      913.404      533.486        0.265        0.157       40.741       11.688        0.082      342.608       18.136      860.581
04/29/2013  10:41:00     -101.622       83.962      -27.182       38.000       29.147       17.548     1444.003      849.519      307.942        1.036        0.130      131.821       18.602        0.020      342.585       18.098      860.569
04/29/2013  10:42:00      -29.083       74.744       10.404       45.799       46.775       38.152     2097.557     2187.907     1455.581        0.614        0.287       80.203       38.608        0.232      343.402       19.491      860.576
04/29/2013  10:43:00      -10.818       72.645       25.312       27.679       68.209       36.738      766.107     4652.444     1349.653        0.640        0.338       73.446       35.905        0.239      343.833       20.225      860.563
04/29/2013  10:44:00        0.385      142.609       -3.808       20.555       69.182       34.694      422.493     4786.162     1203.646        1.338        0.321      142.609       40.889        0.082      343.255       19.238      860.579
04/29/2013  10:45:00       20.220      111.097       -0.992       33.155       45.520       34.243     1099.287     2072.042     1172.566        0.855        0.217      112.922       26.229        0.054      343.276       19.275      860.593
04/29/2013  10:46:00       -5.474       93.196        5.971       32.132       63.302       30.190     1032.495     4007.117      911.447        0.735        0.298       93.357       28.219        0.091      343.346       19.393      860.586
04/29/2013  10:47:00      -19.081      139.821       -3.806       27.954       53.359       38.904      781.441     2847.224     1513.508        1.253        0.257      141.117       35.802        0.064      343.320       19.350      860.588
04/29/2013  10:48:00       10.290       34.811       26.017       34.609       44.747       26.751     1197.757     2002.308      715.607        0.295        0.196       36.300       26.506        0.533      343.758       20.095      860.566
04/29/2013  10:49:00       32.829       33.010       13.842       47.010       32.054       32.879     2209.901     1027.443     1081.018        0.334        0.216       46.555       22.187        0.227      343.630       19.877      860.555
04/29/2013  10:50:00      -56.161       99.088      -21.831       40.410       53.739       31.856     1632.973     2887.912     1014.827        0.949        0.277      113.897       19.550        0.029      343.020       18.838      860.545
04/29/2013  10:51:00      -19.207       26.676       18.900       33.480       35.004       28.940     1120.899     1225.309      837.532        0.231        0.159       32.871       25.394        0.597      343.853       20.260      860.543
04/29/2013  10:52:00       33.552       55.801       31.460       45.730       40.764       32.103     2091.273     1661.674     1030.585        0.501        0.239       65.111       14.533        0.050      343.680       19.963      860.537
04/29/2013  10:53:00      -10.286       38.436        4.058       53.166       41.525       29.482     2826.633     1724.348      869.192        0.351        0.271       39.788       24.326        0.374      343.452       19.575      860.535
04/29/2013  10:54:00       56.066       68.912       -6.148       41.414       43.602       29.089     1715.146     1901.154      846.176        0.620        0.223       88.838       28.902        0.106      343.488       19.635      860.517
04/29/2013  10:55:00       22.866       62.835        6.883       62.960       30.609       33.238     3963.986      936.905     1104.739        0.526        0.300       66.867       21.088        0.099      343.491       19.641      860.499
04/29/2013  10:56:00       55.598       67.479       16.108       61.392       46.651       38.915     3769.002     2176.353     1514.407        0.768        0.373       87.433       24.005        0.075      343.643       19.899      860.488
04/29/2013  10:57:00      -37.576       74.963       13.123       41.703       69.373       35.475     1739.153     4812.659     1258.463        0.751        0.391       83.853       35.892        0.183      343.574       19.783      860.492
04/29/2013  10:58:00      -85.498      121.557      -12.494       52.444       50.933       34.937     2750.371     2594.211     1220.567        1.440        0.328      148.614       27.999        0.035      343.318       19.346      860.488
04/29/2013  10:59:00      -76.831       65.011      -12.594       52.008       36.859       32.385     2704.832     1358.569     1048.759        0.770        0.256      100.645       26.549        0.070      343.332       19.371      860.494
04/29/2013  11:00:00       46.019       34.937       22.638       25.022       21.017       32.370      626.101      441.710     1047.845        0.298        0.106       57.779       17.772        0.095      343.635       19.887      860.470
04/29/2013  11:01:00       70.324       43.804       13.749       23.594       20.858       25.365      556.685      435.051      643.371        0.434        0.082       82.851       13.331        0.026      343.153       19.064      860.469
04/29/2013  11:02:00       53.379       -4.062       15.723       52.257       49.033       33.366     2730.796     2404.269     1113.297        0.468        0.312       53.534       24.040        0.202      343.021       18.841      860.458
04/29/2013  11:03:00       82.071       55.606       15.973       23.629       18.190       30.194      558.350      330.892      911.701        0.594        0.090       99.135       16.157        0.027      343.144       19.049      860.448
04/29/2013  11:04:00       40.160       55.032       -3.882       24.906       20.578       37.292      620.310      423.439     1390.713        0.354        0.122       68.128       19.415        0.081      343.147       19.053      860.434
04/29/2013  11:05:00       75.272       16.316      -17.280       18.977       50.307       20.443      360.133     2530.833      417.922        0.477        0.165       77.020       19.785        0.066      342.863       18.571      860.409
04/29/2013  11:06:00        1.640       -5.701       17.367       22.633       38.884       32.559      512.249     1511.980     1060.099        0.171        0.154        5.932       30.958       27.238      343.745       20.076      860.383
04/29/2013  11:07:00       28.600       44.634        5.852       39.355       54.174       32.816     1548.823     2934.772     1076.890        0.420        0.278       53.011       26.919        0.258      343.685       19.972      860.358
04/29/2013  11:08:00      132.258       80.132        2.189       57.168       43.952       40.399     3268.154     1931.778     1632.062        1.537        0.342      154.640       18.281        0.014      343.270       19.264      860.342
04/29/2013  11:09:00      110.037       63.412       17.709       52.641       40.824       42.877     2771.061     1666.626     1838.427        1.136        0.314      127.001       23.222        0.033      343.582       19.795      860.332
04/29/2013  11:10:00       64.383       75.023       21.575       31.946       38.248       45.641     1020.520     1462.937     2083.100        0.740        0.228       98.862       30.358        0.094      343.631       19.879      860.330
04/29/2013  11:11:00       80.419       76.034       -5.468       20.667       26.841       34.652      427.129      720.448     1200.778        0.731        0.117      110.672       17.178        0.024      343.243       19.217      860.334
04/29/2013  11:12:00       72.120       60.909       -5.684       13.795       20.242       23.642      190.314      409.743      558.933        0.505        0.058       94.399       15.734        0.028      343.109       18.986      860.318
04/29/2013  11:13:00       10.368       43.360        6.933       26.661       26.450       30.662      710.833      699.619      940.154        0.219        0.118       44.583       21.096        0.224      343.527       19.702      860.308
04/29/2013  11:14:00       -5.289        9.655       39.343       19.783       15.624       13.452      391.361      244.105      180.951        0.124        0.041       11.008       10.420        0.896      344.324       21.063      860.290
04/29/2013  11:15:00       -3.633       -4.446       31.175       27.434       23.452       16.175      752.599      549.992      261.630        0.128        0.078        5.742       16.929        8.693      344.391       21.177      860.277
04/29/2013  11:16:00       62.322      -68.430      -32.597       27.184       21.610       21.282      738.945      466.989      452.906        0.564        0.083       92.557       14.504        0.025      343.039       18.870      860.258
04/29/2013  11:17:00       15.841      -73.075      -15.655       50.279       53.570       24.325     2527.979     2869.765      591.715        0.591        0.299       74.772       26.479        0.125      343.231       19.197      860.229
04/29/2013  11:18:00      -17.649      -57.944       18.977       31.221       27.474       23.896      974.725      754.804      571.027        0.316        0.115       60.573       15.477        0.065      343.327       19.361      860.214
04/29/2013  11:19:00      -13.791      -72.930        0.504       11.850       18.437       16.019      140.416      339.937      256.618        0.312        0.037       74.222        5.763        0.006      343.183       19.115      860.192
04/29/2013  11:20:00       27.925      -34.045       12.568       20.675       20.644       22.809      427.445      426.181      520.245        0.174        0.069       44.032       14.758        0.112      343.637       19.889      860.165
04/29/2013  11:21:00       -8.868      -27.140      -25.619       32.650       22.756       20.186     1066.050      517.822      407.493        0.173        0.100       28.552       19.010        0.443      343.394       19.475      860.133
04/29/2013  11:22:00      -19.580        3.710       19.801       48.433       30.194       26.833     2345.764      911.707      720.026        0.238        0.199       19.928       20.079        1.015      343.822       20.206      860.106
04/29/2013  11:23:00      -44.146       -0.135      -13.839       19.013       15.253        8.657      361.485      232.640       74.947        0.140        0.033       44.146        3.392        0.006      343.355       19.408      860.088
04/29/2013  11:24:00       57.183       67.808       35.291       66.057       42.868       45.457     4363.530     1837.635     2066.332        0.869        0.413       88.700       23.129        0.068      343.904       20.344      860.071
04/29/2013  11:25:00      -23.013       24.447       -4.944       40.854       37.979       32.515     1669.076     1442.429     1057.222        0.266        0.208       33.575       26.818        0.638      343.889       20.320      860.045
04/29/2013  11:26:00       24.375       64.506       24.806       43.276       59.868       40.086     1872.834     3584.192     1606.918        0.622        0.353       68.958       36.168        0.275      344.378       21.153      860.019
04/29/2013  11:27:00       19.134       94.535      126.698       59.602       90.112       62.765     3552.347     8120.162     3939.467        2.048        0.781       96.452       69.032        0.512      344.205       20.858      859.987
04/29/2013  11:28:00      176.735      121.271       63.568       86.736       62.913       72.067     7523.190     3958.074     5193.601        3.333        0.834      214.341       62.513        0.085      343.364       19.419      859.996
04/29/2013  11:29:00       55.364       78.784        5.585       53.256       37.924       36.563     2836.232     1438.266     1336.879        0.746        0.281       96.291       21.937        0.052      343.662       19.933      859.995
04/29/2013  11:30:00      -31.213       47.463       15.106       28.148       33.814       30.429      792.320     1143.392      925.942        0.316        0.143       56.806       22.566        0.158      344.327       21.068      859.972
04/29/2013  11:31:00      -50.749       -3.066        7.713       23.671       15.467       21.179      560.323      239.243      448.534        0.195        0.062       50.841       17.160        0.114      344.137       20.744      859.948
04/29/2013  11:32:00        7.910      -28.259       18.908       21.839       37.949       22.705      476.953     1440.126      515.510        0.183        0.122       29.346       12.481        0.181      344.617       21.564      859.913
04/29/2013  11:33:00        9.009       30.622       68.589       38.568       70.040       58.502     1487.458     4905.602     3422.542        0.777        0.491       31.919       51.785        2.632      343.947       20.418      859.884
04/29/2013  11:34:00       41.389     -136.326       11.844       80.603       81.004       53.564     6496.866     6561.679     2869.103        1.818        0.796      142.471       44.973        0.100      344.046       20.586      859.861
04/29/2013  11:35:00       32.072     -134.030       -4.398       47.122       59.647       34.546     2220.461     3557.810     1193.408        1.299        0.349      137.814       23.325        0.029      343.795       20.158      859.855
04/29/2013  11:36:00       57.539      -42.634       22.294       38.072       52.070       41.873     1449.502     2711.318     1753.349        0.577        0.296       71.613       26.921        0.141      344.205       20.861      859.856
04/29/2013  11:37:00      -25.780       15.573       12.332       38.847       21.818       23.317     1509.089      476.008      543.663        0.179        0.126       30.118       21.220        0.496      344.370       21.143      859.840
04/29/2013  11:38:00       -3.987      -34.276        0.711       40.132       44.281       45.986     1610.579     1960.830     2114.743        0.344        0.284       34.507       19.950        0.334      344.082       20.650      859.821
04/29/2013  11:39:00      104.996     -113.023       -4.260       64.559       81.785       42.583     4167.845     6688.832     1813.295        1.824        0.633      154.267       45.063        0.085      343.952       20.424      859.803
04/29/2013  11:40:00       68.850       -9.319       43.795       44.490       44.787       33.584     1979.335     2005.837     1127.891        0.593        0.256       69.477       20.631        0.088      344.186       20.827      859.803
04/29/2013  11:41:00       26.630       39.382        5.173       44.471       45.563       36.796     1977.693     2075.955     1353.938        0.385        0.270       47.541       23.192        0.238      343.909       20.354      859.780
04/29/2013  11:42:00       -7.155       37.211      -13.857       22.125       45.593       30.371      489.520     2078.701      922.425        0.256        0.175       37.893       29.377        0.601      343.839       20.233      859.756
04/29/2013  11:43:00      -74.839       80.425      -19.462       42.151       35.383       26.499     1776.725     1251.936      702.180        0.809        0.187      109.859       27.374        0.062      343.870       20.286      859.742
04/29/2013  11:44:00     -126.286       88.887      -21.431       65.861       32.736       32.399     4337.715     1071.628     1049.684        1.538        0.323      154.431       32.822        0.045      343.908       20.350      859.736
04/29/2013  11:45:00     -102.781       67.328      -13.037       56.930       39.849       36.079     3240.999     1587.937     1301.709        1.070        0.307      122.870       42.183        0.118      344.105       20.689      859.716
04/29/2013  11:46:00      -41.616       -7.939       23.723       45.811       57.800       29.896     2098.689     3340.895      893.768        0.434        0.317       42.366       21.634        0.261      344.729       21.754      859.701
04/29/2013  11:47:00     -101.452        1.576       -7.530       64.540       37.014       27.457     4165.410     1370.048      753.910        0.832        0.314      101.464       32.576        0.103      344.248       20.931      859.699
04/29/2013  11:48:00      -58.987       46.314       -1.401       41.107       41.011       35.348     1689.814     1681.876     1249.458        0.512        0.231       74.996       19.804        0.070      344.510       21.382      859.697
04/29/2013  11:49:00       13.778       83.943       16.373       32.476       50.380       46.030     1054.709     2538.190     2118.800        0.661        0.286       85.066       34.606        0.165      344.681       21.672      859.692
04/29/2013  11:50:00      -47.936       37.803       29.436       40.910       38.856       31.247     1673.667     1509.771      976.359        0.438        0.208       61.048       28.554        0.219      344.620       21.568      859.662
04/29/2013  11:51:00      -28.088       79.784       -3.399       76.360       47.750       39.891     5830.873     2280.098     1591.294        0.843        0.485       84.584       38.030        0.202      344.354       21.117      859.655
04/29/2013  11:52:00       69.439       60.951       -6.785       33.301       35.447       31.715     1108.942     1256.456     1005.872        0.598        0.169       92.394       18.782        0.041      344.148       20.762      859.644
04/29/2013  11:53:00        0.774      172.184      -18.723       45.794       83.437       34.247     2097.053     6961.782     1172.873        2.011        0.512      172.186       37.279        0.047      344.511       21.379      859.622
04/29/2013  11:54:00      -44.673      148.732      -32.309       36.883       51.708       32.765     1360.376     2673.692     1073.519        1.513        0.255      155.296       13.809        0.008      343.972       20.461      859.635
04/29/2013  11:55:00       67.221       65.722        4.893       56.735       36.837       34.419     3218.831     1356.966     1184.663        0.731        0.288       94.011       25.894        0.076      344.340       21.090      859.605
04/29/2013  11:56:00       -5.841       21.453       -1.524       24.784       31.770       21.462      614.253     1009.310      460.632        0.129        0.104       22.234       21.528        0.937      344.655       21.628      859.580
04/29/2013  11:57:00      -61.907        7.524      -20.123       29.327       52.145       30.668      860.067     2719.149      940.515        0.441        0.226       62.362       23.801        0.146      344.266       20.962      859.555
04/29/2013  11:58:00      -21.985      -39.018       12.679       66.606       42.475       33.109     4436.295     1804.162     1096.177        0.475        0.367       44.785       38.983        0.758      344.664       21.645      859.538
04/29/2013  11:59:00      -71.542      -52.924        7.438       65.087       40.628       34.692     4236.302     1650.595     1203.551        0.753        0.355       88.990       30.114        0.115      344.690       21.688      859.510
04/29/2013  12:00:00       -0.116      -18.143       31.699       38.106       41.225       31.988     1452.102     1699.473     1023.208        0.275        0.209       18.143       25.847        2.029      345.073       22.344      859.489
04/29/2013  12:01:00      -45.923      -40.048        5.652       41.853       52.346       23.184     1751.678     2740.140      537.485        0.439        0.251       60.932       20.899        0.118      344.635       21.593      859.462
04/29/2013  12:02:00       89.248       83.587       37.374       85.140       70.010       56.902     7248.807     4901.442     3237.820        1.587        0.769      122.278       22.730        0.035      344.748       21.785      859.433
04/29/2013  12:03:00      113.763       86.060       21.265       77.204       56.146       45.842     5960.466     3152.328     2101.524        1.601        0.561      142.647       30.001        0.044      344.354       21.113      859.401
04/29/2013  12:04:00       30.135       67.611       31.254       87.210       55.281       49.640     7605.665     3055.977     2464.166        0.979        0.656       74.023       41.557        0.315      345.012       22.238      859.367
04/29/2013  12:05:00       71.842       89.033       -3.476       59.671       43.256       48.299     3560.681     1871.043     2332.784        1.043        0.388      114.403       26.812        0.055      344.216       20.877      859.345
04/29/2013  12:06:00       -3.457       99.544      -11.472       38.731       79.040       27.060     1500.068     6247.260      732.233        0.926        0.424       99.604       18.551        0.035      344.467       21.306      859.321
04/29/2013  12:07:00      -42.465       83.440      -27.929       46.434       64.040       24.657     2156.125     4101.166      607.969        0.820        0.343       93.624        7.158        0.006      344.289       21.004      859.319
04/29/2013  12:08:00      -34.395       -5.240       13.404       31.527       42.333       33.320      993.944     1792.084     1110.238        0.264        0.195       34.792       22.273        0.410      344.822       21.914      859.292
04/29/2013  12:09:00      -44.491       32.074       -5.532       34.419       48.185       23.836     1184.648     2321.838      568.142        0.356        0.204       54.847       24.078        0.193      344.528       21.412      859.287
04/29/2013  12:10:00      -42.205       36.445        1.809       37.639       31.462       28.381     1416.692      989.859      805.466        0.316        0.161       55.763       28.102        0.254      344.968       22.165      859.275
04/29/2013  12:11:00      -42.854       30.522        3.992       56.888       31.836       29.948     3236.270     1013.510      896.872        0.396        0.257       52.612       29.087        0.306      345.164       22.500      859.257
04/29/2013  12:12:00     -114.784      -74.609      -14.941       52.748       51.254       33.060     2782.331     2626.987     1092.938        1.273        0.325      136.901       25.904        0.036      344.499       21.360      859.245
04/29/2013  12:13:00      -69.231      -52.740       15.185       54.666       64.544       47.331     2988.323     4165.899     2240.256        0.860        0.470       87.032       33.486        0.148      344.412       21.213      859.224
04/29/2013  12:14:00        8.032      -48.539      -11.256       66.880       47.189       40.574     4472.985     2226.835     1646.244        0.544        0.417       49.199       36.627        0.554      344.504       21.370      859.218
04/29/2013  12:15:00      -69.410        4.200        1.804       58.917       36.207       27.764     3471.172     1310.922      770.832        0.519        0.278       69.537       17.644        0.064      344.770       21.823      859.191
04/29/2013  12:16:00      -14.982       19.191      -13.576       45.089       21.145       27.345     2033.004      447.095      747.724        0.200        0.161       24.347       26.214        1.159      344.565       21.475      859.182
04/29/2013  12:17:00       13.080      -94.807       -6.728       70.316      102.371       47.208     4944.390    10479.914     2228.561        1.343        0.883       95.705       30.492        0.102      344.819       21.908      859.136
04/29/2013  12:18:00       74.867     -102.494       19.499       63.055       79.342       40.996     3975.948     6295.123     1680.657        1.422        0.598      126.925       43.406        0.117      344.696       21.697      859.120
04/29/2013  12:19:00       65.758       23.065       51.585       63.544       69.336       37.526     4037.853     4807.528     1408.188        0.888        0.513       69.686       25.567        0.135      344.940       22.115      859.098
04/29/2013  12:20:00       67.310      153.221      164.078       85.111       95.411       68.483     7243.936     9103.248     4689.952        3.798        1.052      167.354       61.478        0.135      344.469       21.307      859.073
04/29/2013  12:21:00       78.560        0.634       94.004       84.545      193.179       92.169     7147.915    37318.096     8495.054        3.397        2.648       78.563      123.471        2.470      344.643       21.603      859.041
04/29/2013  12:22:00       93.860     -150.906        1.387       58.576       73.468       49.589     3431.147     5397.479     2459.039        2.143        0.564      177.714       41.957        0.056      344.829       21.925      859.019
04/29/2013  12:23:00       37.278      -63.579       24.861       56.247       84.822       41.774     3163.767     7194.687     1745.039        0.907        0.605       73.701       34.220        0.216      345.252       22.649      859.015
04/29/2013  12:24:00       51.983       24.800       69.992       88.836       89.684       61.765     7891.765     8043.216     3814.934        1.398        0.987       57.596       50.677        0.774      345.338       22.798      858.986
04/29/2013  12:25:00       98.870       75.677       74.460       90.189      128.937       95.203     8133.971    16624.811     9063.681        2.743        1.691      124.508       80.339        0.416      344.688       21.682      859.003
04/29/2013  12:26:00      126.250       29.913      108.288      132.470      173.265      103.730    17548.302    30020.779    10760.012        4.343        2.916      129.746      124.754        0.925      344.865       21.985      858.967
04/29/2013  12:27:00      179.556     -174.044       16.635      134.946      151.602       89.517    18210.506    22983.121     8013.265        5.600        2.460      250.064      101.339        0.164      345.093       22.374      858.933
04/29/2013  12:28:00      133.664     -128.816        2.912       93.108      132.950       71.097     8669.063    17675.586     5054.732        3.293        1.570      185.633       74.461        0.161      345.108       22.402      858.925
04/29/2013  12:29:00      163.539     -142.067      -26.247       82.531      100.538       69.461     6811.405    10107.938     4824.812        3.468        1.087      216.629       75.782        0.122      344.894       22.034      858.921
04/29/2013  12:30:00       55.125       11.017       55.586       68.184       57.984       50.912     4649.056     3362.186     2592.056        0.842        0.530       56.215       45.967        0.669      345.054       22.311      858.918
04/29/2013  12:31:00        7.680       -6.110       29.507       49.268       69.948       38.066     2427.377     4892.671     1449.055        0.487        0.438        9.814       24.754        6.362      345.041       22.290      858.905
04/29/2013  12:32:00       -5.401       28.363       46.510       23.623       43.134       28.332      558.053     1860.544      802.718        0.311        0.161       28.872       27.096        0.881      345.395       22.896      858.872
04/29/2013  12:33:00       32.273      -75.327       34.805       59.384       85.641       63.310     3526.424     7334.300     4008.136        1.140        0.743       81.950       55.991        0.467      345.139       22.456      858.841
04/29/2013  12:34:00       36.797      -10.215       64.749       52.790       85.025       43.828     2786.836     7229.173     1920.855        0.879        0.597       38.188       37.583        0.969      345.127       22.435      858.834
04/29/2013  12:35:00       53.248       41.807       39.874       57.716       64.497       48.853     3331.108     4159.853     2386.658        0.802        0.494       67.699       31.483        0.216      345.312       22.753      858.817
04/29/2013  12:36:00       46.273       61.556       80.843       76.366       68.078       56.408     5831.816     4634.630     3181.903        1.305        0.682       77.008       48.182        0.391      345.804       23.596      858.786
04/29/2013  12:37:00       89.898       61.275       69.189      104.005       79.375       64.179    10817.028     6300.403     4118.973        1.893        1.062      108.795       61.933        0.324      345.336       22.792      858.767
04/29/2013  12:38:00       89.425       56.976       18.360       49.584       37.985       37.866     2458.616     1442.875     1433.801        0.846        0.267      106.033       29.419        0.077      345.230       22.613      858.761
04/29/2013  12:39:00       83.575      120.061        1.258       70.839       80.197       54.877     5018.226     6431.602     3011.479        1.793        0.723      146.285       53.744        0.135      345.647       23.326      858.764
04/29/2013  12:40:00      136.852       82.361        4.335       94.375       64.619       55.331     8906.714     4175.558     3061.539        2.083        0.807      159.725       28.005        0.031      345.387       22.879      858.742
04/29/2013  12:41:00      138.144      129.955        2.276       77.622       72.039       52.355     6025.153     5189.630     2741.091        2.496        0.698      189.663       39.607        0.044      345.455       22.995      858.765
04/29/2013  12:42:00       19.303      222.925      -14.049       53.543      125.788       60.598     2866.877    15822.670     3672.087        3.631        1.118      223.759       63.508        0.081      345.383       22.872      858.761
04/29/2013  12:43:00        7.944       71.785        0.318       49.879       70.800       32.774     2487.873     5012.674     1074.120        0.689        0.429       72.223       36.147        0.250      345.415       22.929      858.718
04/29/2013  12:44:00       21.794       38.375       33.176       43.662       47.064       39.710     1906.332     2215.007     1576.892        0.437        0.285       44.132       31.491        0.509      345.942       23.833      858.660
04/29/2013  12:45:00       43.438       55.642        1.035       62.999       92.176       41.790     3968.888     8496.327     1746.443        0.959        0.711       70.589       36.475        0.267      345.731       23.470      858.632
04/29/2013  12:46:00      -83.249      -11.963      -13.084       91.155       43.458       28.506     8309.235     1888.592      812.604        0.913        0.551       84.104       17.784        0.045      345.629       23.296      858.606
04/29/2013  12:47:00      -98.559      154.355      -23.159       78.968      113.657       51.714     6235.866    12917.940     2674.334        2.795        1.091      183.138       62.504        0.116      345.485       23.049      858.613
04/29/2013  12:48:00       -0.469       55.600       15.471       52.445       49.316       27.713     2750.506     2432.027      767.984        0.464        0.298       55.602       24.286        0.191      345.733       23.474      858.608
04/29/2013  12:49:00      109.636      126.353       18.752       96.994       70.453       57.590     9407.787     4963.668     3316.605        2.301        0.884      167.288       49.014        0.086      345.426       22.945      858.595
04/29/2013  12:50:00       50.037       88.628       11.851       46.071       71.300       41.332     2122.569     5083.728     1708.305        0.971        0.446      101.777       44.231        0.189      345.656       23.342      858.599
04/29/2013  12:51:00      -41.160       83.199       -8.417       57.916       32.838       37.099     3354.254     1078.354     1376.299        0.725        0.290       92.823       27.703        0.089      345.819       23.621      858.609
04/29/2013  12:52:00      -57.865       85.559       -5.576       67.594      104.651       46.223     4568.997    10951.765     2136.610        1.418        0.883      103.290       34.872        0.114      345.783       23.561      858.620
04/29/2013  12:53:00      -59.628       39.129        9.939       65.733       70.056       51.881     4320.800     4907.896     2691.620        0.855        0.596       71.320       34.076        0.228      345.996       23.926      858.595
04/29/2013  12:54:00     -205.561       35.311      -24.353      124.799      119.287       61.401    15574.725    14229.362     3770.034        3.883        1.679      208.572       56.084        0.072      345.564       23.183      858.609
04/29/2013  12:55:00     -152.702      149.656      -15.221       94.800       82.702       54.262     8987.117     6839.676     2944.382        3.236        0.939      213.811       37.803        0.031      345.578       23.206      858.610
04/29/2013  12:56:00     -139.854      218.284      -23.056       72.080      125.427       56.479     5195.573    15732.055     3189.854        4.592        1.206      259.244       61.682        0.057      345.549       23.156      858.600
04/29/2013  12:57:00      -76.880      103.972        8.803       91.950       91.478       46.321     8454.745     8368.250     2145.663        1.788        0.948      129.309       54.903        0.180      345.729       23.468      858.587
04/29/2013  12:58:00        7.043       26.659       28.197       23.470       33.959       25.820      550.823     1153.222      666.659        0.196        0.119       27.574       19.080        0.479      346.100       24.105      858.549
04/29/2013  12:59:00       13.268       58.691       -9.649       42.032       20.888       31.898     1766.650      436.321     1017.476        0.347        0.161       60.172       24.511        0.166      345.598       23.243      858.505
04/29/2013  13:00:00       31.247      175.461       -8.328       75.363      157.967       50.796     5679.631    24953.561     2580.254        3.252        1.661      178.221       65.686        0.136      345.743       23.490      858.480
04/29/2013  13:01:00       18.284      279.045      -26.217       61.026      110.132       53.308     3724.118    12129.029     2841.704        4.879        0.935      279.644       57.733        0.043      345.327       22.775      858.462
04/29/2013  13:02:00     -152.200      164.339      -37.068       82.522      100.727       37.234     6809.894    10145.955     1386.401        3.494        0.917      223.991       40.072        0.032      345.538       23.137      858.460
04/29/2013  13:03:00      -38.570       58.539      -22.380       28.322       64.684       24.063      802.114     4184.015      579.024        0.549        0.278       70.103       22.337        0.102      345.697       23.412      858.441
04/29/2013  13:04:00      -26.674      171.433       -4.211       40.057       88.533       48.395     1604.584     7838.046     2342.067        2.095        0.589      173.496       47.117        0.074      345.859       23.689      858.415
04/29/2013  13:05:00      -57.937      175.015       14.150       74.096      125.574       66.575     5490.171    15768.954     4432.295        2.993        1.285      184.355       65.722        0.127      346.098       24.099      858.393
04/29/2013  13:06:00     -158.963      140.584      -30.723       92.650      108.229       51.742     8584.049    11713.571     2677.229        3.447        1.149      212.210       48.174        0.052      345.853       23.678      858.396
04/29/2013  13:07:00     -125.132      144.344      -32.242       80.986       88.350       44.255     6558.813     7805.772     1958.533        2.692        0.816      191.033       34.688        0.033      345.635       23.303      858.391
04/29/2013  13:08:00      -40.933       89.348       -5.141       64.160       72.177       45.074     4116.460     5209.483     2031.623        1.052        0.568       98.278       35.303        0.129      345.837       23.653      858.344
04/29/2013  13:09:00     -203.583       83.452      -40.049      123.038       90.404       49.774    15138.422     8172.866     2477.406        3.790        1.289      220.024       47.916        0.047      345.568       23.188      858.324
04/29/2013  13:10:00      -41.386       38.926        0.281       37.922       64.378       31.330     1438.113     4144.585      981.579        0.489        0.328       56.816       25.007        0.194      346.168       24.223      858.281
04/29/2013  13:11:00     -206.134      -33.825      -22.403      110.652       91.865       38.973    12243.864     8439.086     1518.902        3.317        1.110      208.891       28.496        0.019      345.934       23.818      858.226
04/29/2013  13:12:00     -156.683      235.214      -46.800       61.321      186.233       49.792     3760.315    34682.797     2479.229        6.149        2.046      282.622       31.479        0.012      345.938       23.823      858.197
04/29/2013  13:13:00     -120.548      275.619      -38.920       89.918       96.671       58.688     8085.336     9345.218     3444.298        5.644        1.044      300.828       52.397        0.030      345.815       23.611      858.213
04/29/2013  13:14:00      -67.774       84.574      -16.551       84.642       88.732       42.466     7164.204     7873.353     1803.395        1.443        0.842      108.380       51.944        0.230      345.733       23.474      858.188
04/29/2013  13:15:00       31.687      171.542      -20.673       77.123       89.766       54.602     5947.884     8058.023     2981.373        2.392        0.849      174.444       54.524        0.098      345.963       23.867      858.142
04/29/2013  13:16:00       63.071      199.496      -26.496       86.155      109.131       39.790     7422.734    11909.500     1583.259        3.269        1.046      209.229       47.337        0.051      345.576       23.203      858.140
04/29/2013  13:17:00      -33.468      337.514      -34.606       79.032      171.216       48.618     6246.073    29314.994     2363.666        7.707        1.896      339.170       70.344        0.043      345.795       23.579      858.106
04/29/2013  13:18:00       19.258      280.832      -32.491       88.384       69.113       54.502     7811.797     4776.574     2970.452        4.792        0.778      281.491       44.408        0.025      346.142       24.173      858.103
04/29/2013  13:19:00      -13.340      105.734       12.071       72.785       83.072       48.932     5297.639     6900.978     2394.377        1.305        0.730      106.572       45.647        0.183      346.437       24.683      858.080
04/29/2013  13:20:00      114.316       69.731       18.790       65.009       44.367       49.647     4226.159     1968.455     2464.863        1.347        0.433      133.905       38.319        0.082      346.253       24.366      858.054
04/29/2013  13:21:00       61.386      107.451        7.866       70.035      105.181       60.253     4904.874    11062.970     3630.447        1.748        0.980      123.750       64.877        0.275      346.111       24.122      858.021
04/29/2013  13:22:00       43.866      149.560       -6.334       83.288      120.034       46.322     6936.871    14408.227     2145.768        2.391        1.175      155.860       61.833        0.157      346.167       24.217      858.016
04/29/2013  13:23:00        6.617      137.634        4.654       51.446       79.489       47.362     2646.690     6318.559     2243.161        1.511        0.560      137.793       44.088        0.102      346.203       24.281      857.997
04/29/2013  13:24:00      -21.550      221.474      -17.274       61.474       82.465       50.327     3779.024     6800.416     2532.791        3.146        0.656      222.520       44.050        0.039      346.318       24.475      857.981
04/29/2013  13:25:00      -29.406      212.474      -31.193       73.731       76.836       33.217     5436.326     5903.824     1103.341        2.971        0.622      214.500       31.706        0.022      345.678       23.376      857.986
04/29/2013  13:26:00     -103.641       59.582      -23.527       81.391       70.969       40.241     6624.488     5036.656     1619.322        1.406        0.664      119.547       41.036        0.118      345.916       23.788      857.973
04/29/2013  13:27:00       55.140       34.846       52.108       67.108       58.298       42.264     4503.431     3398.658     1786.288        0.833        0.484       65.227        9.107        0.019      346.397       24.616      857.955
04/29/2013  13:28:00       73.322      127.690       26.903       49.234      112.940       72.445     2424.016    12755.487     5248.316        2.141        1.021      147.244       74.565        0.256      346.072       24.055      857.923
04/29/2013  13:29:00        7.217      133.578       -3.643       86.382       68.862       60.942     7461.864     4742.029     3713.888        1.691        0.796      133.773       60.496        0.205      346.370       24.568      857.940
04/29/2013  13:30:00      -84.294      159.242      -13.941      109.402      136.774       57.180    11968.826    18707.080     3269.564        3.330        1.697      180.177       58.120        0.104      346.022       23.968      857.937
04/29/2013  13:31:00     -127.035      221.763      -40.627       87.958      119.588       49.038     7736.604    14301.404     2404.768        4.570        1.222      255.571       53.720        0.044      346.073       24.055      857.914
04/29/2013  13:32:00      -63.530      173.407      -23.401       79.320      105.453       52.125     6291.616    11120.356     2716.974        2.739        1.006      184.678       60.084        0.106      345.978       23.893      857.903
04/29/2013  13:33:00      -48.904      189.197      -20.886       69.077      123.881       50.557     4771.659    15346.409     2556.021        3.064        1.134      195.415       57.959        0.088      345.907       23.770      857.878
04/29/2013  13:34:00       13.481       75.787        9.350       45.572       63.720       41.601     2076.821     4060.213     1730.616        0.694        0.393       76.977       43.633        0.321      345.976       23.893      857.839
04/29/2013  13:35:00       27.965      128.089       -0.573       62.082       61.319       43.221     3854.214     3760.046     1868.049        1.333        0.474      131.107       35.339        0.073      346.172       24.229      857.815
04/29/2013  13:36:00       36.020      130.187      -11.673      111.691       87.719       61.663    12474.929     7694.541     3802.280        2.117        1.199      135.078       54.950        0.165      346.264       24.384      857.786
04/29/2013  13:37:00      -49.787      175.054       -5.370       86.186      124.351       55.499     7428.025    15463.131     3080.188        2.956        1.299      181.996       55.897        0.094      346.491       24.774      857.757
04/29/2013  13:38:00      -80.571      236.036      -13.180       60.882      115.870       57.372     3706.573    13425.907     3291.525        4.140        1.021      249.408       55.735        0.050      346.167       24.216      857.745
04/29/2013  13:39:00      -58.579      117.322       -7.027       73.986       73.097       44.617     5473.947     5343.192     1990.697        1.502        0.640      131.133       42.597        0.106      346.602       24.967      857.710
04/29/2013  13:40:00       58.522       67.121        2.147       60.928       50.323       46.252     3712.226     2532.390     2139.288        0.816        0.419       89.051       24.401        0.075      346.976       25.613      857.689
04/29/2013  13:41:00       29.923      187.729      -19.628       70.011       70.753       48.310     4901.595     5006.036     2333.877        2.438        0.612      190.098       39.417        0.043      346.377       24.578      857.658
04/29/2013  13:42:00       49.025      133.678       14.360       86.984      110.434       78.555     7566.222    12195.665     6170.880        2.320        1.297      142.384       76.351        0.288      346.335       24.506      857.630
04/29/2013  13:43:00      -74.082      511.698      -66.581       95.606      174.978       54.235     9140.496    30617.420     2941.444       15.722        2.135      517.033       68.529        0.018      345.963       23.866      857.663
04/29/2013  13:44:00     -124.009      218.868        3.650       85.127      144.900       78.980     7246.569    20996.137     6237.820        4.888        1.724      251.558       75.670        0.090      346.327       24.491      857.654
04/29/2013  13:45:00      -41.911      242.590      -24.109       51.581      143.074       57.670     2660.566    20470.230     3325.797        4.382        1.323      246.184       64.660        0.069      346.297       24.442      857.616
04/29/2013  13:46:00      -22.423      355.978      -42.257       63.565      111.069       45.607     4040.474    12336.269     2080.040        7.373        0.923      356.684       45.681        0.016      346.175       24.230      857.620
04/29/2013  13:47:00      -40.125      271.552      -22.247       83.288      161.325       59.577     6936.886    26025.800     3549.444        5.617        1.826      274.501       78.759        0.082      346.339       24.513      857.599
04/29/2013  13:48:00     -135.775      408.327      -53.769      157.376      142.267       72.116    24767.136    20239.818     5200.750       11.912        2.510      430.309       54.102        0.016      346.145       24.179      857.595
04/29/2013  13:49:00       25.913      379.959      -45.241       88.649      165.526       86.443     7858.715    27398.983     7472.332        9.490        2.137      380.842       98.446        0.067      346.136       24.162      857.616
04/29/2013  13:50:00       26.164      244.596      -17.386      103.733      118.760       69.715    10760.515    14103.926     4860.150        4.526        1.486      245.991       69.003        0.079      346.051       24.018      857.640
04/29/2013  13:51:00       -2.252      252.021      -24.700       88.875      119.431       60.519     7898.711    14263.707     3662.583        4.497        1.291      252.031       52.162        0.043      346.284       24.417      857.638
04/29/2013  13:52:00        9.741      266.466      -28.567       49.042       76.533       38.402     2405.133     5857.320     1474.718        4.082        0.487      266.644       37.498        0.020      345.980       23.895      857.625
04/29/2013  13:53:00      -15.782      139.069        0.618      102.845       78.378       46.360    10577.114     6143.075     2149.277        1.923        0.943      139.961       54.293        0.150      346.362       24.553      857.580
04/29/2013  13:54:00     -110.550      284.267      -38.482       74.575      119.486       50.440     5561.501    14276.943     2544.243        5.844        1.119      305.007       43.437        0.020      346.438       24.682      857.549
04/29/2013  13:55:00      -42.403      258.523      -21.519       79.799      130.682       58.719     6367.875    17077.822     3447.968        4.799        1.345      261.977       70.977        0.073      346.419       24.651      857.550
04/29/2013  13:56:00       56.024      280.906      -23.734       94.121      159.766       92.636     8858.830    25525.263     8581.376        6.278        2.148      286.438       94.169        0.108      346.357       24.543      857.534
04/29/2013  13:57:00        6.059      288.532      -28.819      109.830      130.192       61.969    12062.654    16949.970     3840.191        5.848        1.643      288.595       67.298        0.054      346.267       24.389      857.539
04/29/2013  13:58:00      -74.734      143.833       -6.229       96.952      115.376       54.197     9399.600    13311.725     2937.299        2.598        1.282      162.089       56.040        0.120      346.481       24.757      857.543
04/29/2013  13:59:00      -93.516       29.782       -6.690       70.003       66.088       33.489     4900.384     4367.596     1121.495        1.003        0.519       98.144       28.949        0.087      346.110       24.121      857.508
04/29/2013  14:00:00       23.989      -36.369        3.655       62.390       35.941       38.389     3892.460     1291.760     1473.739        0.428        0.333       43.568       20.198        0.215      346.203       24.283      857.446
04/29/2013  14:01:00       48.154       13.512       17.561       64.888       52.232       34.289     4210.476     2728.149     1175.704        0.546        0.406       50.014       30.354        0.368      346.349       24.533      857.436
04/29/2013  14:02:00        4.896       29.326       28.629       52.184       44.915       23.806     2723.152     2017.317      566.748        0.350        0.265       29.732       19.407        0.426      346.792       25.295      857.428
04/29/2013  14:03:00       12.943      -31.172      -11.900       19.538       40.498       20.023      381.726     1640.082      400.912        0.185        0.121       33.752       14.153        0.176      346.000       23.934      857.403
04/29/2013  14:04:00       44.758       26.811        2.742       70.225       51.933       32.276     4931.538     2697.032     1041.768        0.570        0.434       52.174        9.850        0.036      346.634       25.022      857.380
04/29/2013  14:05:00      172.390      152.031       20.469      102.113       71.422       69.467    10427.153     5101.053     4825.725        3.680        1.018      229.851       38.297        0.028      346.513       24.810      857.356
04/29/2013  14:06:00       70.438      190.861      -26.959       88.334       89.806       56.672     7802.872     8065.029     3211.749        3.059        0.954      203.444       57.987        0.081      346.288       24.425      857.349
04/29/2013  14:07:00       41.124       70.317       18.703       56.915       63.188       37.278     3239.347     3992.686     1389.614        0.780        0.431       81.460       39.265        0.232      346.441       24.691      857.332
04/29/2013  14:08:00      120.786       52.038       11.489       48.994       51.109       33.979     2400.441     2612.119     1154.548        1.180        0.308      131.519       19.120        0.021      345.950       23.846      857.309
04/29/2013  14:09:00       12.078       21.650        5.052       38.405       24.855       25.710     1474.934      617.760      661.010        0.170        0.138       24.792       17.850        0.518      346.560       24.895      857.284
04/29/2013  14:10:00      -34.226      115.438       -5.272       67.560      108.850       45.793     4564.318    11848.354     2096.962        1.651        0.925      120.405       50.157        0.174      346.860       25.411      857.249
04/29/2013  14:11:00      -41.704      291.657      -39.764       84.716       76.171       43.427     7176.846     5802.080     1885.891        5.162        0.743      294.624       25.963        0.008      346.274       24.398      857.218
04/29/2013  14:12:00       42.444      232.912      -16.797       68.386      112.547       64.180     4676.651    12666.788     4119.038        3.889        1.073      236.748       65.921        0.078      346.640       25.031      857.187
04/29/2013  14:13:00       21.316      255.270      -14.906       78.378      138.385       66.881     6143.136    19150.477     4473.059        4.780        1.488      256.159       76.642        0.090      346.799       25.304      857.204
04/29/2013  14:14:00      -24.746      301.866      -17.986       88.988      116.006       74.245     7918.873    13457.464     5512.386        5.947        1.344      302.878       73.387        0.059      346.474       24.743      857.208
04/29/2013  14:15:00     -144.272      144.502      -25.444       97.939       83.033       52.586     9591.956     6894.550     2765.340        3.079        0.963      204.194       45.779        0.050      346.670       25.082      857.138
04/29/2013  14:16:00      129.875      222.409       12.821      139.393      160.730      101.239    19430.419    25834.100    10249.280        6.099        2.776      257.553      110.654        0.185      346.826       25.351      857.108
04/29/2013  14:17:00      145.251      164.989       19.048      107.135       86.682       71.106    11477.888     7513.845     5056.132        3.636        1.202      219.817       58.081        0.070      346.558       24.889      857.081
04/29/2013  14:18:00       57.779      187.064      -20.346       81.005      118.677       70.916     6561.823    14084.173     5029.122        3.221        1.284      195.784       76.732        0.154      346.834       25.365      857.079
04/29/2013  14:19:00       24.778      328.437      -34.415      105.350      128.521       65.471    11098.587    16517.766     4286.440        7.078        1.595      329.371       62.994        0.037      346.765       25.243      857.071
04/29/2013  14:20:00      -24.622      297.433      -26.898      103.896      158.641       64.699    10794.319    25166.868     4185.896        6.496        2.007      298.451       79.858        0.072      346.795       25.295      856.994
04/29/2013  14:21:00      140.356      129.832       15.731      119.985      112.532       85.690    14396.369    12663.390     7342.763        3.560        1.720      191.197       67.376        0.124      347.157       25.921      856.945
04/29/2013  14:22:00       58.829      171.964       -6.127      151.494       87.338       78.008    22950.452     7628.011     6085.203        3.486        1.833      181.749       58.730        0.104      346.986       25.627      856.971
04/29/2013  14:23:00       38.931      205.794      -19.689      118.019      124.767       73.541    13928.441    15566.828     5408.304        3.957        1.745      209.444       65.881        0.099      346.724       25.175      856.975
04/29/2013  14:24:00     -106.401      169.004      -31.585       91.271      103.611       45.908     8330.458    10735.306     2107.573        3.102        1.059      199.709       42.074        0.044      346.871       25.427      856.989
04/29/2013  14:25:00      -28.090      166.302      -11.667       97.687      129.813       57.950     9542.698    16851.515     3358.151        2.916        1.488      168.658       46.708        0.077      347.091       25.807      856.961
04/29/2013  14:26:00     -158.502       62.549      -19.138      100.684       77.747       44.610    10137.323     6044.643     1990.016        2.378        0.909      170.397       40.828        0.057      346.802       25.310      856.951
04/29/2013  14:27:00       13.119       32.470       -0.929       42.231       47.709       50.332     1783.462     2276.137     2533.320        0.391        0.330       35.021       33.821        0.933      347.024       25.694      856.919
04/29/2013  14:28:00       52.484       22.418       50.834       52.986       34.714       39.026     2807.565     1205.087     1522.993        0.569        0.277       57.071       16.279        0.081      347.080       25.789      856.888
04/29/2013  14:29:00      -48.346       69.695        8.716      120.025       80.316       53.847    14405.886     6450.595     2899.512        1.551        1.188       84.822       60.201        0.504      347.030       25.704      856.872
04/29/2013  14:30:00     -262.180      -73.320      -32.901       73.465       75.858       48.120     5397.069     5754.452     2315.505        4.433        0.673      272.239       37.135        0.019      346.926       25.520      856.844
04/29/2013  14:31:00     -180.467      -74.759      -30.849      105.732       84.858       48.117    11179.245     7200.836     2315.273        2.990        1.035      195.339       27.613        0.020      347.109       25.837      856.823
04/29/2013  14:32:00     -244.648       -6.135      -17.514       84.065       66.926       43.332     7066.973     4479.066     1877.626        3.681        0.671      244.724       42.588        0.030      346.903       25.484      856.791
04/29/2013  14:33:00     -218.805      -51.917      -17.790       79.413      112.995       38.772     6306.359    12767.929     1503.270        3.573        1.029      224.880       30.355        0.018      347.062       25.757      856.760
04/29/2013  14:34:00     -275.885      -63.480      -30.501       61.569       74.555       37.643     3790.790     5558.510     1416.971        4.592        0.538      283.094       19.380        0.005      346.688       25.111      856.727
04/29/2013  14:35:00      -75.828        8.841       15.411      104.780       58.945       38.635    10978.767     3474.570     1492.648        1.100        0.797       76.342       44.545        0.340      347.011       25.670      856.706
04/29/2013  14:36:00      -19.281       86.198       15.579       58.542       68.131       39.506     3427.124     4641.784     1560.698        0.884        0.481       88.328       41.648        0.222      347.444       26.417      856.714
04/29/2013  14:37:00      -73.016       79.510       -9.395       62.740       84.070       45.000     3936.367     7067.807     2025.006        1.238        0.651      107.950       34.442        0.102      347.271       26.120      856.724
04/29/2013  14:38:00     -126.588      173.346      -21.305       81.431      100.789       48.651     6631.053    10158.472     2366.898        3.284        0.958      214.647       39.990        0.035      347.053       25.740      856.732
04/29/2013  14:39:00      -37.931      324.836      -48.229       95.699      113.879       50.161     9158.291    12968.362     2516.090        6.696        1.232      327.044       53.986        0.027      346.789       25.285      856.721
04/29/2013  14:40:00      -29.323      264.415      -29.963       53.318       56.503       41.220     2842.830     3192.564     1699.089        3.970        0.387      266.036       32.926        0.015      347.161       25.924      856.698
04/29/2013  14:41:00      -55.323      170.331        9.865      121.324      126.012       71.332    14719.410    15878.979     5088.235        3.392        1.784      179.090       70.075        0.153      347.297       26.162      856.665
04/29/2013  14:42:00      -53.899      446.863      -56.782       64.530      106.659       39.303     4164.134    11376.048     1544.758       11.145        0.854      450.102       43.005        0.009      346.541       24.858      856.678
04/29/2013  14:43:00     -189.530      307.470      -54.949      140.846      113.784       54.148    19837.622    12946.848     2932.003        8.459        1.786      361.192       41.076        0.013      346.610       24.978      856.629
04/29/2013  14:44:00     -260.786      158.314      -46.902       87.117       95.596       55.964     7589.418     9138.597     3131.980        5.756        0.993      305.079       57.825        0.036      346.746       25.210      856.583
04/29/2013  14:45:00      -27.840      272.902      -35.536      100.487      160.078       55.674    10097.716    25624.971     3099.581        5.766        1.941      274.318       74.075        0.073      346.832       25.361      856.585
04/29/2013  14:46:00       -6.191      192.807      -30.464       99.630      114.536       60.232     9926.070    13118.466     3627.908        3.240        1.334      192.906       38.547        0.040      346.770       25.255      856.608
04/29/2013  14:47:00       11.488      129.454       -7.549       54.592       88.706       47.019     2980.242     7868.702     2210.744        1.500        0.653      129.963       41.270        0.101      346.707       25.146      856.574
04/29/2013  14:48:00      -15.950      101.371      -15.487       56.688       50.100       27.621     3213.543     2510.007      762.919        0.863        0.324      102.618       24.022        0.055      346.728       25.185      856.535
04/29/2013  14:49:00      -62.213      -31.684      -12.251       59.896       41.516       33.556     3587.508     1723.611     1125.999        0.573        0.322       69.816       20.958        0.090      346.797       25.305      856.494
04/29/2013  14:50:00       43.999      143.180        8.131       90.515      134.169       64.389     8193.034    18001.389     4145.944        2.642        1.517      149.788       67.907        0.206      347.107       25.836      856.467
04/29/2013  14:51:00       28.430      511.280      -54.879      232.360      210.815       96.236    53991.145    44442.770     9261.402       18.644        5.385      512.069      102.710        0.040      346.945       25.555      856.429
04/29/2013  14:52:00      -38.663      310.139      -29.767       89.632      123.870       50.913     8033.899    15343.887     2592.119        6.226        1.298      312.539       55.598        0.032      347.006       25.660      856.463
04/29/2013  14:53:00       33.406      154.884        7.554       91.586      106.033       62.612     8387.932    11242.899     3920.270        2.435        1.178      158.446       66.612        0.177      347.240       26.064      856.418
04/29/2013  14:54:00      -73.162      328.209      -34.238      107.360      151.776       59.840    11526.092    23035.896     3580.800        7.619        1.907      336.264       68.462        0.041      347.134       25.880      856.418
04/29/2013  14:55:00      -38.186      381.648      -50.580       75.789      106.335       51.098     5744.019    11307.179     2610.962        8.466        0.983      383.554       48.403        0.016      346.755       25.228      856.425
04/29/2013  14:56:00       24.582      343.770      -36.036       71.460      108.120       58.272     5106.560    11690.009     3395.580        7.013        1.010      344.648       62.038        0.032      346.934       25.535      856.392
04/29/2013  14:57:00     -100.818      255.935      -31.144       77.724       95.878       49.188     6041.080     9192.576     2419.488        4.714        0.883      275.076       44.473        0.026      347.004       25.657      856.382
04/29/2013  14:58:00      -39.511       86.174        0.711       93.094       58.005       39.656     8666.584     3364.577     1572.597        1.129        0.680       94.800       32.396        0.117      347.286       26.145      856.352
04/29/2013  14:59:00       47.080      166.333      -25.178       63.898      107.232       39.459     4082.935    11498.668     1557.040        2.382        0.857      172.867       44.643        0.067      347.131       25.877      856.297
04/29/2013  15:00:00       -0.696      104.449      -14.094       69.606       76.771       36.919     4845.030     5893.736     1363.005        1.160        0.605      104.451       36.025        0.119      347.148       25.907      856.247
04/29/2013  15:01:00      -72.373       63.107      -10.324       57.240       33.868       33.255     3276.441     1147.023     1105.915        0.743        0.276       96.022       29.472        0.094      347.460       26.446      856.203
04/29/2013  15:02:00        7.301      125.354        5.324       44.382      101.258       38.474     1969.796    10253.140     1480.213        1.475        0.685      125.566       53.548        0.182      347.351       26.257      856.160
04/29/2013  15:03:00       25.439      117.921       -1.418       49.615       61.926       42.752     2461.697     3834.864     1827.757        1.134        0.406      120.634       41.673        0.119      347.280       26.135      856.146
04/29/2013  15:04:00       80.603       66.921       26.433       60.159       58.266       53.375     3619.086     3394.918     2848.890        1.077        0.493      104.763       43.695        0.174      347.257       26.095      856.113
04/29/2013  15:05:00      154.346      105.460       12.283       96.472       69.260       64.030     9306.760     4797.012     4099.884        2.665        0.910      186.935       42.282        0.051      347.048       25.735      856.078
04/29/2013  15:06:00      174.848      139.973        5.263      100.489       83.899       63.360    10098.135     7039.027     4014.519        3.567        1.058      223.974       50.390        0.051      347.200       25.994      856.051
04/29/2013  15:07:00      210.505      121.720        8.862      103.171       73.387       58.292    10644.179     5385.714     3397.990        3.931        0.971      243.162       43.368        0.032      346.963       25.586      856.033
04/29/2013  15:08:00       23.878      141.949       10.167       86.269       54.362       46.758     7442.425     2955.204     2186.336        1.670        0.629      143.943       49.633        0.119      346.901       25.482      856.038
04/29/2013  15:09:00      -31.249      198.485      -17.435       23.896       36.334       26.094      571.036     1320.180      680.921        2.162        0.129      200.930       10.740        0.003      346.854       25.399      856.045
04/29/2013  15:10:00       12.758      145.747      -17.078       39.999       53.456       28.693     1599.927     2857.588      823.298        1.349        0.264      146.304       25.011        0.029      346.920       25.516      856.010
04/29/2013  15:11:00       49.076      152.886      -13.607       40.771       68.204       42.203     1662.312     4651.737     1781.132        1.703        0.405      160.570       38.913        0.059      346.845       25.384      856.005
04/29/2013  15:12:00     -157.948       57.295      -30.385       94.424       47.865       30.378     8915.881     2291.040      922.821        2.064        0.606      168.019       26.114        0.024      346.951       25.565      856.029
04/29/2013  15:13:00     -160.292      -19.619      -20.445       63.701       54.179       31.464     4057.768     2935.362      989.968        1.724        0.399      161.488       31.428        0.038      347.215       26.022      856.070
04/29/2013  15:14:00     -272.587      -55.615      -21.386      195.706      152.512       62.060    38300.920    23260.053     3851.417        7.162        3.271      278.203       78.284        0.079      347.308       26.180      856.055
04/29/2013  15:15:00     -465.238       67.634      -18.599      286.634      203.386      123.251    82158.875    41365.999    15190.744       18.001        6.936      470.128      119.571        0.065      347.578       26.645      855.897
04/29/2013  15:16:00     -303.694     -131.093        5.726      242.895      200.827       97.990    58997.757    40331.616     9602.061       10.917        5.447      330.780      119.304        0.130      347.850       27.117      855.922
04/29/2013  15:17:00     -321.343     -208.530      -11.748      207.522      147.004       68.998    43065.180    21610.096     4760.728       10.815        3.472      383.075       74.094        0.037      347.527       26.557      855.939
04/29/2013  15:18:00     -387.986     -147.732       -8.131      219.163      148.830       90.237    48032.217    22150.465     8142.662       12.536        3.916      415.160      103.033        0.062      347.271       26.116      855.906
04/29/2013  15:19:00     -563.937     -151.331      -29.491      201.074      158.246       82.230    40430.864    25041.800     6761.780       20.700        3.612      583.889       88.352        0.023      347.388       26.317      855.844
04/29/2013  15:20:00     -595.273     -362.014      -27.611      217.198      189.181      103.484    47175.059    35789.398    10708.898       28.990        4.684      696.710      117.453        0.028      347.203       26.000      855.877
04/29/2013  15:21:00     -514.827      -69.362      -32.973      268.904      190.930       90.486    72309.594    36454.344     8187.747       19.393        5.848      519.478      100.168        0.037      347.419       26.370      855.888
04/29/2013  15:22:00     -405.125     -113.037        3.344      252.185      147.575       94.297    63597.302    21778.362     8891.856       13.557        4.713      420.599      115.096        0.075      347.460       26.443      855.885
04/29/2013  15:23:00     -162.287     -141.079       13.259      157.987      129.568       88.493    24959.937    16787.851     7830.939        4.799        2.479      215.036       82.773        0.148      347.514       26.534      855.939
04/29/2013  15:24:00     -207.804     -260.296       -7.692      180.974      163.218       80.470    32751.615    26640.034     6475.349        8.842        3.293      333.071       75.407        0.051      347.438       26.404      855.946
04/29/2013  15:25:00      -85.195      -57.555       -2.751      109.964       67.088       49.698    12092.176     4500.859     2469.932        1.482        0.953      102.814       38.122        0.137      347.568       26.631      855.924
04/29/2013  15:26:00     -131.555     -184.115       14.447       92.686      117.883       52.944     8590.702    13896.433     2803.118        3.835        1.265      226.285       45.301        0.040      347.462       26.447      855.933
04/29/2013  15:27:00     -291.553     -261.908      -10.098      197.179      140.029       73.640    38879.406    19608.117     5422.868       10.879        3.196      391.917       83.939        0.046      347.616       26.710      855.926
04/29/2013  15:28:00     -321.862     -138.757      -11.200      158.007      108.162       78.647    24966.125    11699.079     6185.368        8.290        2.143      350.497       83.530        0.057      347.626       26.729      855.949
04/29/2013  15:29:00     -163.549     -165.558        2.326      163.826      139.922       66.984    26839.061    19578.084     4486.865        5.252        2.545      232.718       77.467        0.111      347.380       26.305      855.936
04/29/2013  15:30:00     -124.576     -219.344        8.536      126.610      134.221       75.913    16030.109    18015.166     5762.766        5.175        1.990      252.252       80.073        0.101      347.331       26.220      855.915
04/29/2013  15:31:00     -144.118     -150.423      -11.202      118.010      103.242       55.107    13926.458    10658.884     3036.801        3.557        1.381      208.319       49.601        0.057      347.464       26.448      855.865
04/29/2013  15:32:00     -211.939     -168.934       10.584      135.585      131.049       61.324    18383.315    17173.843     3760.672        5.644        1.966      271.029       65.655        0.059      347.557       26.611      855.875
04/29/2013  15:33:00     -468.586     -191.223      -21.964      204.639      174.727       92.887    41877.191    30529.454     8628.032       16.881        4.052      506.102       98.038        0.038      347.298       26.162      855.901
04/29/2013  15:34:00     -202.836     -113.389       19.569      137.921      199.935       74.681    19022.186    39974.161     5577.280        5.947        3.229      232.378       74.790        0.104      347.303       26.169      855.922
04/29/2013  15:35:00     -349.986     -185.068      -20.650      149.359      138.028       76.020    22308.051    19051.700     5779.087       10.214        2.357      395.904       67.727        0.029      347.175       25.950      855.892
04/29/2013  15:36:00     -249.700     -148.027      -10.046      102.120       95.311       51.315    10428.454     9084.156     2633.215        5.325        1.107      290.280       55.271        0.036      347.226       26.038      855.889
04/29/2013  15:37:00     -247.938     -164.058        4.769      174.779      138.307       83.829    30547.760    19128.712     7027.374        7.255        2.835      297.302       89.043        0.090      347.301       26.167      855.875
04/29/2013  15:38:00     -301.246     -198.970       -3.767      207.149      142.397       76.476    42910.873    20277.035     5848.621        9.968        3.452      361.023       83.393        0.053      347.209       26.008      855.872
04/29/2013  15:39:00     -272.592     -173.041        0.342      134.641      122.273       72.592    18128.266    14950.709     5269.550        7.129        1.917      322.877       75.169        0.054      347.253       26.086      855.838
04/29/2013  15:40:00     -386.741     -234.742       -4.068      223.006      191.471       92.684    49731.470    36661.017     8590.249       14.982        4.749      452.407      102.680        0.052      347.217       26.023      855.810
04/29/2013  15:41:00     -301.471     -281.157        6.891      205.701      167.238       97.289    42312.995    27968.675     9465.134       12.485        3.987      412.231      115.085        0.078      347.175       25.951      855.799
04/29/2013  15:42:00     -413.494     -167.538      -23.827      216.054      168.820       96.309    46679.291    28500.035     9275.451       14.202        4.223      446.146      107.333        0.058      347.155       25.915      855.799
04/29/2013  15:43:00     -353.031     -154.143      -26.417      204.279      192.621       92.344    41729.923    37102.936     8527.333       11.821        4.368      385.216       97.947        0.065      347.020       25.683      855.786
04/29/2013  15:44:00     -263.487      -87.186       -5.521      184.031      119.023       65.944    33867.416    14166.571     4348.662        6.471        2.619      277.537       72.746        0.069      347.300       26.166      855.785
04/29/2013  15:45:00     -189.035     -164.021       -8.192      151.465      108.910       69.397    22941.630    11861.347     4815.874        5.115        1.981      250.274       82.564        0.109      347.250       26.080      855.784
04/29/2013  15:46:00     -272.249     -102.716       14.118      184.895      137.542       67.425    34186.309    18917.881     4546.142        7.125        2.883      290.981      100.552        0.119      347.361       26.271      855.799
04/29/2013  15:47:00     -258.501     -134.928       -5.093      143.802      123.590       58.001    20679.040    15274.419     3364.127        6.218        1.966      291.596       60.849        0.044      347.405       26.345      855.813
04/29/2013  15:48:00     -169.007      -86.388       13.505      171.225      102.158       61.350    29318.091    10436.347     3763.781        3.985        2.176      189.806       72.554        0.146      347.388       26.318      855.795
04/29/2013  15:49:00     -144.725     -245.740       12.132      144.518      125.539       74.001    20885.540    15760.079     5476.174        6.179        2.106      285.190       68.188        0.057      347.146       25.901      855.763
04/29/2013  15:50:00      -89.078      -12.304       15.661      111.998       83.658       42.251    12543.496     6998.737     1785.166        1.483        1.066       89.924       51.919        0.333      347.545       26.591      855.729
04/29/2013  15:51:00     -168.970       -4.457       12.473      172.277      100.725       64.394    29679.406    10145.599     4146.573        3.634        2.199      169.029       84.669        0.251      347.436       26.402      855.701
04/29/2013  15:52:00     -227.323      -46.714       31.915      177.437      132.685       74.869    31484.047    17605.207     5605.336        5.477        2.735      232.073       86.465        0.139      347.536       26.576      855.792
04/29/2013  15:53:00     -308.004      -38.322      -10.566      220.802      142.508       61.928    48753.578    20308.656     3835.092        8.466        3.645      310.379       80.715        0.068      347.488       26.491      855.773
04/29/2013  15:54:00     -372.931      -57.571      -20.773      240.096      188.040       91.878    57646.122    35359.057     8441.591       12.211        5.072      377.349       95.876        0.065      347.254       26.087      855.777
04/29/2013  15:55:00     -352.332      -57.970      -10.139      226.616      144.445       97.629    51354.966    20864.466     9531.418       10.466        4.088      357.069      120.048        0.113      347.252       26.084      855.787
04/29/2013  15:56:00     -535.783      -66.668      -19.683      218.146      175.495      103.997    47587.781    30798.400    10815.382       19.053        4.460      539.915      105.568        0.038      347.091       25.806      855.775
04/29/2013  15:57:00     -421.985     -210.046        1.698      296.418      201.434      121.024    87863.497    40575.632    14646.910       18.261        7.154      471.371      144.306        0.094      347.096       25.814      855.770
04/29/2013  15:58:00     -483.354     -252.019      -10.507      188.047      142.370       85.930    35361.676    20269.098     7383.885       18.012        3.151      545.110       78.640        0.021      347.001       25.650      855.765
04/29/2013  15:59:00     -294.298     -228.643       20.191      242.165      185.400      103.714    58643.835    34373.307    10756.536       12.151        5.189      372.678      113.440        0.093      347.175       25.951      855.751
04/29/2013  16:00:00     -476.123     -348.589        3.956      271.660      179.985      110.418    73798.889    32394.676    12192.055       23.328        5.919      590.090      128.389        0.047      347.045       25.726      855.743
04/29/2013  16:01:00     -336.444     -291.902       -4.307      174.512      178.494       96.327    30454.393    31860.266     9278.869       13.499        3.580      445.422       93.590        0.044      347.073       25.773      855.741
04/29/2013  16:02:00     -304.252     -286.106       14.692      178.561      130.743       97.590    31884.142    17093.697     9523.898       11.656        2.925      417.643       86.001        0.042      347.024       25.689      855.733
04/29/2013  16:03:00     -400.460     -345.100       -8.053      249.039      205.513      121.961    62020.404    42235.747    14874.415       19.931        5.957      528.642      135.947        0.066      346.930       25.528      855.703
04/29/2013  16:04:00     -521.326     -233.792      -20.686      193.576      160.323       94.104    37471.583    25703.462     8855.558       19.944        3.602      571.349       97.497        0.029      346.947       25.558      855.707
04/29/2013  16:05:00     -224.436     -134.732        6.307      131.907      122.793       62.920    17399.391    15078.101     3958.904        5.249        1.822      261.771       62.802        0.058      347.228       26.042      855.709
04/29/2013  16:06:00     -372.715     -188.998      -13.632      225.628      159.372       82.172    50907.908    25399.325     6752.231       12.892        4.153      417.896       88.662        0.045      347.124       25.863      855.673
04/29/2013  16:07:00     -319.440     -112.334        1.162      159.479      173.001       85.196    25433.404    29929.471     7258.442        8.863        3.131      338.616       94.317        0.078      347.210       26.010      855.664
04/29/2013  16:08:00     -304.220      -36.241      -15.048      149.314      158.110       66.134    22294.728    24998.670     4373.699        7.287        2.583      306.371       62.570        0.042      347.224       26.035      855.656
04/29/2013  16:09:00     -251.381     -165.365       -0.815      183.057      133.337       69.415    33509.714    17778.691     4818.425        7.331        2.805      300.896       83.579        0.077      347.193       25.982      855.659
04/29/2013  16:10:00     -305.076     -236.115       -8.049      160.113      139.357       84.143    25636.099    19420.379     7080.078       10.050        2.607      385.774       88.407        0.053      347.117       25.851      855.660
04/29/2013  16:11:00     -391.938     -287.183       -8.825      225.172      181.396      105.282    50702.578    32904.360    11084.331       16.541        4.735      485.890      124.226        0.065      346.962       25.583      855.609
04/29/2013  16:12:00     -246.838     -193.360        0.216      182.268      156.915       90.629    33221.443    24622.323     8213.574        8.217        3.303      313.555      113.050        0.130      346.990       25.632      855.624
04/29/2013  16:13:00     -326.814     -218.917        0.857      177.669      157.757       99.131    31566.339    24887.217     9826.972       11.049        3.314      393.360       92.768        0.056      347.031       25.703      855.593
04/29/2013  16:14:00     -310.144     -156.521       -3.151      149.882      140.356       63.663    22464.683    19699.686     4053.041        8.345        2.311      347.402       59.154        0.029      347.149       25.906      855.580
04/29/2013  16:15:00     -291.964     -130.885       -2.646      177.301      108.423       67.040    31435.502    11755.463     4494.333        7.502        2.384      319.959       74.613        0.054      347.144       25.897      855.547
04/29/2013  16:16:00     -250.331     -251.029        3.962      176.377      134.041       78.306    31108.952    17967.002     6131.758        9.044        2.760      354.515       74.419        0.044      347.231       26.046      855.544
04/29/2013  16:17:00     -249.856     -245.684        8.413      125.889      166.164       71.066    15847.937    27610.591     5050.310        8.567        2.425      350.412       62.240        0.032      347.152       25.910      855.548
04/29/2013  16:18:00     -191.949     -152.877       14.570      164.234      114.861       67.670    26972.722    13193.127     4579.261        5.258        2.237      245.389       62.726        0.065      347.252       26.083      855.537
04/29/2013  16:19:00     -383.898     -199.806       -2.883      148.744      132.254       76.770    22124.640    17491.048     5893.636       11.640        2.275      432.781       70.384        0.026      347.088       25.800      855.487
04/29/2013  16:20:00     -405.660     -129.371      -13.907      226.491      185.468      114.655    51298.243    34398.382    13145.763       14.015        4.942      425.790      128.340        0.091      347.058       25.748      855.492
04/29/2013  16:21:00     -524.884      -62.329      -17.848      278.365      211.615      110.180    77486.970    44781.077    12139.694       20.703        6.720      528.572      116.286        0.048      347.008       25.662      855.481
04/29/2013  16:22:00     -288.512      -84.410       -3.761      216.118      149.434       78.582    46707.185    22330.588     6175.072        8.278        3.761      300.607       93.814        0.097      347.100       25.823      855.483
04/29/2013  16:23:00     -320.295     -197.371       18.859      254.055      182.391      105.687    64544.155    33266.542    11169.753       12.542        5.449      376.223      116.667        0.096      347.056       25.746      855.535
04/29/2013  16:24:00     -380.210     -291.496      -17.191      182.710      185.095      107.600    33382.881    34260.242    11577.690       15.451        3.961      479.093      104.878        0.048      346.910       25.493      855.521
04/29/2013  16:25:00     -319.999     -170.368        5.343      274.030      259.088      120.028    75092.299    67126.803    14406.699       14.401        7.831      362.526      139.732        0.149      346.910       25.495      855.516
04/29/2013  16:26:00     -436.064     -179.039      -26.451      238.707      170.209       92.731    56981.128    28971.019     8599.110       15.871        4.728      471.388      117.673        0.062      346.925       25.520      855.517
04/29/2013  16:27:00     -452.284     -328.592      -24.236      237.338      196.895      106.828    56329.159    38767.766    11412.295       20.979        5.325      559.047      111.237        0.040      346.814       25.328      855.519
04/29/2013  16:28:00     -305.874     -132.816        4.499      206.870      187.383      106.964    42795.225    35112.276    11441.388       10.027        4.467      333.465      100.955        0.092      346.823       25.345      855.532
04/29/2013  16:29:00     -253.691     -146.534       22.011      190.562      133.166       91.538    36314.002    17733.244     8379.128        7.436        3.121      292.970       94.236        0.103      346.864       25.416      855.552
04/29/2013  16:30:00     -299.107     -161.654       -2.146      171.595      120.538       81.920    29445.010    14529.515     6710.897        8.313        2.534      339.995       90.402        0.071      346.839       25.371      855.539
04/29/2013  16:31:00     -256.366     -174.681       -8.066      149.824      115.303       74.242    22447.292    13294.689     5511.854        6.877        2.063      310.221       85.276        0.076      347.006       25.659      855.560
04/29/2013  16:32:00     -411.856     -166.246       -4.179      245.772      151.983       91.978    60404.079    23098.950     8459.988       14.460        4.598      444.144      118.994        0.072      346.866       25.417      855.523
04/29/2013  16:33:00     -409.320     -333.267      -16.021      238.362      161.686      104.655    56816.404    26142.423    10952.686       18.637        4.696      527.835      124.873        0.056      346.750       25.218      855.502
04/29/2013  16:34:00     -335.789     -167.514       -8.871      156.911      119.498       69.241    24621.133    14279.708     4794.373        9.229        2.185      375.253       68.378        0.033      346.752       25.221      855.529
04/29/2013  16:35:00     -230.857     -144.523      -14.217      117.601      100.079       53.057    13829.972    10015.896     2815.011        5.052        1.333      272.364       41.708        0.023      346.867       25.419      855.482
04/29/2013  16:36:00     -247.354      -73.500       -5.927      175.989       97.362       54.409    30972.213     9479.388     2960.289        5.501        2.171      258.043       37.808        0.021      346.897       25.474      855.465
04/29/2013  16:37:00     -345.509      -78.247       15.161      217.276      209.428       82.633    47208.782    43859.931     6828.201       11.179        4.895      354.259       87.657        0.061      346.933       25.535      855.470
04/29/2013  16:38:00     -435.998     -309.617      -14.341      228.712      218.012      104.423    52309.148    47529.268    10904.186       19.843        5.537      534.750      105.004        0.039      346.818       25.336      855.458
04/29/2013  16:39:00     -309.137     -252.940      -20.954      130.080      141.951       70.831    16920.915    20150.157     5016.962       10.103        2.104      399.430       68.255        0.029      346.772       25.257      855.492
04/29/2013  16:40:00     -355.940     -242.806       -8.288      156.955      156.149       92.506    24634.856    24382.467     8557.363       12.163        2.879      430.869       94.079        0.048      346.636       25.022      855.458
04/29/2013  16:41:00     -278.058      -91.388       -7.194      130.743       98.107       74.872    17093.788     9624.980     5605.824        5.902        1.616      292.691       62.428        0.045      346.768       25.249      855.464
04/29/2013  16:42:00     -172.057      -31.571        1.479      153.058       90.660       67.862    23426.717     8219.184     4605.277        3.342        1.813      174.930       81.072        0.215      346.997       25.646      855.457
04/29/2013  16:43:00     -301.524     -191.952      -22.190      139.968      122.595       54.158    19590.903    15029.500     2933.126        8.290        1.878      357.438       51.643        0.021      346.983       25.620      855.420
04/29/2013  16:44:00     -212.122     -232.138       19.947      184.326      139.919       89.582    33976.000    19577.382     8024.945        8.042        3.079      314.458       96.033        0.093      347.028       25.696      855.429
04/29/2013  16:45:00     -431.470     -273.901      -20.237      237.061      188.938       94.785    56197.810    35697.571     8984.109       18.122        5.044      511.066      103.031        0.041      346.862       25.411      855.416
04/29/2013  16:46:00     -598.984     -346.249      -18.639      277.779      203.279      122.398    77161.322    41322.421    14981.311       30.621        6.673      691.860      132.906        0.037      346.578       24.923      855.399
04/29/2013  16:47:00     -441.954     -279.036       19.079      243.673      215.573      119.206    59376.539    46471.717    14210.025       19.678        6.003      522.670      137.716        0.069      346.737       25.197      855.384
04/29/2013  16:48:00     -268.635     -248.911        5.407      164.985      143.221       87.791    27219.924    20512.252     7707.279        9.478        2.772      366.226       76.644        0.044      346.780       25.270      855.376
04/29/2013  16:49:00     -457.575     -404.430      -18.817      251.599      220.455      121.979    63302.272    48600.196    14878.976       25.001        6.339      610.687      143.774        0.055      346.664       25.072      855.338
04/29/2013  16:50:00     -336.202     -237.716        4.569      248.480      215.020      122.907    61742.259    46233.446    15106.204       14.630        6.154      411.753      146.123        0.126      346.804       25.312      855.356
04/29/2013  16:51:00     -416.168     -312.749      -13.133      277.095      220.659      119.324    76781.753    48690.268    14238.117       20.542        6.986      520.584      146.836        0.080      346.785       25.279      855.361
04/29/2013  16:52:00     -407.573     -260.335        5.981      205.995      185.463      114.913    42434.145    34396.419    13205.068       16.196        4.502      483.621      118.407        0.060      346.738       25.199      855.351
04/29/2013  16:53:00     -479.639     -356.711      -10.156      247.200      207.042      109.220    61107.771    42866.496    11929.024       23.663        5.795      597.742      107.114        0.032      346.656       25.058      855.345
04/29/2013  16:54:00     -527.190     -362.366      -27.426      205.218      179.284      102.581    42114.603    32142.894    10522.818       24.737        4.239      639.718      112.076        0.031      346.627       25.008      855.328
04/29/2013  16:55:00     -424.483     -174.879       -8.972      214.115      174.741       93.960    45845.076    30534.385     8828.572       14.801        4.260      459.095      112.343        0.060      346.843       25.379      855.345
04/29/2013  16:56:00     -427.774      -71.674       -2.436      219.845      204.488      103.417    48332.039    41815.442    10695.164       14.447        5.042      433.737      121.378        0.078      346.898       25.473      855.372
04/29/2013  16:57:00     -432.959     -147.692       -0.054      266.294      173.936       95.453    70912.710    30253.902     9111.260       15.975        5.514      457.456      112.071        0.060      346.859       25.408      855.383
04/29/2013  16:58:00     -377.358     -215.644       -7.708      262.257      194.874       97.598    68778.969    37975.961     9525.330       15.260        5.814      434.628      101.080        0.054      346.735       25.193      855.406
04/29/2013  16:59:00     -345.926      -95.301      -23.767      173.006      121.081       81.150    29931.054    14660.559     6585.330        9.023        2.559      358.813       88.563        0.061      346.666       25.076      855.408
04/29/2013  17:00:00     -265.153     -159.670      -10.160      282.402      209.156      108.891    79750.624    43746.222    11857.196       11.560        6.768      309.517      139.528        0.203      346.765       25.246      855.382
04/29/2013  17:01:00     -350.319     -158.722       16.745      265.046      175.613      121.427    70249.496    30839.895    14744.573       13.199        5.792      384.599      142.133        0.137      346.672       25.084      855.383
04/29/2013  17:02:00     -367.491     -196.368        2.778      296.457      213.285      121.002    87886.893    45490.461    14641.575       16.079        7.401      416.665      154.268        0.137      346.707       25.145      855.403
04/29/2013  17:03:00     -503.469     -183.031      -25.884      245.200      221.284      112.051    60122.804    48966.577    12555.397       20.462        6.082      535.707      125.861        0.055      346.583       24.933      855.431
04/29/2013  17:04:00     -275.532       -5.577       10.106      203.825      120.191       96.609    41544.800    14445.807     9333.287        7.067        3.266      275.588      107.955        0.153      346.671       25.085      855.444
04/29/2013  17:05:00     -586.428     -119.170       -0.662      219.549      155.538       88.159    48201.898    24191.933     7772.055       21.912        4.008      598.414      106.948        0.032      346.510       24.805      855.419
04/29/2013  17:06:00     -482.180     -129.810       -4.347      229.284      159.311      100.681    52571.105    25380.091    10136.660       16.871        4.404      499.348      109.710        0.048      346.502       24.793      855.451
04/29/2013  17:07:00     -422.930     -217.545      -24.142      158.406      152.333       80.695    25092.528    23205.225     6511.648       14.078        2.740      475.601       69.311        0.021      346.477       24.749      855.427
04/29/2013  17:08:00     -525.323     -126.065      -22.044      201.569      200.150       92.744    40630.025    40060.075     8601.414       19.080        4.465      540.237       89.344        0.027      346.490       24.772      855.413
04/29/2013  17:09:00     -288.706      -71.825        5.326      218.250      194.943       90.787    47633.067    38002.601     8242.242        9.119        4.694      297.506      117.864        0.157      346.511       24.808      855.413
04/29/2013  17:10:00     -215.256     -130.761        2.381      234.315      152.782       98.036    54903.437    23342.244     9611.062        7.563        4.393      251.861      116.207        0.213      346.614       24.984      855.401
04/29/2013  17:11:00     -238.256     -109.793        1.147      145.638      125.919       81.324    21210.434    15855.644     6613.638        5.624        2.184      262.336       73.202        0.078      346.632       25.016      855.401
04/29/2013  17:12:00     -417.968     -243.038       -3.466      208.451      176.742       94.664    43451.818    31237.816     8961.223       15.870        4.183      483.492       93.498        0.037      346.584       24.933      855.386
04/29/2013  17:13:00     -508.702     -229.630       -0.891      234.286      178.228      104.544    54890.122    31765.351    10929.393       20.453        4.879      558.129      114.575        0.042      346.523       24.828      855.388
04/29/2013  17:14:00     -482.868     -269.580      -31.025      244.046      212.925      124.163    59558.239    45337.193    15416.350       21.353        6.016      553.023      132.976        0.058      346.476       24.748      855.395
04/29/2013  17:15:00     -301.077     -108.101        4.836      216.047      167.965      108.468    46676.291    28212.127    11765.328        9.449        4.333      319.895      129.755        0.165      346.500       24.788      855.423
04/29/2013  17:16:00     -528.511     -207.670      -22.788      254.248      195.638       92.716    64642.157    38274.235     8596.210       21.722        5.576      567.848      112.649        0.039      346.427       24.664      855.432
04/29/2013  17:17:00     -465.115      -45.278      -10.795      211.492      151.414       94.586    44729.026    22926.247     8946.601       14.754        3.830      467.314      114.711        0.060      346.582       24.930      855.439
04/29/2013  17:18:00     -318.974       -4.760        7.281      158.637      150.030       90.415    25165.745    22508.953     8174.894        7.882        2.792      319.010       78.736        0.061      346.678       25.095      855.475
04/29/2013  17:19:00     -312.566      -48.155       -4.401      137.144      133.294       68.391    18808.540    17767.358     4677.324        7.064        2.063      316.254       74.104        0.055      346.727       25.178      855.479
04/29/2013  17:20:00     -343.226      -56.898        1.623      216.508      143.146       72.416    46875.797    20490.897     5244.040        9.681        3.631      347.911       96.855        0.078      346.713       25.155      855.507
04/29/2013  17:21:00     -347.025        4.574       -3.924      193.025      140.590       89.874    37258.758    19765.511     8077.258        9.277        3.255      347.055      103.967        0.090      346.662       25.067      855.499
04/29/2013  17:22:00     -459.727     -105.220      -10.312      205.775      172.723       98.337    42343.534    29833.356     9670.149       15.217        4.092      471.614       96.315        0.042      346.531       24.843      855.506
04/29/2013  17:23:00     -496.478     -144.420      -26.908      182.375      147.964       68.191    33260.577    21893.348     4650.080       16.393        2.990      517.057       70.763        0.019      346.526       24.835      855.530
04/29/2013  17:24:00     -330.784      -62.343      -22.926      137.277      109.133       66.679    18845.065    11910.010     4446.144        7.451        1.760      336.608       59.943        0.032      346.693       25.122      855.548
04/29/2013  17:25:00     -399.396      -60.470      -30.562      168.131      143.861       69.480    28268.168    20695.881     4827.405       10.894        2.690      403.948       71.516        0.031      346.626       25.006      855.542
04/29/2013  17:26:00     -400.792      -52.392      -22.308      200.229      160.519       86.540    40091.837    25766.200     7489.229       11.860        3.667      404.202       99.645        0.061      346.569       24.908      855.561
04/29/2013  17:27:00     -271.625      -35.868       -2.597      186.658      173.123       89.735    34841.300    29971.512     8052.394        7.395        3.643      273.983      100.620        0.135      346.564       24.898      855.553
04/29/2013  17:28:00     -398.195     -164.693       -5.719      218.329      193.250      100.767    47667.496    37345.557    10153.925       14.042        4.758      430.909      101.539        0.056      346.461       24.723      855.537
04/29/2013  17:29:00     -429.695      -71.989      -25.524      197.225      197.887       79.786    38897.669    39159.211     6365.846       13.743        4.221      435.683       81.632        0.035      346.393       24.605      855.553
04/29/2013  17:30:00     -269.657      -94.131       -4.728      187.244      129.766       71.370    35060.131    16839.310     5093.741        6.928        2.850      285.614       80.723        0.080      346.523       24.827      855.548
04/29/2013  17:31:00     -432.453     -158.071      -30.694      173.043      145.289       67.384    29943.936    21108.830     4540.618       13.426        2.780      460.437       63.165        0.019      346.414       24.640      855.552
04/29/2013  17:32:00     -125.597      -82.276       20.993      179.046      145.473       83.828    32057.475    21162.419     7027.061        4.160        3.012      150.147       95.666        0.406      346.480       24.755      855.537
04/29/2013  17:33:00     -449.205     -281.559      -12.976      267.731      182.135      131.132    71679.909    33173.159    17195.551       20.161        6.102      530.151      136.402        0.066      346.302       24.450      855.524
04/29/2013  17:34:00     -627.606     -298.233      -30.018      246.966      182.984       99.673    60992.139    33483.083     9934.744       29.405        5.220      694.861      115.285        0.028      346.294       24.435      855.511
04/29/2013  17:35:00     -356.144     -150.367       -4.472      256.152      172.272      101.562    65613.962    29677.678    10314.806       12.752        5.280      386.587      103.496        0.072      346.409       24.632      855.518
04/29/2013  17:36:00     -565.925      -71.878      -19.829      275.076      152.475       86.071    75666.564    23248.724     7408.284       21.606        5.316      570.472      115.087        0.041      346.385       24.591      855.542
04/29/2013  17:37:00     -399.145       -2.838       -8.085      200.874      170.369       93.139    40350.185    29025.481     8674.809       11.870        3.903      399.155       89.334        0.050      346.411       24.636      855.538
04/29/2013  17:38:00     -264.110     -102.954      -10.172      199.868      158.789       83.428    39947.342    25214.021     6960.224        7.627        3.606      283.467       83.717        0.087      346.451       24.706      855.563
04/29/2013  17:39:00     -199.177      -82.185        7.992      147.921      156.772       78.084    21880.678    24577.542     6097.122        4.951        2.628      215.467       87.299        0.164      346.485       24.766      855.553
04/29/2013  17:40:00     -257.517      -82.296      -13.879      200.008      117.628       91.222    40003.072    13836.305     8321.489        6.771        3.108      270.347      107.253        0.157      346.400       24.618      855.556
04/29/2013  17:41:00     -294.593     -161.534       -9.487      216.194      177.850      105.927    46740.019    31630.446    11220.551       10.126        4.480      335.973      119.635        0.127      346.301       24.446      855.562
04/29/2013  17:42:00     -345.112      -71.420       -5.321      273.201      145.887       89.167    74638.855    21282.894     7950.811       11.403        5.194      352.425      124.609        0.125      346.280       24.411      855.532
04/29/2013  17:43:00     -382.227      -22.623      -15.844      187.116      146.447       81.751    35012.523    21446.766     6683.294       10.499        3.157      382.896       80.423        0.044      346.306       24.456      855.520
04/29/2013  17:44:00     -330.681     -198.169      -12.131      237.951      202.352      105.691    56620.628    40946.136    11170.633       12.873        5.437      385.513      120.858        0.098      346.252       24.362      855.498
04/29/2013  17:45:00     -342.567       -2.503        4.355      197.211      153.469       86.154    38892.372    23552.671     7422.466        9.361        3.493      342.577       90.049        0.069      346.316       24.472      855.480
04/29/2013  17:46:00     -376.167     -197.000      -21.180      194.562      168.062       96.337    37854.476    28244.933     9280.839       12.805        3.769      424.630      102.000        0.058      346.247       24.355      855.478
04/29/2013  17:47:00     -262.204      -94.072       33.633      288.449      163.256       96.661    83203.081    26652.360     9343.364        9.894        5.960      278.569      141.805        0.259      346.235       24.334      855.481
04/29/2013  17:48:00     -253.560      -93.228        6.628      194.010      153.278       70.941    37639.908    23494.085     5032.689        6.958        3.308      270.156       78.778        0.085      346.297       24.441      855.469
04/29/2013  17:49:00     -374.961     -114.542      -13.543      205.149      189.353       96.772    42085.954    35854.389     9364.845       12.058        4.365      392.065       81.780        0.044      346.245       24.350      855.464
04/29/2013  17:50:00     -418.738      -72.756        0.390      279.204      170.898       96.393    77954.959    29206.211     9291.700       14.852        5.823      425.011      102.514        0.058      346.240       24.341      855.463
04/29/2013  17:51:00     -524.321     -134.458      -18.413      317.554      230.130      127.016   100840.788    52959.919    16133.048       23.160        8.497      541.287      146.582        0.073      346.146       24.178      855.451
04/29/2013  17:52:00     -375.361      -19.813      -11.164      208.688      123.975       86.567    43550.761    15369.824     7493.887       10.390        3.321      375.884       93.625        0.062      346.270       24.394      855.487
04/29/2013  17:53:00     -285.775     -258.751       15.962      265.749      205.101      119.429    70622.322    42066.283    14263.249       13.789        6.348      385.512      148.499        0.148      346.195       24.264      855.454
04/29/2013  17:54:00     -336.811      -32.779      -11.760      258.002      246.620      108.249    66564.797    60821.270    11717.884       12.685        6.955      338.403      117.243        0.120      346.244       24.349      855.447
04/29/2013  17:55:00     -500.772       39.087      -31.769      228.249      194.315      106.189    52097.708    37758.273    11276.202       17.720        5.057      502.295      112.363        0.050      346.202       24.276      855.449
04/29/2013  17:56:00     -332.247        9.702      -22.788      186.871      143.104       83.457    34920.693    20478.811     6965.050        8.667        3.118      332.389      100.626        0.092      346.243       24.347      855.468
04/29/2013  17:57:00     -400.673      -99.477      -10.015      151.029      144.578       72.457    22809.626    20902.790     5250.004       10.974        2.448      412.837       62.438        0.023      346.261       24.377      855.505
04/29/2013  17:58:00     -342.871     -182.979      -19.707      180.183      143.202       73.493    32465.827    20506.919     5401.215       10.489        2.919      388.641       88.107        0.051      346.321       24.481      855.515
04/29/2013  17:59:00     -404.370      -52.394      -25.967      246.781      195.436      107.462    60900.739    38195.136    11548.155       13.877        5.532      407.750      126.949        0.097      346.183       24.244      855.518
04/29/2013  18:00:00     -590.835      -93.491      -34.105      231.075      170.383       91.024    53395.845    29030.257     8285.384       22.483        4.536      598.186       92.304        0.024      345.995       23.921      855.509
04/29/2013  18:01:00     -438.942       -7.720      -15.405      201.949      166.314       91.237    40783.311    27660.332     8324.172       13.485        3.838      439.009       98.235        0.050      346.080       24.069      855.492
04/29/2013  18:02:00     -376.675      -41.993       -3.523      238.913      148.845       90.336    57079.405    22154.711     8160.544       11.551        4.370      379.008      113.112        0.089      346.143       24.177      855.486
04/29/2013  18:03:00     -264.831     -144.845       17.155      230.548      142.900      101.013    53152.502    20420.531    10203.638        8.758        4.189      301.854      120.376        0.159      346.204       24.279      855.536
04/29/2013  18:04:00     -382.305     -116.536       -7.991      235.525      191.568      100.490    55471.863    36698.455    10098.215       13.101        5.113      399.672      115.556        0.084      346.054       24.022      855.531
04/29/2013  18:05:00     -392.434      -50.281      -17.448      194.387      165.120       86.735    37786.303    27264.459     7522.954       11.469        3.629      395.642       81.368        0.042      345.953       23.849      855.526
04/29/2013  18:06:00     -460.467      -71.329      -32.429      234.624      142.331       71.030    55048.307    20258.111     5045.226       14.924        4.018      465.959       84.732        0.033      345.862       23.693      855.485
04/29/2013  18:07:00     -335.751     -238.580       -3.472      173.751      153.451       87.318    30189.577    23547.343     7624.379       11.550        3.068      411.885       90.834        0.049      345.952       23.846      855.479
04/29/2013  18:08:00     -507.343     -115.801      -44.602      249.315      150.811       98.119    62157.946    22743.875     9627.299       18.364        4.726      520.391      105.827        0.041      345.900       23.756      855.473
04/29/2013  18:09:00     -367.844      -39.712        0.895      248.223      151.458      105.727    61614.727    22939.461    11178.303       11.629        4.787      369.982      117.215        0.100      345.879       23.720      855.477
04/29/2013  18:10:00     -253.984     -224.906       15.053      220.475      170.778      108.160    48609.276    29165.253    11698.545       10.238        4.474      339.250      126.063        0.138      345.864       23.696      855.486
04/29/2013  18:11:00     -347.029     -197.687      -29.883      163.278      150.352       90.888    26659.664    22605.693     8260.694       10.895        2.876      399.386       85.620        0.046      345.814       23.611      855.489
04/29/2013  18:12:00     -457.878      -36.689      -25.641      196.483      130.505       81.352    38605.559    17031.582     6618.107       13.694        3.113      459.346       79.697        0.030      345.840       23.656      855.505
04/29/2013  18:13:00     -376.779      -71.889      -17.003      148.672      160.187       84.157    22103.229    25659.726     7082.374       10.112        2.742      383.576       87.080        0.052      345.837       23.649      855.496
04/29/2013  18:14:00     -387.699      -85.546      -12.148      268.831      166.805      113.247    72269.872    27824.057    12824.950       13.533        5.646      397.025      136.533        0.118      345.819       23.618      855.497
04/29/2013  18:15:00     -244.392      -84.311       -1.948      255.660      148.800       95.857    65361.795    22141.322     9188.573        8.175        4.835      258.526      119.108        0.212      345.845       23.665      855.488
04/29/2013  18:16:00     -407.664     -119.761       -7.833      214.208      161.025       86.206    45885.163    25929.025     7431.537       12.990        3.962      424.892      104.025        0.060      345.802       23.589      855.486
04/29/2013  18:17:00     -450.497     -195.442      -27.817      209.757      157.679       83.230    43998.040    24862.615     6927.183       15.884        3.789      491.065       92.683        0.036      345.783       23.558      855.469
04/29/2013  18:18:00     -374.294     -235.736      -12.930      296.113      194.390      118.229    87682.896    37787.644    13978.071       16.761        6.972      442.344      144.077        0.106      345.740       23.485      855.466
04/29/2013  18:19:00     -360.078     -179.440      -26.132      234.388      208.879       98.932    54937.811    43630.552     9787.558       13.543        5.418      402.312       98.111        0.059      345.751       23.503      855.477
04/29/2013  18:20:00     -237.348      -68.682       13.169      210.305      149.250       99.155    44228.332    22275.422     9831.671        6.876        3.817      247.086      113.324        0.210      345.749       23.500      855.491
04/29/2013  18:21:00     -389.033     -238.547      -12.082      200.900      166.247      103.951    40360.712    27638.216    10805.895       14.359        3.940      456.346      114.821        0.063      345.703       23.420      855.491
04/29/2013  18:22:00     -488.214     -307.505      -13.041      191.314      157.814       89.285    36601.198    24905.255     7971.768       20.127        3.474      576.985       88.760        0.024      345.652       23.332      855.465
04/29/2013  18:23:00     -426.192     -159.794      -24.133      260.237      248.723       94.803    67723.324    61862.893     8987.679       17.314        6.929      455.163      112.463        0.061      345.683       23.385      855.472
04/29/2013  18:24:00     -500.809     -122.572      -34.926      275.735      146.114       89.190    76029.945    21349.227     7954.940       18.617        5.267      515.591      108.924        0.045      345.697       23.411      855.494
04/29/2013  18:25:00     -295.084     -152.899        3.508      218.439      160.862       92.095    47715.384    25876.665     8481.465        9.625        4.104      332.344       84.632        0.065      345.766       23.529      855.499
04/29/2013  18:26:00     -252.845       44.410        9.201      216.947      129.053       58.773    47065.956    16654.561     3454.317        6.657        3.359      256.715       64.261        0.063      345.777       23.548      855.530
04/29/2013  18:27:00     -399.259      -18.152      -19.687      173.858      139.460       79.764    30226.546    19449.057     6362.352       10.807        2.802      399.671       89.050        0.050      345.748       23.496      855.531
04/29/2013  18:28:00     -377.853      -58.219      -33.018      222.631      113.210       73.186    49564.582    12816.492     5356.131       10.748        3.387      382.312       84.650        0.049      345.745       23.492      855.543
04/29/2013  18:29:00     -393.059     -103.552      -10.712      145.440      148.803       76.544    21152.663    22142.403     5859.024       10.723        2.458      406.470       59.855        0.022      345.706       23.424      855.536
04/29/2013  18:30:00     -367.029      -69.573      -11.464      170.885      114.612       71.016    29201.843    13135.974     5043.265        9.352        2.369      373.565       80.166        0.046      345.712       23.436      855.562
04/29/2013  18:31:00     -262.376      -74.349       -8.521      118.670      121.045       67.670    14082.677    14651.888     4579.261        5.387        1.666      272.706       69.972        0.066      345.747       23.495      855.571
04/29/2013  18:32:00     -179.174     -111.346       -9.564      104.422      102.382       64.953    10904.022    10482.155     4218.839        3.509        1.280      210.953       49.121        0.054      345.813       23.610      855.590
04/29/2013  18:33:00     -204.004      -47.940        0.048      221.111      119.990       82.363    48890.204    14397.660     6783.699        5.698        3.504      209.561       98.616        0.221      345.777       23.549      855.580
04/29/2013  18:34:00     -196.156      -91.648       -7.884      150.466      129.376       94.797    22640.102    16738.132     8986.482        4.764        2.418      216.510       86.205        0.159      345.745       23.493      855.581
04/29/2013  18:35:00     -238.846       41.499        6.441      153.325      157.081       69.982    23508.432    24674.336     4897.538        5.594        2.654      242.424       70.856        0.085      345.751       23.502      855.624
04/29/2013  18:36:00     -397.866      -21.146       -6.268      226.108      147.373       87.095    51124.996    21718.713     7585.519       11.959        4.021      398.428      108.351        0.074      345.649       23.326      855.613
04/29/2013  18:37:00     -321.562      -23.312        9.894      223.286      135.263       87.630    49856.575    18296.105     7679.102        8.992        3.792      322.406       99.244        0.095      345.596       23.235      855.614
04/29/2013  18:38:00     -280.712      -45.187        9.651      220.358      127.128       90.656    48557.852    16161.612     8218.433        7.692        3.647      284.326      111.841        0.155      345.604       23.249      855.613
04/29/2013  18:39:00     -361.000     -173.883      -15.660      163.891      194.723       85.085    26860.234    37917.033     7239.452       11.640        3.601      400.695       72.902        0.033      345.565       23.182      855.591
04/29/2013  18:40:00     -225.319     -178.561       11.379      198.411      147.982       93.327    39366.777    21898.709     8709.982        7.637        3.499      287.494      108.945        0.144      345.574       23.200      855.586
04/29/2013  18:41:00     -229.965      -40.414        2.471      219.637      157.802       94.122    48240.524    24901.588     8858.988        6.825        4.100      233.490      108.715        0.217      345.596       23.236      855.594
04/29/2013  18:42:00     -298.921     -157.395       -8.780      158.449      176.210       78.827    25106.006    31050.112     6213.661        8.827        3.118      337.827       71.358        0.045      345.567       23.187      855.562
04/29/2013  18:43:00     -310.381      -67.710      -10.629      212.538      108.912       79.480    45172.559    11861.748     6317.043        8.218        3.168      317.681      103.622        0.106      345.560       23.174      855.593
04/29/2013  18:44:00     -190.923      -26.849      -10.440       97.656      100.976       56.650     9536.710    10196.165     3209.253        3.011        1.147      192.802       50.044        0.067      345.593       23.232      855.589
04/29/2013  18:45:00     -294.289     -199.024      -20.214      166.700      138.555       82.947    27788.856    19197.625     6880.282        9.024        2.693      355.269       83.120        0.055      345.567       23.186      855.597
04/29/2013  18:46:00     -327.909     -179.553       -3.860      192.383      153.454       82.405    37011.114    23548.179     6790.660       10.355        3.367      373.849      104.150        0.078      345.546       23.150      855.601
04/29/2013  18:47:00     -369.021      -29.388      -10.978      249.787      166.333       85.114    62393.603    27666.724     7244.324       11.721        4.865      370.189      112.238        0.092      345.522       23.108      855.601
04/29/2013  18:48:00     -302.611      -98.520       -2.509      205.490      176.956       82.365    42226.029    31313.283     6784.011        9.079        4.016      318.245      101.451        0.102      345.510       23.089      855.611
04/29/2013  18:49:00     -243.651     -150.102       32.549      246.172      168.506      110.039    60600.593    28394.392    12108.675        9.201        5.055      286.176      135.473        0.224      345.497       23.067      855.614
04/29/2013  18:50:00     -352.971     -185.293      -27.487      177.236      134.718       81.573    31412.658    18149.073     6654.109       10.794        2.811      398.650       76.758        0.037      345.462       23.005      855.616
04/29/2013  18:51:00     -315.193     -174.277        7.735      233.327      168.418      101.323    54441.486    28364.784    10266.324       11.141        4.654      360.165      105.301        0.085      345.444       22.975      855.616
04/29/2013  18:52:00     -295.079     -186.420        7.380      241.187      182.818      109.256    58171.033    33422.372    11936.860       11.268        5.177      349.033      126.057        0.130      345.447       22.980      855.592
04/29/2013  18:53:00     -277.475     -111.118      -17.269      216.828      143.356       91.616    47014.229    20551.071     8393.455        8.278        3.798      298.897       97.749        0.107      345.443       22.972      855.626
04/29/2013  18:54:00     -182.635      -29.774        8.730      120.756      100.153       54.118    14582.018    10030.552     2928.738        3.092        1.377      185.046       52.873        0.082      345.499       23.070      855.639
04/29/2013  18:55:00     -192.259     -122.982        7.109      148.491      119.691       71.689    22049.670    14325.853     5139.254        4.682        2.076      228.228       85.222        0.139      345.489       23.052      855.657
04/29/2013  18:56:00     -349.231     -114.760       -5.549      265.525      192.153       93.460    70503.762    36922.685     8734.732       12.564        5.808      367.604      122.367        0.111      345.379       22.862      855.628
04/29/2013  18:57:00     -248.170      -23.368      -11.424      160.731      130.692       78.795    25834.521    17080.398     6208.714        5.568        2.456      249.268       66.240        0.071      345.427       22.945      855.631
04/29/2013  18:58:00     -516.089      -36.623      -11.093      189.322      137.175       94.029    35842.652    18816.940     8841.424       16.564        3.175      517.387      102.788        0.039      345.343       22.801      855.638
04/29/2013  18:59:00     -320.549      -31.102      -15.225      144.138      140.848       74.768    20775.774    19838.037     5590.206        7.507        2.310      322.055       73.144        0.052      345.365       22.840      855.636
04/29/2013  19:00:00     -282.591       45.054      -11.096      140.760      103.732       58.712    19813.255    10760.340     3447.075        5.801        1.701      286.160       70.145        0.060      345.414       22.924      855.642
04/29/2013  19:01:00     -370.860      -26.148      -23.074      133.015      140.308       79.656    17693.076    19686.448     6345.116        9.123        2.186      371.781       66.973        0.032      345.395       22.890      855.621
04/29/2013  19:02:00     -281.811      -93.815       -3.080      134.233      117.963       57.851    18018.364    13915.372     3346.763        6.175        1.764      297.017       58.507        0.039      345.402       22.903      855.643
04/29/2013  19:03:00     -344.512     -187.806        2.979      239.508      168.754      100.232    57364.197    28477.827    10046.487       12.491        4.794      392.377      121.865        0.096      345.347       22.810      855.603
04/29/2013  19:04:00     -340.829     -204.276       -1.924      212.076      157.424      102.891    44976.161    24782.362    10586.517       11.910        4.017      397.357      122.658        0.095      345.346       22.808      855.581
04/29/2013  19:05:00     -383.589     -228.332       -5.271      209.400      156.341       85.005    43848.190    24442.656     7225.818       13.740        3.776      446.404       94.267        0.045      345.330       22.778      855.600
04/29/2013  19:06:00     -325.241     -173.450       -1.807      199.925      215.166       82.723    39970.173    46296.213     6843.165       11.447        4.655      368.601       94.154        0.065      345.341       22.799      855.612
04/29/2013  19:07:00     -387.503       72.065      -22.348      157.589      134.388       80.830    24834.335    18060.254     6533.560       10.263        2.471      394.147       68.979        0.031      345.306       22.739      855.649
04/29/2013  19:08:00     -288.187      -46.773       -1.893      175.625      127.515       77.681    30844.261    16260.186     6034.414        6.918        2.657      291.959       88.807        0.093      345.298       22.725      855.634
04/29/2013  19:09:00     -408.717     -121.244       -8.823      161.393      136.436       68.494    26047.760    18614.868     4691.441       11.558        2.468      426.321       65.264        0.023      345.282       22.697      855.632
04/29/2013  19:10:00     -428.694     -158.965      -25.704      171.762      149.244       79.517    29502.067    22273.827     6322.989       13.389        2.905      457.218       67.640        0.022      345.247       22.636      855.605
04/29/2013  19:11:00     -285.765      -91.579       -0.054      184.697      138.221       88.403    34112.907    19104.925     7815.179        7.553        3.052      300.081       91.277        0.093      345.211       22.577      855.585
04/29/2013  19:12:00     -308.257      -81.314       10.788      258.877      141.960      100.631    67017.414    20152.532    10126.546        9.950        4.865      318.802      130.551        0.168      345.237       22.621      855.597
04/29/2013  19:13:00     -231.417     -138.347        0.105      199.359      153.978       95.479    39744.205    23709.094     9116.225        7.262        3.628      269.618      109.030        0.164      345.231       22.611      855.568
04/29/2013  19:14:00     -292.062     -155.859      -17.572      186.334      160.384       88.362    34720.425    25723.056     7807.800        8.906        3.413      331.047       88.909        0.072      345.211       22.574      855.586
04/29/2013  19:15:00     -186.165      -50.496        1.448      109.569      114.297       57.240    12005.264    13063.907     3276.466        3.277        1.417      192.892       49.771        0.067      345.218       22.587      855.584
04/29/2013  19:16:00     -313.223      -61.990      -14.938      157.018      182.416       66.346    24654.772    33275.464     4401.755        8.224        3.117      319.299       57.576        0.033      345.191       22.539      855.581
04/29/2013  19:17:00     -477.191      -46.083      -31.815      167.536      142.790       71.791    28068.391    20388.850     5153.942       14.222        2.681      479.411       71.131        0.022      345.161       22.491      855.599
04/29/2013  19:18:00     -379.051      -28.872      -21.938      161.736       97.952       70.818    26158.545     9594.497     5015.138        9.287        2.038      380.149       65.568        0.030      345.160       22.487      855.621
04/29/2013  19:19:00     -409.919     -192.010      -12.293      186.860      169.997       84.743    34916.505    28899.069     7181.404       13.801        3.550      452.661       85.805        0.036      345.140       22.454      855.600
04/29/2013  19:20:00     -336.909     -306.558      -18.020      231.495      205.651      108.291    53590.101    42292.500    11726.882       15.769        5.380      455.505      122.088        0.072      345.115       22.413      855.574
04/29/2013  19:21:00     -216.044      -63.946       -8.522      154.723      127.122       66.821    23939.191    16159.882     4465.095        4.769        2.228      225.308       59.932        0.071      345.177       22.517      855.624
04/29/2013  19:22:00     -142.953      -74.667       -5.215      117.101      115.606       59.799    13712.557    13364.637     3575.932        2.834        1.533      161.278       47.785        0.088      345.170       22.506      855.628
04/29/2013  19:23:00     -264.570      -88.807       -0.572      119.818      131.428       69.792    14356.306    17273.324     4870.855        5.719        1.825      279.077       64.634        0.054      345.135       22.447      855.649
04/29/2013  19:24:00     -253.638     -138.283       -5.912      200.031      146.802       71.150    40012.594    21550.932     5062.323        7.504        3.331      288.885       93.629        0.105      345.137       22.450      855.648
04/29/2013  19:25:00     -244.527      -48.088        7.894      179.283      169.946       89.291    32142.557    28881.482     7972.808        6.557        3.450      249.210       98.594        0.157      345.083       22.356      855.637
04/29/2013  19:26:00     -193.848        5.601       -3.689      175.941      136.036       78.256    30955.183    18505.867     6123.988        4.659        2.779      193.928       85.124        0.193      345.089       22.370      855.654
04/29/2013  19:27:00     -602.274     -139.962      -32.909      227.842      187.350       96.388    51912.196    35100.057     9290.692       23.984        4.815      618.323       91.551        0.022      345.025       22.260      855.645
04/29/2013  19:28:00     -429.311     -113.222      -32.350      190.007      167.570       78.743    36102.472    28079.622     6200.503       13.426        3.519      443.990       86.350        0.038      345.018       22.246      855.637
04/29/2013  19:29:00     -331.390     -187.959      -10.948      231.829      198.971      117.325    53744.502    39589.380    13765.125       12.616        5.355      380.983      134.050        0.124      344.999       22.214      855.632
04/29/2013  19:30:00     -270.951      -63.348       -9.252      178.278       92.272       80.938    31782.908     8514.213     6550.901        6.217        2.342      278.257       84.514        0.092      345.021       22.251      855.654
04/29/2013  19:31:00     -387.382      -84.630      -28.876      163.623      168.674       70.643    26772.629    28451.028     4990.402       10.913        3.011      396.519       72.948        0.034      345.003       22.220      855.653
04/29/2013  19:32:00     -189.753      -96.659        6.072      183.259      153.322       75.524    33584.024    23507.526     5703.901        5.408        3.140      212.953       87.754        0.170      344.998       22.211      855.636
04/29/2013  19:33:00     -256.459      -89.091       -4.891      129.325      103.834       66.586    16725.084    10781.422     4433.654        5.283        1.597      271.493       64.451        0.056      345.006       22.224      855.634
04/29/2013  19:34:00     -236.323     -169.073       11.529      214.242      173.945      111.036    45899.774    30256.900    12329.099        8.651        4.424      290.576      118.726        0.167      344.964       22.154      855.617
04/29/2013  19:35:00     -167.983      -98.187       13.836      189.430      115.904       92.216    35883.546    13433.773     8503.866        4.792        2.891      194.573       95.478        0.241      344.952       22.134      855.639
04/29/2013  19:36:00     -428.641     -106.371       -8.559      277.898      175.369       91.279    77227.430    30754.226     8331.787       15.569        5.816      441.642      100.259        0.052      344.901       22.046      855.637
04/29/2013  19:37:00     -396.665       -3.812      -22.282      195.129      140.729       67.352    38075.335    19804.679     4536.354       11.012        3.121      396.683       78.432        0.039      344.877       22.006      855.652
04/29/2013  19:38:00     -353.693     -137.585      -22.893      224.957      184.780       92.056    50605.734    34143.571     8474.235       11.887        4.661      379.511      106.216        0.078      344.854       21.966      855.663
04/29/2013  19:39:00     -208.892     -165.818       13.910      201.315      185.873      110.608    40527.874    34548.948    12234.203        7.930        4.366      266.705      125.925        0.223      344.858       21.973      855.652
04/29/2013  19:40:00     -186.518       -9.681        5.416      150.749      114.571       73.595    22725.229    13126.455     5416.213        3.808        2.063      186.769       82.766        0.196      344.854       21.967      855.665
04/29/2013  19:41:00     -242.336     -157.225        7.270      182.234      168.335       84.142    33209.394    28336.517     7079.799        7.605        3.431      288.871       86.623        0.090      344.863       21.981      855.689
04/29/2013  19:42:00     -191.420      -36.833       12.487      150.262      107.398       88.081    22578.787    11534.274     7758.335        4.000        2.094      194.931       79.945        0.168      344.835       21.934      855.678
04/29/2013  19:43:00     -416.504      -97.875       -1.096      260.058      156.575      100.092    67629.973    24515.854    10018.419       14.259        5.108      427.849      131.416        0.094      344.794       21.862      855.668
04/29/2013  19:44:00     -363.863      -85.225       -5.575      195.850      144.196       85.126    38357.197    20792.595     7246.520       10.303        3.320      373.710       94.136        0.063      344.776       21.831      855.668
04/29/2013  19:45:00     -445.826     -186.773      -19.386      202.721      208.763      101.299    41095.982    43582.145    10261.406       16.446        4.747      483.368      106.029        0.048      344.784       21.843      855.650
04/29/2013  19:46:00     -317.185      -67.072      -24.836      255.888      178.830       93.009    65478.459    31980.343     8650.653       10.589        5.305      324.199       81.658        0.063      344.772       21.825      855.650
04/29/2013  19:47:00     -333.563      -73.824       -8.347      204.250      182.528       99.784    41717.926    33316.604     9956.906       10.087        4.250      341.635      110.941        0.105      344.741       21.772      855.654
04/29/2013  19:48:00     -489.855     -115.635      -53.951      243.285      158.069       94.217    59187.452    24985.832     8876.912       17.463        4.653      503.319      107.901        0.046      344.723       21.741      855.648
04/29/2013  19:49:00     -322.678     -116.231      -10.992      170.896      174.951       84.333    29205.480    30607.962     7112.130        9.233        3.346      342.973       86.245        0.063      344.715       21.728      855.629
04/29/2013  19:50:00     -304.393        3.576       -1.057      152.929      123.967       79.930    23387.271    15367.780     6388.746        6.890        2.257      304.414       88.261        0.084      344.664       21.639      855.651
04/29/2013  19:51:00     -289.954     -120.899       -4.120      230.794      162.131       89.403    53265.913    26286.310     7992.840        9.311        4.377      314.150       97.286        0.096      344.702       21.706      855.652
04/29/2013  19:52:00     -239.469      -65.574        9.315      156.937      141.062       82.053    24629.191    19898.497     6732.726        5.649        2.563      248.284       66.331        0.071      344.681       21.668      855.669
04/29/2013  19:53:00     -165.376      -44.860       13.980      142.925      108.682       61.238    20427.575    11811.856     3750.114        3.277        1.799      171.353       63.855        0.139      344.648       21.614      855.685
04/29/2013  19:54:00     -206.599      -48.617        3.431      113.697      123.210       72.821    12927.020    15180.742     5302.939        3.923        1.671      212.242       59.649        0.079      344.649       21.615      855.692
04/29/2013  19:55:00     -312.222     -146.191      -11.339      163.271      131.602       80.077    26657.340    17319.172     6412.306        8.468        2.519      344.752       94.174        0.075      344.645       21.606      855.697
04/29/2013  19:56:00     -160.924      -47.824        4.234      151.347      116.024       71.344    22905.805    13461.627     5089.914        3.482        2.073      167.880       80.500        0.230      344.574       21.487      855.727
04/29/2013  19:57:00     -238.634      -55.896       -0.549      163.604      144.243       79.384    26766.336    20806.063     6301.790        5.696        2.694      245.093       73.716        0.090      344.611       21.549      855.720
04/29/2013  19:58:00     -189.270      -23.989       14.992      114.104      113.552       55.420    13019.751    12894.156     3071.374        3.280        1.449      190.785       53.922        0.080      344.574       21.486      855.741
04/29/2013  19:59:00     -390.334      -77.526      -18.911      108.367      133.444       67.454    11743.459    17807.347     4549.990        9.641        1.705      397.959       47.148        0.014      344.558       21.458      855.733
04/29/2013  20:00:00     -363.329      -16.115      -12.328      184.189      155.276       71.331    33925.548    24110.485     5088.091        9.776        3.156      363.686       68.349        0.035      344.540       21.427      855.720
04/29/2013  20:01:00     -230.018      -50.432       -2.448      164.659      115.986       70.358    27112.635    13452.678     4950.226        5.048        2.276      235.482       78.873        0.112      344.545       21.437      855.701
04/29/2013  20:02:00     -241.359      -84.902        0.538      156.451      138.988       66.728    24476.930    19317.530     4452.651        5.685        2.412      255.856       76.961        0.090      344.516       21.387      855.685
04/29/2013  20:03:00     -365.710     -160.396       -9.062      213.218      162.335       86.005    45461.780    26352.728     7396.830       11.937        3.961      399.338      102.938        0.066      344.505       21.369      855.668
04/29/2013  20:04:00     -354.254      -11.074      -18.053      139.382      119.124       62.682    19427.312    14190.589     3928.996        8.174        1.877      354.427       59.836        0.029      344.502       21.364      855.691
04/29/2013  20:05:00     -256.495      -90.495       -8.427      166.509      135.187       84.282    27725.345    18275.406     7103.533        6.357        2.655      271.991       92.197        0.115      344.496       21.354      855.686
04/29/2013  20:06:00     -260.748      -42.689       -8.398      135.984      122.159       65.853    18491.723    14922.799     4336.656        5.381        1.888      264.219       75.409        0.081      344.487       21.337      855.710
04/29/2013  20:07:00     -219.150      -62.850       13.647      152.221      128.625       70.653    23171.332    16544.363     4991.823        4.843        2.235      227.984       80.367        0.124      344.446       21.269      855.719
04/29/2013  20:08:00     -168.950      -59.044        3.418      121.215      109.503       57.348    14693.197    11991.003     3288.839        3.100        1.499      178.970       55.414        0.096      344.446       21.266      855.731
04/29/2013  20:09:00     -193.892      -21.216       -9.808      140.995      102.577       62.423    19879.468    10521.973     3896.626        3.621        1.715      195.049       54.613        0.078      344.431       21.242      855.741
04/29/2013  20:10:00     -360.246     -101.671      -26.494      190.735      177.212       86.160    36379.890    31404.160     7423.468       10.800        3.760      374.318      102.613        0.075      344.435       21.246      855.730
04/29/2013  20:11:00     -268.253      -62.063       -9.799      148.061      104.481       64.371    21922.188    10916.269     4143.688        5.644        1.849      275.339       61.526        0.050      344.406       21.199      855.734
04/29/2013  20:12:00     -477.135      -70.658      -34.133      190.893      147.016       73.194    36440.105    21613.606     5357.293       14.860        3.171      482.338       85.736        0.032      344.400       21.188      855.743
04/29/2013  20:13:00     -263.788      -80.326        4.732      167.367      142.479       79.029    28011.746    20300.279     6245.509        6.530        2.728      275.746       92.145        0.112      344.365       21.130      855.738
04/29/2013  20:14:00     -303.734       31.484       -9.048      256.137      110.144       73.336    65606.023    12131.745     5378.214        8.821        4.156      305.362       86.855        0.081      344.322       21.055      855.764
04/29/2013  20:15:00     -591.182      -34.197      -44.494      196.129      138.894       86.843    38466.723    19291.613     7541.748       20.896        3.265      592.170       93.921        0.025      344.357       21.115      855.766
04/29/2013  20:16:00     -524.697      -74.831      -29.357      195.910      179.342       76.084    38380.679    32163.562     5788.780       17.904        3.817      530.006       90.943        0.029      344.347       21.098      855.771
04/29/2013  20:17:00     -401.717     -156.358       -9.447      185.685      134.080       78.438    34478.803    17977.429     6152.564       12.225        2.930      431.074       62.329        0.021      344.334       21.077      855.786
04/29/2013  20:18:00     -372.966      -68.499      -15.579      147.731      151.886       73.630    21824.436    23069.369     5421.388        9.717        2.516      379.204       63.432        0.028      344.305       21.026      855.793
04/29/2013  20:19:00     -395.105      -91.949      -21.934      169.427      151.263       73.891    28705.465    22880.544     5459.850       11.103        2.852      405.663       80.931        0.040      344.297       21.012      855.806
04/29/2013  20:20:00     -297.879      -18.359       -6.631      139.540      105.621       70.947    19471.280    11155.847     5033.515        6.238        1.783      298.444       65.335        0.048      344.267       20.962      855.831
04/29/2013  20:21:00     -293.016      -96.053       -0.909      180.073      118.189       66.733    32426.351    13968.684     4453.261        7.296        2.542      308.357       79.182        0.066      344.250       20.932      855.850
04/29/2013  20:22:00     -314.861      -31.704       -1.420      108.494      122.176       65.836    11771.009    14927.049     4334.338        6.558        1.552      316.453       67.255        0.045      344.248       20.928      855.912
04/29/2013  20:23:00     -209.573      -52.747        6.424      113.922      130.457       61.019    12978.215    17018.932     3723.286        4.023        1.686      216.109       65.243        0.091      344.206       20.859      855.922
04/29/2013  20:24:00     -291.571      -38.541       -3.443      159.101       98.986       58.263    25313.007     9798.267     3394.576        6.250        1.925      294.107       64.300        0.048      344.241       20.917      855.925
04/29/2013  20:25:00     -321.258      -33.629       -4.870      157.222      107.162       69.471    24718.859    11483.635     4826.221        7.269        2.051      323.014       80.600        0.062      344.189       20.828      855.930
04/29/2013  20:26:00     -475.006      -45.690      -28.559      153.253      135.683       74.206    23486.553    18409.988     5506.588       13.796        2.370      477.199       76.857        0.026      344.199       20.845      855.930
04/29/2013  20:27:00     -425.601      -74.361       -6.815      181.205      176.813       85.175    32835.205    31262.835     7254.782       12.902        3.568      432.048       89.150        0.043      344.186       20.822      855.936
04/29/2013  20:28:00     -254.243       -7.897        1.121      216.460      118.917       69.233    46855.063    14141.186     4793.258        6.523        3.289      254.365       98.319        0.149      344.149       20.761      855.956
04/29/2013  20:29:00     -187.351      -33.407       -1.198      122.476       94.485       53.670    15000.369     8927.479     2880.445        3.151        1.340      190.307       64.229        0.114      344.149       20.760      855.966
04/29/2013  20:30:00     -250.156      -62.271       -5.632      146.664       98.671       54.044    21510.340     9735.898     2920.740        5.032        1.708      257.790       46.188        0.032      344.136       20.739      855.983
04/29/2013  20:31:00     -316.008      -86.381       -7.834      118.057      100.881       52.004    13937.434    10176.994     2704.431        6.710        1.341      327.601       44.834        0.019      344.110       20.693      855.992
04/29/2013  20:32:00     -271.583      -48.094      -11.898      152.624      102.599       63.328    23294.005    10526.590     4010.408        5.701        1.892      275.809       76.428        0.077      344.060       20.608      856.012
04/29/2013  20:33:00     -284.167     -100.264      -12.995      123.236       93.305       54.776    15187.017     8705.877     3000.390        5.893        1.345      301.337       58.780        0.038      344.058       20.605      856.011
04/29/2013  20:34:00     -339.162      -49.907      -15.800      157.604       97.326       61.510    24838.881     9472.294     3783.520        7.793        1.905      342.814       81.740        0.057      344.022       20.544      856.027
04/29/2013  20:35:00     -386.511      -54.523      -27.223      130.630      109.825       54.997    17064.256    12061.532     3024.698        9.262        1.608      390.338       62.177        0.025      344.014       20.530      856.036
04/29/2013  20:36:00     -328.308      -24.779      -19.066      126.451      141.445       55.573    15989.957    20006.678     3088.372        7.392        1.954      329.242       49.412        0.023      343.993       20.494      856.044
04/29/2013  20:37:00     -273.678      -60.720      -12.749      143.411       97.994       56.093    20566.832     9602.874     3146.435        5.603        1.666      280.332       55.400        0.039      343.973       20.458      856.046
04/29/2013  20:38:00     -377.449     -131.896      -10.590      127.060       99.581       63.095    16144.251     9916.465     3980.969        9.500        1.502      399.830       58.497        0.021      343.968       20.450      856.063
04/29/2013  20:39:00     -159.394      -32.755        8.892       83.767      106.873       52.465     7016.863    11421.739     2752.606        2.387        1.060      162.724       42.943        0.070      343.870       20.283      856.075
04/29/2013  20:40:00     -329.633      -60.493      -12.751      143.525       94.450       51.567    20599.417     8920.821     2659.197        7.232        1.609      335.138       52.149        0.024      343.922       20.372      856.089
04/29/2013  20:41:00     -240.374      -72.480       -6.924       90.529       83.922       46.510     8195.583     7042.945     2163.168        4.024        0.870      251.064       37.781        0.023      343.937       20.396      856.109
04/29/2013  20:42:00     -264.160      -87.990        1.011      137.877       92.772       66.118    19010.139     8606.620     4371.528        5.475        1.599      278.430       71.073        0.065      343.880       20.300      856.126
04/29/2013  20:43:00     -370.358      -93.195       -9.153      135.946      104.494       58.470    18481.232    10919.006     3418.785        8.937        1.641      381.904       59.358        0.024      343.925       20.378      856.139
04/29/2013  20:44:00     -462.898      -36.619      -27.301      144.623      122.559       73.651    20915.789    15020.761     5424.504       12.885        2.068      464.344       79.121        0.029      343.923       20.374      856.159
04/29/2013  20:45:00     -338.378      -61.881       -7.351      132.052      123.842       65.110    17437.711    15336.753     4239.318        7.769        1.851      343.990       62.221        0.033      343.913       20.358      856.165
04/29/2013  20:46:00     -302.815      -45.083      -15.507      163.156      112.061       61.251    26619.770    12557.699     3751.635        6.844        2.146      306.153       82.944        0.073      343.893       20.322      856.159
04/29/2013  20:47:00     -251.598      -27.568       -7.813      128.972      103.216       60.018    16633.879    10653.575     3602.200        4.750        1.544      253.104       65.536        0.067      343.861       20.269      856.180
04/29/2013  20:48:00     -251.531      -61.680      -12.888      134.117       84.726       50.477    17987.476     7178.480     2547.966        4.747        1.386      258.984       52.175        0.041      343.892       20.320      856.195
04/29/2013  20:49:00     -318.705      -60.797      -15.055       90.946       86.568       56.612     8271.263     7494.046     3204.880        6.223        0.949      324.452       49.606        0.023      343.862       20.269      856.208
04/29/2013  20:50:00     -261.813      -54.849       -5.345      131.558      108.867       56.663    17307.461    11852.094     3210.707        5.197        1.619      267.497       57.580        0.046      343.838       20.229      856.192
04/29/2013  20:51:00     -229.982      -22.279      -17.707      115.937       74.608       45.736    13441.280     5566.423     2091.752        3.740        1.055      231.058       50.579        0.048      343.818       20.195      856.209
04/29/2013  20:52:00     -326.536      -55.470      -22.717      132.422      132.567       63.727    17535.518    17574.027     4061.175        7.469        1.959      331.213       62.245        0.035      343.838       20.227      856.218
04/29/2013  20:53:00     -161.837        1.219        8.374      107.801       95.860       53.862    11621.136     9189.045     2901.148        2.498        1.186      161.842       49.356        0.093      343.782       20.134      856.226
04/29/2013  20:54:00     -247.291       -1.944      -15.790      117.229       98.105       48.673    13742.677     9624.643     2369.081        4.357        1.287      247.299       53.859        0.047      343.766       20.107      856.233
04/29/2013  20:55:00     -270.847      -54.534      -18.142      129.912       84.939       58.663    16877.132     7214.673     3441.324        5.209        1.377      276.283       51.201        0.034      343.777       20.125      856.226
04/29/2013  20:56:00     -266.108      -78.195        1.159      126.247       86.733       57.893    15938.429     7522.657     3351.640        5.187        1.341      277.359       54.819        0.039      343.764       20.104      856.234
04/29/2013  20:57:00     -365.242     -118.581      -18.724      156.779      121.365       66.777    24579.670    14729.373     4459.127        9.578        2.188      384.009       77.992        0.041      343.791       20.149      856.231
04/29/2013  20:58:00     -421.359      -99.414      -11.158      158.171      121.829       76.723    25018.173    14842.375     5886.452       11.664        2.287      432.928       78.189        0.033      343.780       20.131      856.217
04/29/2013  20:59:00     -357.847      -72.656       -6.220      158.765      118.367       79.151    25206.269    14010.849     6264.823        8.942        2.274      365.148       80.982        0.049      343.755       20.088      856.227
04/29/2013  21:00:00     -365.849     -110.642       -9.514      202.734      117.766       72.226    41101.140    13868.814     5216.599       10.317        3.009      382.213       91.500        0.057      343.740       20.062      856.247
04/29/2013  21:01:00     -293.998       -6.122       -6.907      145.738      144.154       67.970    21239.544    20780.378     4619.942        6.657        2.332      294.062       60.801        0.043      343.714       20.015      856.255
04/29/2013  21:02:00     -343.402      -94.557      -25.347      149.993      149.444       66.842    22497.926    22333.449     4467.871        8.839        2.465      356.182       70.305        0.039      343.714       20.015      856.253
04/29/2013  21:03:00     -336.320        1.755      -20.679      102.197       94.192       60.822    10444.214     8872.212     3699.266        6.827        1.151      336.324       49.223        0.021      343.715       20.017      856.265
04/29/2013  21:04:00     -301.686      -47.720      -21.180       88.533       65.546       51.655     7838.093     4296.279     2668.248        5.427        0.740      305.437       46.468        0.023      343.701       19.993      856.279
04/29/2013  21:05:00     -293.083     -115.675      -19.492      156.334      125.648       65.558    24440.395    15787.526     4297.832        7.208        2.226      315.084       71.183        0.051      343.697       19.989      856.283
04/29/2013  21:06:00     -362.014      -32.972      -31.515      124.213      113.759       67.096    15428.814    12941.098     4501.919        8.300        1.644      363.512       63.421        0.030      343.675       19.949      856.292
04/29/2013  21:07:00     -275.222      -28.180       -5.272      154.153      123.843       61.898    23763.157    15337.144     3831.348        5.974        2.147      276.661       67.763        0.060      343.659       19.924      856.312
04/29/2013  21:08:00     -350.726      -73.230      -27.711      124.928       98.699       60.908    15606.991     9741.442     3709.800        7.909        1.453      358.290       53.363        0.022      343.645       19.899      856.336
04/29/2013  21:09:00     -256.766      -77.715      -17.779       92.815       96.381       51.345     8614.537     9289.364     2636.354        4.641        1.027      268.270       43.349        0.026      343.644       19.897      856.348
04/29/2013  21:10:00     -266.114      -70.135       -8.388      135.933      108.462       60.249    18477.863    11764.065     3629.905        5.483        1.694      275.201       61.937        0.051      343.652       19.911      856.362
04/29/2013  21:11:00     -248.126      -84.838      -12.545       93.431       85.444       49.437     8729.327     7300.762     2444.024        4.369        0.924      262.229       46.263        0.031      343.638       19.887      856.369
04/29/2013  21:12:00     -275.077      -64.626      -24.515      103.771      106.669       54.197    10768.448    11378.355     2937.304        5.276        1.254      282.566       51.326        0.033      343.630       19.872      856.378
04/29/2013  21:13:00     -317.074      -28.592      -15.864      141.466       89.372       59.077    20012.740     7987.316     3490.129        6.654        1.575      318.360       69.414        0.048      343.605       19.831      856.400
04/29/2013  21:14:00     -261.826      -94.153       -3.338       96.098       78.748       40.438     9234.820     6201.305     1635.256        4.725        0.854      278.240       45.854        0.027      343.604       19.829      856.415
04/29/2013  21:15:00     -196.238      -16.957      -11.865       91.015       68.109       45.374     8283.768     4638.813     2058.801        2.696        0.749      196.969       46.936        0.057      343.583       19.795      856.446
04/29/2013  21:16:00     -204.725      -60.038      -14.640       81.815       73.695       45.998     6693.773     5430.984     2115.785        2.998        0.712      213.347       51.164        0.058      343.568       19.769      856.475
04/29/2013  21:17:00     -108.229       11.866       -4.197       64.567       58.530       32.944     4168.861     3425.714     1085.315        1.027        0.434      108.878       22.094        0.041      343.557       19.752      856.492
04/29/2013  21:18:00      -96.657       35.899      -10.076       60.930       39.863       26.980     3712.407     1589.054      727.930        0.838        0.301      103.109       22.431        0.047      343.539       19.722      856.512
04/29/2013  21:19:00     -101.676       35.490       -9.921       62.744       96.110       39.580     3936.841     9237.211     1566.567        1.322        0.737      107.692       26.069        0.059      343.511       19.674      856.537
04/29/2013  21:20:00     -127.941      199.856      -15.923       75.917       76.764       50.958     5763.450     5892.779     2596.752        3.541        0.713      237.300       45.202        0.036      343.409       19.497      856.555
04/29/2013  21:21:00     -103.067      103.964       -0.832       77.266       82.389       62.193     5969.960     6787.963     3868.026        1.903        0.831      146.394       33.977        0.054      343.408       19.497      856.576
04/29/2013  21:22:00     -156.429      149.066      -12.373      100.805       97.500       52.390    10161.701     9506.182     2744.756        3.462        1.121      216.081       45.228        0.044      343.408       19.496      856.585
04/29/2013  21:23:00      -70.033      202.208      -21.263       72.413      148.983       46.727     5243.638    22196.063     2183.406        3.793        1.481      213.992       57.994        0.073      343.238       19.209      856.597
04/29/2013  21:24:00     -122.831      342.223      -34.145       79.124       98.159       56.990     6260.685     9635.230     3247.830        7.625        0.957      363.598       54.938        0.023      342.927       18.675      856.588
04/29/2013  21:25:00     -107.935      213.038      -27.844       63.982       93.227       47.748     4093.635     8691.254     2279.915        3.643        0.753      238.820       37.086        0.024      342.877       18.590      856.591
04/29/2013  21:26:00     -108.637      135.879      -24.461       77.883       60.528       41.728     6065.746     3663.677     1741.193        2.116        0.574      173.969       39.416        0.051      342.867       18.576      856.598
04/29/2013  21:27:00     -106.405      198.184      -24.665       71.511       89.041       57.227     5113.789     7928.293     3274.982        3.376        0.816      224.943       43.664        0.038      342.749       18.374      856.622
04/29/2013  21:28:00     -198.870       49.751      -17.362       55.128      112.879       48.622     3039.058    12741.627     2364.080        3.023        0.907      204.998       36.125        0.031      342.784       18.433      856.625
04/29/2013  21:29:00     -236.746       33.589      -28.369      118.492      118.071       49.738    14040.279    13940.878     2473.891        4.421        1.523      239.117       40.099        0.028      342.718       18.320      856.640
04/29/2013  21:30:00     -262.350        6.521      -27.646       89.012      126.203       49.192     7923.081    15927.137     2419.841        4.795        1.314      262.431       32.345        0.015      342.678       18.252      856.657
04/29/2013  21:31:00     -102.414       30.651        7.313       94.212       83.125       41.352     8875.992     6909.820     1710.008        1.449        0.875      106.902       41.747        0.153      342.602       18.126      856.691
04/29/2013  21:32:00     -148.520      -61.977       -3.311       99.915       84.572       46.918     9983.028     7152.430     2201.296        2.262        0.967      160.933       48.177        0.090      342.640       18.189      856.694
04/29/2013  21:33:00     -194.165      -45.967      -17.395       89.077       79.758       43.814     7934.688     6361.287     1919.693        2.816        0.811      199.532       36.545        0.034      342.521       17.986      856.710
04/29/2013  21:34:00     -216.105       -6.512       -5.477      122.334       69.959       51.860    14965.656     4894.252     2689.510        3.466        1.127      216.203       56.937        0.069      342.441       17.850      856.736
04/29/2013  21:35:00     -216.720      124.253      -33.764      135.939      104.920       56.493    18479.435    11008.196     3191.428        4.811        1.634      249.813       53.361        0.046      342.414       17.803      856.761
04/29/2013  21:36:00     -311.513       53.715      -42.695       90.485      131.256       42.643     8187.621    17228.064     1818.453        6.449        1.362      316.110       22.675        0.005      342.380       17.745      856.731
04/29/2013  21:37:00      -64.690      -23.306       32.287      103.077       57.574       43.028    10624.965     3314.774     1851.396        1.078        0.790       68.761       34.822        0.256      342.358       17.710      856.732
04/29/2013  21:38:00      -75.692       51.204       -0.665       55.877       64.782       31.946     3122.230     4196.674     1020.518        0.834        0.417       91.384       21.774        0.057      342.322       17.649      856.763
04/29/2013  21:39:00      -35.724      103.400       -1.923       78.313      152.610       52.776     6132.984    23289.708     2785.330        2.208        1.610      109.397       69.415        0.403      342.387       17.759      856.761
04/29/2013  21:40:00       18.114      274.105      -20.140       97.075      189.957       85.116     9423.617    36083.806     7244.687        6.430        2.638      274.703       99.784        0.132      342.397       17.776      856.715
04/29/2013  21:41:00     -109.150      198.615      -31.155       79.012      133.276       56.971     6242.854    17762.382     3245.708        3.979        1.363      226.631       50.450        0.050      342.363       17.718      856.717
04/29/2013  21:42:00     -101.377       85.865      -14.467       67.438       64.806       40.118     4547.819     4199.872     1609.426        1.411        0.518      132.853       34.784        0.069      342.343       17.683      856.765
04/29/2013  21:43:00     -184.215      207.745      -45.182      108.478       84.705       69.365    11767.478     7174.946     4811.497        5.144        1.188      277.656       53.503        0.037      342.403       17.784      856.794
04/29/2013  21:44:00     -153.276      131.928      -12.496      110.804       87.355       67.767    12277.530     7630.857     4592.394        3.277        1.225      202.234       71.907        0.126      342.442       17.853      856.815
04/29/2013  21:45:00     -113.787       37.729       -9.951       53.403       38.595       30.620     2851.878     1489.567      937.585        0.987        0.264      119.879       21.979        0.034      342.421       17.817      856.829
04/29/2013  21:46:00     -108.170       45.317       -7.315       63.317       85.128       39.603     4009.011     7246.853     1568.423        1.331        0.641      117.279       32.309        0.076      342.293       17.600      856.860
04/29/2013  21:47:00     -193.971      -50.795       -9.593      114.766       91.319       52.070    13171.215     8339.106     2711.254        3.225        1.211      200.511       53.209        0.070      342.185       17.417      856.852
04/29/2013  21:48:00     -190.702      121.539      -35.310       99.464      205.201       68.362     9893.036    42107.395     4673.410        5.452        2.834      226.140       67.994        0.090      342.192       17.427      856.865
04/29/2013  21:49:00     -255.385      316.465      -64.104      111.219      112.162       59.288    12369.679    12580.233     3515.046        9.897        1.423      406.659       55.202        0.018      342.207       17.452      856.881
04/29/2013  21:50:00     -147.137      258.953      -34.040       94.728       99.428       65.833     8973.473     9886.014     4333.950        5.652        1.160      297.836       59.393        0.040      342.243       17.512      856.899
04/29/2013  21:51:00     -182.649      256.176      -39.237       92.382       97.398       57.359     8534.455     9486.444     3290.009        6.091        1.066      314.622       41.298        0.017      342.201       17.443      856.881
04/29/2013  21:52:00     -147.079      354.453      -46.686       85.309      139.372       60.718     7277.561    19424.463     3686.645        8.991        1.519      383.757       68.302        0.032      342.177       17.402      856.890
04/29/2013  21:53:00     -103.331      311.533      -41.194       95.067      124.966       59.179     9037.801    15616.516     3502.119        6.879        1.408      328.222       65.646        0.040      342.127       17.315      856.886
04/29/2013  21:54:00      -65.908      341.892      -39.917       79.553      145.233       61.415     6328.751    21092.668     3771.824        7.700        1.560      348.187       61.739        0.031      342.075       17.227      856.847
04/29/2013  21:55:00     -142.177      236.042      -36.926       78.762      108.684       57.685     6203.389    11812.267     3327.561        4.931        1.067      275.554       38.077        0.019      342.073       17.222      856.879
04/29/2013  21:56:00      -78.617      303.521      -33.105       83.502       92.164       53.856     6972.631     8494.263     2900.506        5.888        0.918      313.537       45.569        0.021      342.039       17.165      856.882
04/29/2013  21:57:00     -139.345      282.074      -13.699      157.989      128.887       76.430    24960.531    16611.910     5841.532        7.328        2.371      314.615       78.074        0.062      342.023       17.138      856.883
04/29/2013  21:58:00     -193.720      276.757      -46.061       92.697       90.793       59.509     8592.770     8243.450     3541.287        6.831        1.019      337.819       50.307        0.022      342.033       17.156      856.887
04/29/2013  21:59:00     -112.094      203.133      -26.508       95.131       92.216       56.817     9049.920     8503.802     3228.209        3.765        1.039      232.009       54.238        0.055      341.999       17.099      856.884
04/29/2013  22:00:00     -189.558      175.674      -30.122       80.652      130.624       60.760     6504.793    17062.533     3691.734        4.747        1.363      258.444       54.540        0.045      341.960       17.033      856.886
04/29/2013  22:01:00     -157.771      253.682      -40.218      114.532      201.404       59.512    13117.534    40563.708     3541.701        7.403        2.861      298.741       87.362        0.086      341.921       16.968      856.900
04/29/2013  22:02:00     -168.712      178.561      -16.992      121.086      160.032       67.661    14661.815    25610.097     4578.056        5.273        2.242      245.658       44.899        0.033      341.892       16.917      856.917
04/29/2013  22:03:00     -140.067      154.692      -32.663       80.167      141.297       52.903     6426.698    19964.932     2798.711        3.690        1.460      208.683       35.728        0.029      341.909       16.947      856.911
04/29/2013  22:04:00     -242.814      352.371      -62.070      115.792      147.438       75.710    13407.892    21738.039     5732.057       11.392        2.044      427.930       75.428        0.031      341.808       16.775      856.913
04/29/2013  22:05:00     -214.946      175.600      -35.298       84.516      108.675       55.094     7142.881    11810.333     3035.391        5.013        1.099      277.556       49.908        0.032      341.768       16.704      856.853
04/29/2013  22:06:00      -64.413      229.036       -1.909       77.164      185.802       65.077     5954.318    34522.531     4235.007        5.065        2.236      237.921       75.910        0.102      341.770       16.709      856.875
04/29/2013  22:07:00      -87.508      297.639      -16.993      100.273      150.989       66.063    10054.667    22797.818     4364.262        6.687        1.861      310.237       56.341        0.033      341.747       16.669      856.871
04/29/2013  22:08:00     -238.710      226.044      -57.054      110.059      110.024       62.672    12113.045    12105.183     3927.826        6.973        1.407      328.753       55.978        0.029      341.726       16.636      856.927
04/29/2013  22:09:00     -191.051      175.534      -25.599      118.628       94.972       74.610    14072.685     9019.633     5566.708        4.831        1.433      259.447       71.196        0.075      341.722       16.629      856.972
04/29/2013  22:10:00     -190.568      200.119      -33.555      132.178      148.751       74.656    17471.076    22126.887     5573.501        6.132        2.259      276.340       73.984        0.072      341.689       16.574      856.977
04/29/2013  22:11:00     -230.894      227.312      -48.108       97.434      161.884       64.242     9493.381    26206.394     4126.984        7.355        1.991      324.010       62.842        0.038      341.679       16.556      856.994
04/29/2013  22:12:00     -236.903      182.939      -46.262      128.253      110.165       62.798    16448.807    12136.338     3943.632        6.212        1.626      299.315       57.815        0.037      341.623       16.460      857.008
04/29/2013  22:13:00     -192.791       75.412      -24.127      100.932       81.938       48.440    10187.311     6713.786     2346.395        3.134        0.962      207.015       34.410        0.028      341.624       16.463      857.006
04/29/2013  22:14:00     -197.455      210.374      -35.119      103.805      113.722       68.428    10775.574    12932.733     4682.328        5.643        1.420      288.523       56.648        0.039      341.557       16.349      857.019
04/29/2013  22:15:00     -168.778      292.069      -35.907       97.137      126.888       71.599     9435.652    16100.562     5126.404        7.287        1.533      337.329       71.607        0.045      341.511       16.270      857.019
04/29/2013  22:16:00     -183.783      259.731      -45.424       91.626      134.469       69.866     8395.329    18081.976     4881.245        6.732        1.568      318.177       73.588        0.053      341.510       16.268      857.023
04/29/2013  22:17:00     -229.482      289.014      -69.684      134.920      149.370       71.598    18203.421    22311.430     5126.314        9.333        2.282      369.040       73.178        0.039      341.490       16.234      857.041
04/29/2013  22:18:00     -183.638      121.673      -19.551       95.655      116.247       66.849     9149.879    13513.252     4468.775        3.802        1.357      220.289       74.582        0.115      341.488       16.231      857.050
04/29/2013  22:19:00     -193.282      212.556      -23.439      150.214      111.118       60.057    22564.183    12347.305     3606.795        6.080        1.926      287.295       51.764        0.032      341.459       16.183      857.058
04/29/2013  22:20:00     -205.896      251.553      -33.527      139.065      111.693       76.084    19339.125    12475.412     5788.706        7.219        1.880      325.073       79.937        0.060      341.409       16.097      857.072
04/29/2013  22:21:00     -248.422      233.136      -27.425      139.780      172.105       89.068    19538.415    29620.169     7933.136        8.694        2.855      340.684       88.250        0.067      341.389       16.064      857.074
04/29/2013  22:22:00     -176.671      239.071      -37.998      111.519      104.041       67.652    12436.409    10824.458     4576.818        5.882        1.392      297.267       60.972        0.042      341.388       16.063      857.062
04/29/2013  22:23:00     -107.319      237.356       -9.706      122.635      132.008       77.564    15039.301    17426.186     6016.130        5.321        1.924      260.490       78.590        0.091      341.366       16.025      857.009
04/29/2013  22:24:00     -165.249      284.098      -40.356      119.663      178.714       75.504    14319.142    31938.567     5700.848        8.079        2.598      328.662       70.100        0.045      341.320       15.948      857.008
04/29/2013  22:25:00     -157.758      294.189      -37.177      164.598      184.507       83.393    27092.624    34042.701     6954.475        9.044        3.404      333.818       94.605        0.080      341.298       15.912      856.973
04/29/2013  22:26:00     -203.223      357.144      -34.100      121.560      153.895       91.485    14776.747    23683.589     8369.511       10.841        2.341      410.915       84.676        0.042      341.293       15.902      856.982
04/29/2013  22:27:00     -172.729      341.924      -43.758      133.299      161.909       87.209    17768.513    26214.653     7605.402       10.012        2.579      383.077       92.539        0.058      341.270       15.864      856.950
04/29/2013  22:28:00     -237.578      418.844      -59.174      164.642      161.756       85.314    27106.990    26164.899     7278.463       14.795        3.028      481.533       88.131        0.033      341.251       15.830      856.962
04/29/2013  22:29:00     -190.657      242.900      -22.651      112.309      123.180       84.420    12613.322    15173.309     7126.735        6.538        1.746      308.788       78.054        0.064      341.252       15.833      856.979
04/29/2013  22:30:00     -192.207      315.650      -44.350      128.210      146.469       72.315    16437.918    21453.244     5229.475        9.082        2.156      369.566       69.162        0.035      341.213       15.765      857.001
04/29/2013  22:31:00     -254.974      314.961      -64.798      142.469      138.209       78.210    20297.275    19101.777     6116.819       10.695        2.276      405.231       78.330        0.037      341.221       15.779      856.993
04/29/2013  22:32:00     -228.380      278.815      -60.555      119.276      123.408       62.235    14226.677    15229.421     3873.159        8.344        1.666      360.410       50.627        0.020      341.223       15.783      857.015
04/29/2013  22:33:00     -263.608      258.814      -58.438      114.022      154.600       76.296    13001.112    23901.305     5821.084        9.130        2.136      369.424       86.181        0.054      341.199       15.743      857.050
04/29/2013  22:34:00     -239.233      224.442      -38.051      164.755      111.221       73.566    27144.113    12370.112     5412.022        7.698        2.246      328.035       77.011        0.055      341.194       15.734      857.088
04/29/2013  22:35:00     -198.383      143.342      -20.929      164.725      173.399       80.285    27134.212    30067.366     6445.647        6.198        3.182      244.750       69.023        0.080      341.174       15.699      857.083
04/29/2013  22:36:00     -232.649      298.807      -64.270      105.225      137.063       66.872    11072.266    18786.331     4471.894        9.093        1.717      378.697       69.840        0.034      341.148       15.655      857.096
04/29/2013  22:37:00     -126.284      292.007      -24.365      101.864      175.929       84.062    10376.374    30950.983     7066.433        7.509        2.420      318.144       92.815        0.085      341.136       15.637      857.086
04/29/2013  22:38:00     -222.633      294.580      -42.258      174.741      126.306       83.919    30534.492    15953.092     7042.412        9.582        2.676      369.247       91.615        0.062      341.114       15.598      857.066
04/29/2013  22:39:00     -150.292      392.017      -40.961      133.574      175.703       86.631    17841.990    30871.638     7504.996       11.707        2.811      419.839       89.357        0.045      341.103       15.579      857.067
04/29/2013  22:40:00      -86.682      410.385      -36.406      118.010      129.770       73.988    13926.318    16840.214     5474.256       10.674        1.812      419.440       74.907        0.032      341.050       15.491      857.029
04/29/2013  22:41:00     -180.980      394.646      -50.707      182.825      177.762       97.023    33424.903    31599.176     9413.457       13.274        3.722      434.165       99.230        0.052      341.059       15.507      856.982
04/29/2013  22:42:00     -183.267      576.106      -63.324      131.249      203.625       93.091    17226.340    41463.321     8665.927       21.841        3.368      604.554       94.674        0.025      341.071       15.526      856.984
04/29/2013  22:43:00     -143.604      494.883      -42.740      124.257      189.610       84.519    15439.725    35952.042     7143.456       16.294        2.927      515.297       97.121        0.036      341.053       15.496      857.014
04/29/2013  22:44:00     -241.200      287.078      -37.450      139.655      175.032       82.261    19503.575    30636.067     6766.846        9.944        2.845      374.955       86.745        0.054      341.055       15.498      857.047
04/29/2013  22:45:00     -261.130      313.756      -61.920      122.642      162.023       75.027    15041.160    26251.376     5629.097       10.868        2.346      408.205       80.205        0.039      341.004       15.412      857.076
04/29/2013  22:46:00     -175.229      231.890      -36.236      106.430      138.014       61.904    11327.422    19047.914     3832.080        5.999        1.710      290.651       56.857        0.038      340.978       15.368      857.116
04/29/2013  22:47:00     -194.606      335.789      -58.044      100.106      121.265       62.616    10021.296    14705.239     3920.761        9.132        1.432      388.105       63.617        0.027      340.962       15.341      857.112
04/29/2013  22:48:00     -193.561      431.106      -62.402       87.507      161.030       62.302     7657.511    25930.637     3881.525       13.233        1.873      472.566       59.762        0.016      340.920       15.270      857.112
04/29/2013  22:49:00     -199.512      262.042      -48.153      120.344      129.835       69.371    14482.674    16857.180     4812.395        7.346        1.808      329.350       56.948        0.030      340.923       15.274      857.097
04/29/2013  22:50:00     -121.635      249.644      -27.195       86.516      143.088       71.234     7484.934    20474.123     5074.227        5.544        1.652      277.700       65.068        0.055      340.908       15.251      857.081
04/29/2013  22:51:00     -153.464      274.681      -48.302       89.846      117.756       62.658     8072.350    13866.444     3926.073        6.359        1.293      314.644       60.018        0.036      340.918       15.267      857.079
04/29/2013  22:52:00     -167.398      420.671      -53.639      117.552      156.827       78.843    13818.504    24594.816     6216.206       12.624        2.231      452.754       74.618        0.027      340.885       15.211      857.066
04/29/2013  22:53:00     -184.217      410.170      -49.509      128.352      129.352       70.249    16474.356    16732.061     4934.983       12.138        1.907      449.639       70.736        0.025      340.888       15.215      857.051
04/29/2013  22:54:00     -105.813      394.305      -41.019      101.655      133.618       70.494    10333.698    17853.844     4969.469       10.075        1.658      408.256       76.815        0.035      340.858       15.166      857.049
04/29/2013  22:55:00     -209.182      400.966      -54.398      129.183      167.051       78.965    16688.119    27906.161     6235.510       12.915        2.541      452.251       87.153        0.037      340.850       15.153      857.061
04/29/2013  22:56:00     -159.107      416.587      -49.972      105.173      115.299       73.864    11061.268    13293.936     5455.821       11.558        1.491      445.937       66.842        0.022      340.830       15.119      857.087
04/29/2013  22:57:00     -166.224      325.646      -38.893       83.178      103.116       59.140     6918.538    10632.934     3497.536        7.811        1.052      365.617       42.358        0.013      340.846       15.145      857.068
04/29/2013  22:58:00     -124.520      337.630      -44.738       69.211      135.553       67.384     4790.106    18374.664     4540.617        7.960        1.385      359.860       75.470        0.044      340.852       15.154      857.057
04/29/2013  22:59:00     -197.544      386.741      -53.534      116.525      143.847       76.757    13578.128    20692.047     5891.705       11.580        2.008      434.272       78.411        0.033      340.885       15.210      857.070
04/29/2013  23:00:00     -176.145      409.200      -45.446      108.374      152.041       83.184    11744.895    23116.392     6919.635       12.115        2.089      445.501       87.431        0.039      340.873       15.192      857.069
04/29/2013  23:01:00     -147.145      327.032      -41.852      100.436      136.786       72.635    10087.306    18710.378     5275.848        8.221        1.704      358.611       83.313        0.054      340.865       15.177      857.079
04/29/2013  23:02:00     -169.328      305.000      -51.441      128.725      157.841       76.667    16570.189    24913.734     5877.866        8.584        2.368      348.851       76.731        0.048      340.845       15.144      857.050
04/29/2013  23:03:00     -160.779      363.559      -38.994      126.506      142.497       71.803    16003.839    20305.433     5155.724       10.050        2.073      397.524       73.789        0.034      340.823       15.106      857.047
04/29/2013  23:04:00     -237.398      405.311      -56.249      136.639      189.032       89.254    18670.125    35733.207     7966.204       14.307        3.118      469.718       96.196        0.042      340.810       15.086      857.058
04/29/2013  23:05:00     -179.685      293.004      -40.135      134.413      183.329       71.804    18066.779    33609.500     5155.785        8.828        2.842      343.712       85.971        0.063      340.808       15.081      857.053
04/29/2013  23:06:00     -119.848      367.619      -29.716      108.085      135.961       79.065    11682.432    18485.430     6251.254        9.340        1.821      386.662       74.268        0.037      340.773       15.023      857.048
04/29/2013  23:07:00     -150.815      297.486      -32.181      125.622      136.921       83.030    15780.990    18747.240     6894.051        7.684        2.071      333.531       77.882        0.055      340.766       15.009      857.049
04/29/2013  23:08:00     -178.292      452.815      -48.158      102.049      189.111       74.434    10413.950    35763.099     5540.468       14.542        2.586      486.651       85.183        0.031      340.723       14.937      857.054
04/29/2013  23:09:00     -129.242      485.426      -46.391      104.583      224.168       83.024    10937.698    50251.186     6893.048       16.127        3.404      502.337      102.290        0.041      340.709       14.912      857.038
04/29/2013  23:10:00     -157.289      440.620      -47.994      100.768      215.663       83.882    10154.272    46510.694     7036.259       14.243        3.185      467.853      102.730        0.048      340.703       14.904      857.024
04/29/2013  23:11:00     -200.091      394.330      -37.899      147.062      197.020       92.468    21627.128    38816.688     8550.367       13.297        3.450      442.190       96.141        0.047      340.706       14.908      857.040
04/29/2013  23:12:00     -168.744      449.795      -50.655      136.204      178.544       80.395    18551.467    31877.888     6463.426       14.511        2.845      480.407       79.848        0.028      340.677       14.859      857.052
04/29/2013  23:13:00     -167.069      346.718      -47.252      105.368      190.631       65.529    11102.326    36340.157     4293.990       10.104        2.587      384.870       74.138        0.037      340.671       14.849      857.003
04/29/2013  23:14:00     -152.122      436.840      -52.748      144.968      178.923       91.152    21015.658    32013.335     8308.727       13.903        3.067      462.569      103.287        0.050      340.654       14.821      856.974
04/29/2013  23:15:00     -195.962      506.634      -66.218      153.381      196.167       93.110    23525.821    38481.601     8669.427       18.506        3.534      543.212       96.224        0.031      340.635       14.789      856.961
04/29/2013  23:16:00     -180.609      382.118      -43.355      121.947      182.415       82.393    14871.163    33275.271     6788.557       11.771        2.747      422.651       87.361        0.043      340.658       14.827      856.970
04/29/2013  23:17:00     -193.207      412.583      -48.405      122.706      131.205       82.708    15056.842    17214.796     6840.647       12.450        1.956      455.580       77.883        0.029      340.633       14.784      856.952
04/29/2013  23:18:00     -110.344      280.503      -15.642       86.976      164.330       72.089     7564.881    27004.417     5196.811        6.543        1.988      301.426       68.047        0.051      340.637       14.790      856.958
04/29/2013  23:19:00     -147.851      223.897      -32.420      103.377      134.707       62.744    10686.779    18145.962     3936.843        5.290        1.638      268.309       75.999        0.080      340.654       14.821      856.962
04/29/2013  23:20:00     -259.023      283.594      -59.833      140.794      138.231       86.901    19822.825    19107.847     7551.834        9.878        2.324      384.081       90.772        0.056      340.594       14.719      856.978
04/29/2013  23:21:00     -219.273      210.704      -33.777      103.074      121.221       76.147    10624.303    14694.458     5798.378        6.236        1.556      304.100       70.613        0.054      340.582       14.700      856.973
04/29/2013  23:22:00     -229.298      315.779      -59.143      138.060      151.783       72.521    19060.444    23038.084     5259.306       10.157        2.368      390.248       87.746        0.051      340.576       14.689      856.999
04/29/2013  23:23:00     -255.749      253.979      -55.894      119.712       98.776       69.413    14330.955     9756.618     4818.107        8.097        1.445      360.434       65.896        0.033      340.551       14.645      856.993
04/29/2013  23:24:00     -175.117      161.052      -20.391      129.505      104.013       65.270    16771.654    10818.655     4260.108        4.443        1.593      237.916       57.016        0.057      340.562       14.666      856.997
04/29/2013  23:25:00     -160.296      241.015      -18.013      124.023      141.046       77.269    15381.828    19893.967     5970.526        6.267        2.062      289.453       75.991        0.069      340.527       14.606      856.990
04/29/2013  23:26:00     -197.348      245.078      -43.073      124.719      170.565       73.205    15554.948    29092.362     5359.027        7.543        2.500      314.658       88.901        0.080      340.488       14.539      856.984
04/29/2013  23:27:00     -210.028      238.710      -56.706      108.057       94.598       57.898    11676.293     8948.712     3352.151        6.414        1.199      317.953       70.714        0.049      340.466       14.503      856.972
04/29/2013  23:28:00     -145.204      184.052      -22.646       89.236      107.024       53.337     7963.126    11454.033     2844.834        3.886        1.113      234.434       50.001        0.045      340.472       14.513      856.961
04/29/2013  23:29:00     -118.147      233.948      -19.423       92.674      109.696       66.861     8588.490    12033.294     4470.331        4.707        1.255      262.088       70.059        0.071      340.467       14.504      856.963
04/29/2013  23:30:00     -187.226      218.091      -36.134      111.000      127.652       60.379    12320.893    16295.125     3645.629        5.809        1.613      287.432       57.184        0.040      340.461       14.492      856.969
04/29/2013  23:31:00     -178.286      376.838      -42.440      101.009      151.378       69.054    10202.804    22915.294     4768.524       10.673        1.894      416.884       76.268        0.033      340.426       14.436      856.991
04/29/2013  23:32:00     -159.734      219.340      -19.665       89.798      138.635       63.399     8063.714    19219.666     4019.460        5.265        1.565      271.339       59.311        0.048      340.453       14.481      856.992
04/29/2013  23:33:00     -186.559      184.328      -32.981      152.703      126.105       67.283    23318.315    15902.388     4526.956        5.680        2.187      262.261       69.587        0.070      340.424       14.430      857.015
04/29/2013  23:34:00     -165.960      199.702      -30.613      117.131      117.398       67.783    13719.583    13782.338     4594.480        5.022        1.605      259.661       78.152        0.091      340.420       14.426      857.023
04/29/2013  23:35:00     -230.832      254.625      -44.483      120.122      133.451       68.322    14429.315    17809.135     4667.828        7.849        1.845      343.682       70.824        0.042      340.408       14.405      857.028
04/29/2013  23:36:00     -223.204      236.030      -55.462      109.933       95.728       61.288    12085.343     9163.804     3756.276        6.680        1.250      324.854       52.250        0.026      340.392       14.378      857.047
04/29/2013  23:37:00     -128.881      292.752      -34.934       91.915      146.875       58.111     8448.339    21572.296     3376.922        6.846        1.670      319.866       57.270        0.032      340.390       14.373      857.046
04/29/2013  23:38:00     -208.569      224.059      -34.918      105.684      143.043       74.972    11169.058    20461.378     5620.805        6.608        1.863      306.110       72.598        0.056      340.388       14.369      857.056
04/29/2013  23:39:00     -182.081      189.342      -20.161      125.440      141.499       75.034    15735.145    20021.829     5630.056        5.539        2.069      262.686       73.401        0.078      340.372       14.344      857.060
04/29/2013  23:40:00     -188.344      314.946      -47.619      115.362      137.712       69.136    13308.376    18964.547     4779.763        8.698        1.853      366.966       78.274        0.045      340.354       14.314      857.065
04/29/2013  23:41:00     -179.618      365.435      -54.194       86.433      139.401       59.129     7470.647    19432.623     3496.227        9.957        1.520      407.192       57.119        0.020      340.361       14.326      857.085
04/29/2013  23:42:00     -265.753      350.277      -81.011      108.509      107.193       62.166    11774.233    11490.342     3864.654       11.350        1.356      439.680       53.733        0.015      340.372       14.344      857.087
04/29/2013  23:43:00     -242.609      274.835      -55.192      127.857      147.027       83.428    16347.432    21616.936     6960.154        9.117        2.246      366.597       76.430        0.043      340.346       14.299      857.080
04/29/2013  23:44:00     -135.469      183.664       -9.930       94.481      127.179       67.241     8926.740    16174.478     4521.364        4.090        1.481      228.219       58.392        0.065      340.347       14.303      857.078
04/29/2013  23:45:00     -208.970      257.555      -34.264       97.572      177.794       67.993     9520.358    31610.855     4623.097        7.846        2.288      331.667       71.389        0.046      340.342       14.292      857.082
04/29/2013  23:46:00     -228.204      281.043      -51.879       90.216       86.187       63.698     8138.882     7428.190     4057.455        7.669        0.981      362.025       57.344        0.025      340.322       14.259      857.098
04/29/2013  23:47:00     -118.107      174.480      -11.741       98.767       95.579       60.498     9754.996     9135.325     3660.051        3.354        1.128      210.696       56.224        0.071      340.286       14.200      857.103
04/29/2013  23:48:00     -133.349      241.760      -29.257       94.985      151.769       69.675     9022.096    23033.706     4854.567        5.699        1.846      276.097       63.492        0.053      340.268       14.168      857.102
04/29/2013  23:49:00     -162.497      256.323      -43.491       96.436      141.428       63.981     9299.923    20001.990     4093.508        6.369        1.670      303.491       68.585        0.051      340.237       14.117      857.104
04/29/2013  23:50:00     -163.396      273.957      -40.032       99.599      156.070       66.530     9920.003    24357.873     4426.290        7.102        1.935      318.984       59.526        0.035      340.231       14.105      857.099
04/29/2013  23:51:00     -106.305      148.635        0.341      114.980      109.553       65.249    13220.367    12001.837     4257.395        3.143        1.474      182.738       54.948        0.090      340.223       14.091      857.083
04/29/2013  23:52:00     -168.381      278.736      -17.810      106.344      134.228       75.591    11309.099    18017.119     5714.073        7.069        1.752      325.647       65.924        0.041      340.220       14.086      857.090
04/29/2013  23:53:00     -157.516      343.404      -31.616      103.744      163.981       75.284    10762.772    26889.699     5667.664        9.352        2.166      377.806       63.995        0.029      340.185       14.025      857.105
04/29/2013  23:54:00     -272.138      509.087      -74.582      139.865      163.756       76.317    19562.088    26815.945     5824.250       19.549        2.610      577.259       74.957        0.017      340.167       13.997      857.115
04/29/2013  23:55:00     -181.952      478.936      -58.377      148.700      174.124       73.858    22111.699    30319.173     5455.030       16.188        2.894      512.334       71.355        0.019      340.168       13.998      857.133
04/29/2013  23:56:00     -198.448      405.533      -50.780      120.741      188.163       84.766    14578.338    35405.168     7185.294       13.178        2.858      451.485       78.605        0.030      340.176       14.012      857.161
04/29/2013  23:57:00     -201.618      359.596      -55.478      113.893      132.663       73.162    12971.726    17599.519     5352.701       10.447        1.796      412.261       73.747        0.032      340.163       13.989      857.181
04/29/2013  23:58:00     -234.443      295.280      -66.750      148.347       96.031       74.095    22006.951     9221.942     5489.999        9.166        1.836      377.032       90.887        0.058      340.151       13.969      857.194
04/29/2013  23:59:00     -266.483      398.744      -64.458      148.817      162.311       90.642    22146.428    26344.774     8215.991       14.542        2.835      479.593       92.167        0.037      340.141       13.953      857.196
